[[{"header":{"parameterUnit":"m.s-1","parameterCategory":1,"la1":30.6,"la2":28.766,"lo1":-90.7593,"lo2":-88.6598,"dy":0.0162,"dx":0.0183,"nx":116,"ny":114,"refTime":"2023-06-10T06:00:00:Z","depth":0,"parameterNumber":2,"parameterNumberName":"U-component_of_WINDS"},"data":[0.0,0.0,0.0,0.0,0.0,0.0,0.0,0.0,0.0,0.0,0.0,0.0,0.0,0.0,0.0,0.0,0.0,0.0,0.0,0.0,0.0,0.0,0.0,0.0,0.0,0.0,0.0,0.0,0.0,0.0,0.0,0.0,0.0,0.0,0.0,0.0,0.0,0.0,0.0,0.0,0.0,0.0,0.0,0.0,0.0,0.0,0.0,0.0,0.0,0.0,0.0,0.0,0.0,0.0,0.0,0.0,0.0,0.0,0.0,0.0,0.0,0.0,0.0,0.0,0.0,0.0,0.0,0.0,0.0,0.0,0.0,0.0,0.0,0.0,0.0,0.0,0.0,0.0,0.0,0.0,0.0,0.0,0.0,0.0,0.0,0.0,0.0,0.0,0.0,0.0,0.0,0.0,0.0,0.0,0.0,0.0,0.0,0.0,0.0,0.0,0.0,0.0,0.0,0.0,0.0,0.0,0.0,0.0,0.0,0.0,0.0,0.0,0.0,0.0,0.0,0.0,0.0,0.0,0.0,0.0,0.0,0.0,0.0,0.0,0.0,0.0,0.0,0.0,0.0,0.0,0.0,0.0,0.0,0.0,0.0,0.0,0.0,0.0,0.0,0.0,0.0,0.0,0.0,0.0,0.0,0.0,0.0,0.0,0.0,0.0,0.0,0.0,0.0,0.0,0.0,0.0,0.0,0.0,0.0,0.0,0.0,0.0,0.0,0.0,0.0,0.0,0.0,0.0,0.0,0.0,0.0,0.0,0.0,0.0,0.0,0.0,0.0,0.0,0.0,0.0,0.0,0.0,0.0,0.0,0.0,0.0,0.0,0.0,0.0,0.0,0.0,0.0,0.0,0.0,0.0,0.0,0.0,0.0,0.0,0.0,0.0,0.0,0.0,0.0,0.0,0.0,0.0,0.0,0.0,0.0,0.0,0.0,0.0,0.0,0.0,0.0,0.0,0.0,0.0,0.0,0.0,0.0,0.0,0.0,0.0,0.0,0.0,0.0,0.0,0.0,0.0,0.0,0.0,0.0,0.0,0.0,0.0,0.0,0.0,0.0,0.0,0.0,0.0,0.0,0.0,0.0,0.0,0.0,0.0,0.0,0.0,0.0,0.0,0.0,0.0,0.0,0.0,0.0,0.0,0.0,0.0,0.0,0.0,0.0,0.0,0.0,0.0,0.0,0.0,0.0,0.0,0.0,0.0,0.0,0.0,0.0,0.0,0.0,0.0,0.0,0.0,0.0,0.0,0.0,0.0,0.0,0.0,0.0,0.0,0.0,0.0,0.0,0.0,0.0,0.0,0.0,0.0,0.0,0.0,0.0,0.0,0.0,0.0,0.0,0.0,0.0,0.0,0.0,0.0,0.0,0.0,0.0,0.0,0.0,0.0,0.0,0.0,0.0,0.0,0.0,0.0,0.0,0.0,0.0,0.0,0.0,0.0,0.0,0.0,0.0,0.0,0.0,0.0,0.0,0.0,0.0,0.0,0.0,0.0,0.0,0.0,0.0,0.0,0.0,0.0,0.0,0.0,0.0,0.0,0.0,0.0,0.0,0.0,0.0,0.0,0.0,0.0,0.0,0.0,0.0,0.0,0.0,0.0,0.0,0.0,0.0,0.0,0.0,0.0,0.0,0.0,0.0,0.0,0.0,0.0,0.0,0.0,0.0,0.0,0.0,0.0,0.0,0.0,0.0,0.0,0.0,0.0,0.0,0.0,0.0,0.0,0.0,0.0,0.0,0.0,0.0,0.0,0.0,0.0,0.0,0.0,0.0,0.0,0.0,0.0,0.0,0.0,0.0,0.0,0.0,0.0,0.0,0.0,0.0,0.0,0.0,0.0,0.0,0.0,0.0,0.0,0.0,0.0,0.0,0.0,0.0,0.0,0.0,0.0,0.0,0.0,0.0,0.0,0.0,0.0,0.0,0.0,0.0,0.0,0.0,0.0,0.0,0.0,0.0,0.0,0.0,0.0,0.0,0.0,0.0,0.0,0.0,0.0,0.0,0.0,0.0,0.0,0.0,0.0,0.0,0.0,0.0,0.0,0.0,0.0,0.0,0.0,0.0,0.0,0.0,0.0,0.0,0.0,0.0,0.0,0.0,0.0,0.0,0.0,0.0,0.0,0.0,0.0,0.0,0.0,0.0,0.0,0.0,0.0,0.0,0.0,0.0,0.0,0.0,0.0,0.0,0.0,0.0,0.0,0.0,0.0,0.0,0.0,0.0,0.0,0.0,0.0,0.0,0.0,0.0,0.0,0.0,0.0,0.0,0.0,0.0,0.0,0.0,0.0,0.0,0.0,0.0,0.0,0.0,0.0,0.0,0.0,0.0,0.0,0.0,0.0,0.0,0.0,0.0,0.0,0.0,0.0,0.0,0.0,0.0,0.0,0.0,0.0,0.0,0.0,0.0,0.0,0.0,0.0,0.0,0.0,0.0,0.0,0.0,0.0,0.0,0.0,0.0,0.0,0.0,0.0,0.0,0.0,0.0,0.0,0.0,0.0,0.0,0.0,0.0,0.0,0.0,0.0,0.0,0.0,0.0,0.0,0.0,0.0,0.0,0.0,0.0,0.0,0.0,0.0,0.0,0.0,0.0,0.0,0.0,0.0,0.0,0.0,0.0,0.0,0.0,0.0,0.0,0.0,0.0,0.0,0.0,0.0,0.0,0.0,0.0,0.0,0.0,0.0,0.0,0.0,0.0,0.0,0.0,0.0,0.0,0.0,0.0,0.0,0.0,0.0,0.0,0.0,0.0,0.0,0.0,0.0,0.0,0.0,0.0,0.0,0.0,0.0,0.0,0.0,0.0,0.0,0.0,0.0,0.0,0.0,0.0,0.0,0.0,0.0,0.0,0.0,0.0,0.0,0.0,0.0,0.0,0.0,0.0,0.0,0.0,0.0,0.0,0.0,0.0,0.0,0.0,0.0,0.0,0.0,0.0,0.0,0.0,0.0,0.0,0.0,0.0,0.0,0.0,0.0,0.0,0.0,0.0,0.0,0.0,0.0,0.0,0.0,0.0,0.0,0.0,0.0,0.0,0.0,0.0,0.0,0.0,0.0,0.0,0.0,0.0,0.0,0.0,0.0,0.0,0.0,0.0,0.0,0.0,0.0,0.0,0.0,0.0,0.0,0.0,0.0,0.0,0.0,0.0,0.0,0.0,0.0,0.0,0.0,0.0,0.0,0.0,0.0,0.0,0.0,0.0,0.0,0.0,0.0,0.0,0.0,0.0,0.0,0.0,0.0,0.0,0.0,0.0,0.0,0.0,0.0,0.0,0.0,0.0,0.0,0.0,0.0,0.0,0.0,0.0,0.0,0.0,0.0,0.0,0.0,0.0,0.0,0.0,0.0,0.0,0.0,0.0,0.0,0.0,0.0,0.0,0.0,0.0,0.0,0.0,0.0,0.0,0.0,0.0,0.0,0.0,0.0,0.0,0.0,0.0,0.0,0.0,0.0,0.0,0.0,0.0,0.0,0.0,0.0,0.0,0.0,0.0,0.0,0.0,0.0,0.0,0.0,0.0,0.0,0.0,0.0,0.0,0.0,0.0,0.0,0.0,0.0,0.0,0.0,0.0,0.0,0.0,0.0,0.0,0.0,0.0,0.0,0.0,0.0,0.0,0.0,0.0,0.0,0.0,0.0,0.0,0.0,0.0,0.0,0.0,0.0,0.0,0.0,0.0,0.0,0.0,0.0,0.0,0.0,0.0,0.0,0.0,0.0,0.0,0.0,0.0,0.0,0.0,0.0,0.0,0.0,0.0,0.0,0.0,0.0,0.0,0.0,0.0,0.0,0.0,0.0,0.0,0.0,0.0,0.0,0.0,0.0,0.0,0.0,0.0,0.0,0.0,0.0,0.0,0.0,0.0,0.0,0.0,0.0,0.0,0.0,0.0,0.0,0.0,0.0,0.0,0.0,0.0,0.0,0.0,0.0,0.0,0.0,0.0,0.0,0.0,0.0,0.0,0.0,0.0,0.0,0.0,0.0,0.0,0.0,0.0,0.0,0.0,0.0,0.0,0.0,0.0,0.0,0.0,0.0,0.0,0.0,0.0,0.0,0.0,0.0,0.0,0.0,0.0,0.0,0.0,0.0,0.0,0.0,0.0,0.0,0.0,0.0,0.0,0.0,0.0,0.0,0.0,0.0,0.0,0.0,0.0,0.0,0.0,0.0,0.0,0.0,0.0,0.0,0.0,0.0,0.0,0.0,0.0,0.0,0.0,0.0,0.0,0.0,0.0,0.0,0.0,0.0,0.0,0.0,0.0,0.0,0.0,0.0,0.0,0.0,0.0,0.0,0.0,0.0,0.0,0.0,0.0,0.0,0.0,0.0,0.0,0.0,0.0,0.0,0.0,0.0,0.0,0.0,0.0,0.0,0.0,0.0,0.0,0.0,0.0,0.0,0.0,0.0,0.0,0.0,0.0,0.0,0.0,0.0,0.0,0.0,0.0,0.0,0.0,0.0,0.0,0.0,0.0,0.0,0.0,0.0,0.0,0.0,0.0,0.0,0.0,0.0,0.0,0.0,0.0,0.0,0.0,0.0,0.0,0.0,0.0,0.0,0.0,0.0,0.0,0.0,0.0,0.0,0.0,0.0,0.0,0.0,0.0,0.0,0.0,0.0,0.0,0.0,0.0,0.0,0.0,0.0,0.0,0.0,0.0,0.0,0.0,0.0,0.0,0.0,0.0,0.0,0.0,0.0,0.0,0.0,0.0,0.0,0.0,0.0,0.0,0.0,0.0,0.0,0.0,0.0,0.0,0.0,0.0,0.0,0.0,0.0,0.0,0.0,0.0,0.0,0.0,0.0,0.0,0.0,0.0,0.0,0.0,0.0,0.0,0.0,0.0,0.0,0.0,0.0,0.0,0.0,0.0,0.0,0.0,0.0,0.0,0.0,0.0,0.0,0.0,0.0,0.0,0.0,0.0,0.0,0.0,0.0,0.0,0.0,0.0,0.0,0.0,0.0,0.0,0.0,0.0,0.0,0.0,0.0,0.0,0.0,0.0,0.0,0.0,0.0,0.0,0.0,0.0,0.0,0.0,0.0,0.0,0.0,0.0,0.0,0.0,0.0,0.0,0.0,0.0,0.0,0.0,0.0,0.0,0.0,0.0,0.0,0.0,0.0,0.0,0.0,0.0,0.0,0.0,0.0,0.0,0.0,0.0,0.0,0.0,0.0,0.0,0.0,0.0,0.0,0.0,0.0,0.0,0.0,0.0,0.0,0.0,0.0,0.0,0.0,0.0,0.0,0.0,0.0,0.0,0.0,0.0,0.0,0.0,0.0,0.0,0.0,0.0,0.0,0.0,0.0,0.0,0.0,0.0,0.0,0.0,0.0,0.0,0.0,0.0,0.0,0.0,0.0,0.0,0.0,0.0,0.0,0.0,0.0,0.0,0.0,0.0,0.0,0.0,0.0,0.0,0.0,0.0,0.0,0.0,0.0,0.0,0.0,0.0,0.0,0.0,0.0,0.0,0.0,0.0,0.0,0.0,0.0,0.0,0.0,0.0,0.0,0.0,0.0,0.0,0.0,0.0,0.0,0.0,0.0,0.0,0.0,0.0,0.0,0.0,0.0,0.0,0.0,0.0,0.0,0.0,0.0,0.0,0.0,0.0,0.0,0.0,0.0,0.0,0.0,0.0,0.0,0.0,0.0,0.0,0.0,0.0,0.0,0.0,0.0,0.0,0.0,0.0,0.0,0.0,0.0,0.0,0.0,0.0,0.0,0.0,0.0,0.0,0.0,0.0,0.0,0.0,0.0,0.0,0.0,0.0,0.0,0.0,0.0,0.0,0.0,0.0,0.0,0.0,0.0,0.0,0.0,0.0,0.0,0.0,0.0,0.0,0.0,0.0,0.0,0.0,0.0,0.0,0.0,0.0,0.0,0.0,0.0,0.0,0.0,0.0,0.0,0.0,0.0,0.0,0.0,0.0,0.0,0.0,0.0,0.0,0.0,0.0,0.0,0.0,0.0,0.0,0.0,0.0,0.0,0.0,0.0,0.0,0.0,0.0,0.0,0.0,0.0,0.0,0.0,0.0,0.0,0.0,0.0,0.0,0.0,0.0,0.0,0.0,0.0,0.0,0.0,0.0,-2.107,-2.1056,0.0,0.0,0.0,0.0,0.0,0.0,0.0,0.0,0.0,0.0,0.0,0.0,0.0,0.0,0.0,0.0,0.0,0.0,0.0,0.0,0.0,0.0,0.0,0.0,0.0,0.0,0.0,0.0,0.0,0.0,0.0,0.0,0.0,0.0,0.0,0.0,0.0,0.0,-1.4307,-1.4706,-1.4897,-1.4365,-1.4401,-1.4944,0.0,0.0,0.0,0.0,0.0,0.0,0.0,0.0,0.0,0.0,0.0,0.0,0.0,0.0,0.0,0.0,0.0,0.0,0.0,0.0,0.0,0.0,0.0,0.0,0.0,0.0,0.0,0.0,0.0,0.0,0.0,0.0,0.0,0.0,0.0,0.0,0.0,0.0,0.0,0.0,0.0,0.0,0.0,0.0,0.0,0.0,0.0,0.0,0.0,0.0,0.0,0.0,0.0,0.0,0.0,0.0,0.0,0.0,0.0,0.0,0.0,0.0,0.0,0.0,0.0,0.0,0.0,0.0,0.0,0.0,-2.1627,-2.1136,0.0,0.0,0.0,0.0,0.0,0.0,0.0,0.0,0.0,0.0,0.0,0.0,0.0,0.0,0.0,0.0,0.0,0.0,0.0,0.0,0.0,0.0,0.0,0.0,-1.075,-1.1388,-1.0555,-1.0068,0.0,0.0,0.0,0.0,0.0,0.0,0.0,0.0,0.0,-1.528,-1.5027,-1.54,-1.6333,-1.5388,-1.5201,-1.5671,-1.6183,0.0,0.0,0.0,0.0,0.0,0.0,0.0,0.0,0.0,0.0,0.0,0.0,0.0,0.0,0.0,0.0,0.0,0.0,0.0,0.0,0.0,0.0,0.0,0.0,0.0,0.0,0.0,0.0,0.0,0.0,0.0,0.0,0.0,0.0,0.0,0.0,0.0,0.0,0.0,0.0,0.0,0.0,0.0,0.0,0.0,0.0,0.0,0.0,0.0,0.0,0.0,0.0,0.0,0.0,0.0,0.0,0.0,0.0,0.0,0.0,0.0,0.0,0.0,-2.3934,-2.4305,-2.4331,-2.5005,-2.4829,-2.3927,-2.2274,-2.1375,-2.1045,-2.0933,0.0,0.0,0.0,0.0,0.0,0.0,0.0,0.0,0.0,0.0,0.0,0.0,0.0,0.0,0.0,0.0,0.0,0.0,0.0,0.0,0.0,-1.1472,-1.197,-1.2694,-1.1827,-1.1497,0.0,0.0,0.0,0.0,0.0,0.0,0.0,-1.6062,-1.6671,-1.6394,-1.567,-1.5753,-1.6548,-1.6118,-1.5751,-1.5438,-1.5296,-1.5357,-1.5575,0.0,0.0,0.0,0.0,0.0,0.0,0.0,0.0,0.0,0.0,0.0,0.0,0.0,0.0,0.0,0.0,0.0,0.0,0.0,0.0,0.0,0.0,0.0,0.0,0.0,0.0,0.0,0.0,0.0,0.0,0.0,0.0,0.0,0.0,0.0,0.0,0.0,0.0,0.0,0.0,0.0,-1.9334,-2.0127,0.0,0.0,0.0,0.0,0.0,0.0,0.0,0.0,0.0,0.0,0.0,0.0,0.0,-2.3893,-2.284,-2.4393,-2.4793,-2.4041,-2.4787,-2.5139,-2.5159,-2.5245,-2.5136,-2.4791,-2.3849,0.0,-2.2066,-2.1476,0.0,0.0,0.0,0.0,0.0,0.0,0.0,0.0,0.0,0.0,0.0,0.0,0.0,0.0,0.0,0.0,0.0,0.0,0.0,0.0,0.0,-1.2458,-1.2807,-1.3395,-1.256,-1.2072,-1.2228,-1.2186,0.0,0.0,0.0,-1.5746,-1.6314,-1.7177,-1.7525,-1.7326,-1.7474,-1.7214,-1.6586,-1.6331,-1.5692,-1.4754,-1.4337,-1.4629,-1.5401,-1.5019,0.0,0.0,0.0,0.0,0.0,0.0,0.0,0.0,0.0,0.0,0.0,0.0,0.0,0.0,0.0,0.0,0.0,0.0,0.0,0.0,0.0,0.0,0.0,0.0,0.0,0.0,0.0,0.0,0.0,0.0,0.0,0.0,0.0,0.0,0.0,0.0,0.0,0.0,0.0,-1.9867,-2.064,-2.0222,-2.1171,-2.1826,0.0,0.0,0.0,0.0,0.0,0.0,0.0,0.0,0.0,-2.3068,-2.4373,-2.4636,-2.3742,-2.4875,-2.5244,-2.4883,-2.5157,-2.5293,-2.5293,-2.5293,-2.5244,-2.5143,-2.4799,-2.4135,-2.3277,-2.2745,-2.2987,-2.37,0.0,0.0,0.0,0.0,-2.4097,-2.3564,0.0,0.0,0.0,0.0,0.0,0.0,0.0,0.0,0.0,0.0,0.0,0.0,-1.3147,-1.3368,-1.3604,-1.4065,-1.3118,-1.2484,-1.2516,-1.2584,0.0,0.0,0.0,-1.6908,-1.7716,-1.7996,-1.8157,-1.8213,-1.8443,-1.7976,-1.6852,-1.6447,-1.5632,-1.4557,-1.4326,-1.4425,-1.4754,-1.4357,-1.4022,-1.3748,0.0,0.0,0.0,0.0,0.0,0.0,0.0,0.0,0.0,0.0,0.0,0.0,0.0,0.0,0.0,0.0,0.0,0.0,0.0,0.0,0.0,0.0,0.0,0.0,0.0,0.0,0.0,0.0,0.0,0.0,0.0,0.0,0.0,0.0,0.0,0.0,0.0,-2.0724,-2.1518,-2.0458,-2.1914,-2.289,0.0,0.0,0.0,0.0,0.0,0.0,-2.3528,-2.4298,-2.4427,-2.3756,-2.4954,-2.5283,-2.4609,-2.5135,-2.5396,-2.5398,-2.533,-2.5293,-2.5293,-2.5293,-2.5293,-2.5293,-2.5293,-2.4966,-2.437,-2.3864,-2.3736,-2.3944,-2.4591,-2.4935,-2.5047,-2.4872,-2.4258,-2.348,0.0,0.0,0.0,0.0,0.0,0.0,0.0,0.0,0.0,0.0,0.0,-1.3045,-1.3442,-1.3992,-1.4504,-1.4904,-1.3565,-1.2942,-1.3584,-1.2702,-1.2907,-1.4662,-1.6111,-1.751,-1.8877,-1.8985,-1.9044,-1.9043,-1.7554,-1.7073,-1.7531,-1.6554,-1.5798,-1.5279,-1.5893,-1.5241,-1.3645,-1.3038,-1.2652,-1.2412,-1.2639,0.0,0.0,0.0,0.0,0.0,0.0,0.0,0.0,0.0,0.0,0.0,0.0,0.0,0.0,0.0,0.0,0.0,0.0,0.0,0.0,0.0,0.0,0.0,0.0,0.0,0.0,0.0,0.0,0.0,0.0,0.0,0.0,0.0,0.0,0.0,0.0,0.0,0.0,-2.1226,-2.2285,0.0,0.0,0.0,0.0,-2.4247,-2.4315,-2.4676,-2.5507,-2.5605,-2.5594,-2.5478,-2.5564,-2.5545,-2.544,-2.5412,-2.5403,-2.5403,-2.533,-2.5293,-2.5293,-2.5293,-2.5293,-2.5293,-2.5293,-2.5274,-2.5178,-2.4389,-2.4072,-2.4091,-2.4129,-2.4158,-2.4071,-2.3234,-2.2377,-2.1532,0.0,0.0,0.0,0.0,0.0,0.0,0.0,0.0,-1.0719,-1.1833,-1.2952,-1.3873,-1.4466,-1.4452,-1.4362,-1.4302,-1.321,-1.2481,-1.2411,-1.2665,-1.3568,-1.5245,-1.6788,-1.8327,-1.9868,-1.9885,-1.9885,-1.9941,-1.9279,-1.875,-1.8364,-1.77,-1.6886,-1.5998,-1.5854,-1.5244,-1.4275,-1.3837,-1.3578,-1.3439,-1.3375,-1.3265,0.0,0.0,0.0,0.0,0.0,0.0,0.0,0.0,0.0,0.0,0.0,0.0,0.0,0.0,0.0,0.0,0.0,0.0,0.0,0.0,0.0,0.0,0.0,0.0,0.0,0.0,0.0,0.0,0.0,0.0,0.0,0.0,0.0,0.0,0.0,0.0,0.0,-2.2888,-2.3425,0.0,-2.4121,-2.453,-2.5135,-2.6013,-2.6072,-2.621,-2.6523,-2.5996,-2.5672,-2.5603,-2.5558,-2.5503,-2.5441,-2.5369,-2.5339,-2.5339,-2.5313,-2.5293,-2.5293,-2.5293,-2.5293,-2.5293,-2.5293,-2.5293,-2.5274,-2.4995,-2.487,-2.4861,-2.4731,-2.4762,-2.4764,-2.3801,-2.2968,-2.2216,0.0,0.0,0.0,0.0,0.0,0.0,0.0,0.0,-1.0847,-1.2101,-1.3432,-1.4457,-1.4977,-1.469,-1.424,-1.3676,-1.2598,-1.1855,-1.1584,-1.2403,-1.3708,-1.5511,-1.7659,-1.9314,-2.0377,-2.0355,-2.0342,-2.0371,-1.9944,-1.9533,-1.9113,-1.8383,-1.7582,-1.6758,-1.652,-1.6038,-1.5376,-1.5405,-1.4916,-1.4148,-1.4079,-1.4204,-1.4477,0.0,0.0,0.0,0.0,0.0,0.0,0.0,0.0,0.0,0.0,0.0,0.0,0.0,0.0,0.0,0.0,0.0,0.0,0.0,0.0,0.0,0.0,0.0,0.0,0.0,0.0,0.0,0.0,0.0,0.0,0.0,0.0,0.0,0.0,-2.3557,-2.4188,-2.4653,-2.4927,-2.5213,-2.5537,-2.6182,-2.6689,-2.6982,-2.7266,-2.7441,-2.7441,-2.6611,-2.6099,-2.6016,-2.5697,-2.5478,-2.5369,-2.5338,-2.5322,-2.5293,-2.5293,-2.5293,-2.5293,-2.5293,-2.5293,-2.5293,-2.5293,-2.5293,-2.5293,-2.5293,-2.5293,-2.5293,-2.5152,-2.502,-2.4812,-2.4168,-2.3448,-2.2716,0.0,0.0,0.0,0.0,0.0,0.0,0.0,-0.9192,-1.0785,-1.1909,-1.3661,-1.4829,-1.4891,-1.4702,-1.4161,-1.3147,-1.1836,-1.1139,-1.1277,-1.1891,-1.3286,-1.5542,-1.8698,-2.04,-2.04,-2.04,-2.0359,-2.0288,-1.9328,-1.9171,-1.9748,-1.8518,-1.779,-1.7542,-1.7997,-1.7656,-1.6767,-1.7534,-1.6532,-1.4457,-1.4668,-1.5135,-1.5597,0.0,0.0,0.0,0.0,0.0,0.0,0.0,0.0,0.0,0.0,0.0,0.0,0.0,0.0,0.0,0.0,0.0,0.0,0.0,0.0,0.0,0.0,0.0,0.0,0.0,0.0,0.0,0.0,0.0,0.0,0.0,0.0,0.0,-2.4851,-2.4952,-2.5421,-2.6428,-2.6666,-2.6493,-2.58,-2.7285,-2.7949,-2.7099,-2.7842,-2.834,-2.834,-2.749,-2.6954,-2.6851,-2.6061,-2.5537,-2.5351,-2.5411,-2.5392,-2.5293,-2.5293,-2.5293,-2.5293,-2.5293,-2.5293,-2.5293,-2.5293,-2.5293,-2.5293,-2.5293,-2.5293,-2.5293,-2.5283,-2.4812,-2.4129,-2.4169,-2.3595,-2.2793,0.0,0.0,0.0,0.0,0.0,0.0,0.0,-0.8436,-1.1006,-1.2914,-1.4241,-1.4993,-1.4912,-1.4242,-1.3405,-1.2402,-1.1081,-1.0511,-1.1045,-1.1401,-1.3148,-1.668,-1.9078,-2.0331,-2.0331,-2.0333,-2.0268,-2.0154,-2.0069,-1.9808,-1.9364,-1.9066,-1.8586,-1.8023,-1.8186,-1.7986,-1.7574,-1.8451,-1.8304,-1.7426,-1.6717,-1.6553,-1.6665,0.0,0.0,0.0,0.0,0.0,0.0,0.0,0.0,0.0,0.0,0.0,0.0,0.0,0.0,0.0,0.0,0.0,0.0,0.0,0.0,0.0,0.0,0.0,0.0,0.0,0.0,0.0,0.0,0.0,0.0,0.0,-2.5113,-2.5891,-2.5891,-2.6037,-2.6525,-2.747,-2.6559,-2.605,-2.6519,-2.7615,-2.8182,-2.7885,-2.8676,-2.9174,-2.9174,-2.7737,-2.7196,-2.7797,-2.6936,-2.6425,-2.6322,-2.6293,-2.5938,-2.5293,-2.5293,-2.5293,-2.5293,-2.5293,-2.5293,-2.5293,-2.5293,-2.5293,-2.5293,-2.5293,-2.5293,-2.5273,-2.5034,-2.4857,-2.4666,-2.3945,-2.331,-2.2793,0.0,0.0,0.0,0.0,0.0,0.0,0.0,-0.5432,-0.808,-1.0178,-1.2291,-1.3743,-1.4139,-1.3327,-1.226,-1.1067,-1.0017,-0.9708,-1.0407,-1.235,-1.482,-1.7834,-1.9493,-2.0334,-2.0305,-2.024,-2.0163,-2.0054,-2.0306,-2.0069,-1.9391,-1.9183,-1.8898,-1.8567,-1.8242,-1.8195,-1.841,-1.8957,-1.9177,-1.9041,-1.8438,-1.8177,-1.8135,-1.7766,-1.8339,-1.9225,-1.8467,-1.8874,-1.9593,-1.8592,0.0,0.0,0.0,0.0,0.0,0.0,0.0,0.0,0.0,0.0,0.0,0.0,0.0,0.0,0.0,0.0,0.0,0.0,0.0,0.0,0.0,0.0,0.0,0.0,-2.6622,-2.7474,-2.747,-2.7278,-2.7614,-2.8893,-2.7869,-2.7302,-2.793,-2.8787,-2.915,-2.8774,-2.9532,-2.9995,-2.9963,-2.8711,-2.8207,-2.869,-2.7486,-2.6802,-2.6704,-2.6298,-2.5832,-2.5293,-2.5293,-2.5485,-2.5822,-2.5377,-2.5426,-2.5822,-2.5367,-2.5214,-2.5293,-2.5293,-2.5293,-2.5283,0.0,0.0,0.0,0.0,-2.4098,-2.389,0.0,0.0,0.0,0.0,0.0,0.0,0.0,-0.0182,-0.2435,-0.4807,-0.8172,-1.09,-1.2358,-1.1507,-1.0453,-0.9576,-0.8956,-0.9069,-1.01,-1.4219,-1.7306,-1.8865,-1.9852,-2.0332,-2.0263,-2.0108,-1.9972,-1.9914,-2.0202,-2.0119,-1.9646,-1.9141,-1.8958,-1.9,-1.8223,-1.8327,-1.9094,-1.9137,-1.9322,-1.9603,-1.9522,-1.9639,-1.969,-1.8868,-1.9155,-1.993,-1.9217,-1.924,-1.9401,-1.8267,0.0,0.0,0.0,0.0,0.0,0.0,0.0,0.0,0.0,0.0,0.0,0.0,0.0,0.0,0.0,0.0,0.0,0.0,0.0,0.0,0.0,0.0,0.0,0.0,-2.8227,-2.9289,-2.9385,-2.8775,-2.8867,-3.0335,-2.9663,-2.9182,-2.9454,-3.0138,-3.0262,-2.9523,-3.0222,-3.0651,-3.0594,-2.9878,0.0,0.0,0.0,-2.6976,-2.6849,-2.5969,-2.5461,-2.5293,-2.5379,-2.5763,-2.6388,-2.5633,-2.5702,-2.6368,-2.5539,-2.5227,-2.5293,-2.5293,-2.5293,-2.5303,-2.5263,-2.5253,-2.5264,-2.5253,-2.5312,-2.5383,0.0,0.0,0.0,0.0,0.0,0.0,0.0,0.8802,0.6546,0.1569,-0.1533,-0.4571,-0.7985,-0.6542,-0.6483,-0.9332,-0.9081,-0.9995,-1.2901,-1.5794,-1.7896,-1.9009,-1.9768,-2.0125,-2.0067,-1.9714,-1.9475,-1.9355,-2.0209,-2.0197,-1.939,-1.9468,-1.9222,-1.8685,-1.8412,-1.8377,-1.8559,-1.8833,-1.9008,-1.9013,-1.8574,-1.9118,-2.0128,-1.9629,-2.0009,-2.0615,-1.9246,-1.9607,-2.04,-1.8515,-1.8252,-1.8435,-1.6902,-1.6102,0.0,0.0,0.0,0.0,0.0,0.0,0.0,0.0,0.0,0.0,0.0,0.0,0.0,0.0,0.0,0.0,0.0,0.0,0.0,-2.9052,-2.9902,-3.0462,-3.1107,-3.1064,-3.0852,-3.0548,-2.9213,-2.8573,-2.9275,-2.9577,-2.9598,-2.9283,-3.0052,-3.0527,-3.0523,-2.9716,-2.9598,-3.0343,-2.8693,-2.7768,-2.7755,-2.6832,-2.6006,-2.5312,-2.5798,0.0,-2.5342,-2.6486,-2.6394,-2.5354,-2.5999,-2.5907,-2.5293,-2.5293,-2.5293,-2.5264,-2.4997,-2.4965,-2.5044,-2.4936,-2.5082,-2.5322,0.0,0.0,0.0,0.0,0.0,0.0,0.0,0.9833,1.1202,0.7838,0.4015,0.0373,-0.2841,-0.1729,-0.1488,-0.3326,-0.5483,-0.8738,-1.3445,-1.5953,-1.7608,-1.8412,-1.9481,-2.0029,-2.0003,-1.9538,-1.9347,-1.9447,-1.9726,-1.958,-1.9039,-1.8843,-1.8612,-1.833,-1.7934,-1.7752,-1.7803,-1.799,-1.7865,-1.7538,-1.695,-1.7156,-1.7866,-1.8489,-1.9031,-1.9303,-1.8455,-1.8701,-1.9179,-1.7848,-1.7388,-1.7152,-1.6075,-1.5497,-1.5321,0.0,0.0,0.0,0.0,0.0,0.0,0.0,0.0,0.0,0.0,0.0,0.0,0.0,0.0,-2.5983,0.0,0.0,-2.8749,-3.0726,-3.1499,-3.1959,-3.2264,-3.2326,-3.1879,-3.0606,-2.9771,-2.9458,-2.9861,-2.999,-3.0182,-3.0477,-3.0496,-3.0678,-3.1079,-3.0309,-3.007,-3.054,-2.9274,-2.8556,-2.8454,-2.7653,-2.6709,-2.566,-2.605,-2.6205,-2.6114,-2.6452,-2.6716,-2.6877,-2.6463,-2.6171,-2.5908,-2.5376,-2.5214,-2.5273,-2.4932,-2.4939,-2.512,-2.4968,-2.5072,-2.5283,0.0,0.0,0.0,0.0,0.0,0.0,0.0,0.7641,1.2111,1.142,0.8379,0.5187,0.2353,0.2957,0.2913,0.1312,-0.2328,-0.721,-1.3498,-1.5642,-1.7084,-1.7987,-1.9066,-1.9725,-1.9876,-1.9243,-1.8994,-1.9188,-1.8935,-1.8669,-1.8351,-1.7891,-1.7678,-1.7685,-1.7074,-1.6744,-1.6671,-1.6671,-1.6228,-1.5488,-1.4823,-1.4663,-1.4892,-1.609,-1.6707,-1.6877,-1.6771,-1.6725,-1.6606,-1.6153,-1.5499,-1.4813,-1.4557,-1.4336,-1.4367,-1.5332,-1.7126,0.0,0.0,0.0,0.0,0.0,0.0,0.0,0.0,0.0,-2.7186,-2.7339,-2.7813,-2.8474,-2.9382,-3.0047,-3.084,-3.1973,-3.2742,-3.3182,-3.3169,-3.3058,-3.2471,-3.1093,-3.0819,-3.0749,-3.0745,-3.08,-3.1033,-3.1488,-3.1181,-3.1184,-3.1673,-3.1086,-3.0733,-3.0733,-2.9689,-2.9032,-2.8883,-2.8138,-2.7252,-2.624,-2.6356,-2.6673,-2.7114,-2.6457,-2.6981,-2.8345,-2.6752,-2.6262,-2.6514,-2.5407,-2.5256,-2.5672,-2.5168,-2.5251,-2.5611,-2.5168,-2.5131,-2.5283,0.0,0.0,0.0,0.0,0.0,0.0,0.0,0.0,0.7724,0.8149,1.0765,1.1028,0.6932,0.7436,0.4852,-0.3181,-0.3949,-0.7125,-1.4542,-1.553,-1.6739,-1.8778,-1.8568,-1.8737,-1.9447,-1.842,-1.7708,-1.7382,-1.794,-1.7698,-1.6766,-1.7033,-1.686,-1.6309,-1.5856,-1.5354,-1.4811,-1.4811,-1.4052,-1.2807,-1.2239,-1.2315,-1.2764,-1.2206,-1.2715,-1.369,-1.3679,-1.3195,-1.2621,-1.281,-1.2578,-1.211,-1.189,-1.2215,-1.2877,-1.3997,-1.5722,-1.7859,-2.0607,-2.3749,-2.6708,-2.8581,-2.8585,-2.8642,0.0,0.0,-2.8237,-2.8895,-2.8589,-2.8427,-2.9192,-2.9497,-3.0383,-3.2684,-3.3136,-3.3427,-3.4052,-3.3433,-3.2877,-3.2803,-3.2117,-3.1651,-3.1649,-3.1658,-3.1359,-3.0614,-3.1852,-3.236,-3.1738,-3.1609,-3.1569,-3.1569,-2.98,-2.8838,-2.8811,-2.7797,-2.7214,-2.7062,-2.6902,-2.6869,-2.6953,-2.7569,-2.7559,-2.7073,-2.6507,-2.6383,-2.6513,-2.5314,-2.5773,-2.7136,-2.604,-2.6169,-2.6836,-2.5492,-2.5131,-2.5303,0.0,0.0,0.0,0.0,0.0,0.0,0.0,0.0,0.0,0.1977,0.6775,0.9304,0.6882,0.8975,0.8591,0.3754,-0.0634,-0.573,-1.1835,-1.3713,-1.5559,-1.7744,-1.8073,-1.8187,-1.8184,-1.7331,-1.6534,-1.5805,-1.5896,-1.5594,-1.4913,-1.5048,-1.4519,-1.3452,-1.3289,-1.3022,-1.2633,-1.2633,-1.2204,-1.1249,-0.8487,-0.7484,-0.762,-0.6514,-0.617,-0.6425,-0.7714,-0.8967,0.0,-1.0154,-1.0307,-1.0385,-0.9946,-1.0376,-1.1271,-1.2564,-1.4989,-1.8235,-2.2595,-2.582,-2.8092,-2.8569,-2.915,-2.9651,-2.9813,-2.9394,-2.904,-2.9347,-2.9514,-2.9693,-3.0003,-3.0365,-3.0952,0.0,-3.2939,-3.3662,-3.3973,-3.3808,-3.3692,-3.379,-3.2856,-3.2299,-3.2533,-3.1964,-3.1855,-3.2556,-3.2656,-3.2808,-3.314,-3.2076,-3.1474,-3.1479,-3.019,-2.9389,-2.9144,-2.883,-2.8285,-2.7546,-2.7577,-2.7528,-2.7451,-2.7756,-2.7801,-2.7596,-2.7549,-2.7295,-2.6906,-2.6286,-2.655,-2.7257,-2.6651,-2.6735,-2.7135,-2.6507,-2.611,-2.5872,0.0,0.0,0.0,0.0,0.0,0.0,0.0,0.0,0.0,0.0,0.3205,0.6988,0.6397,0.8763,0.9954,0.8868,0.3857,-0.1639,-0.7301,-1.0169,-1.2574,-1.4668,-1.6005,-1.6765,-1.6948,-1.5596,-1.4544,-1.3807,-1.3763,-1.3405,-1.2796,-1.2711,-1.2203,-1.1316,-1.0512,-0.9695,-0.8967,-0.8841,-0.8291,-0.7267,-0.4075,-0.2625,-0.2246,-0.1402,-0.0307,0.0458,-0.2489,-0.4635,-0.6037,-0.596,-0.6392,-0.696,-0.6929,-0.791,-0.9528,-1.166,-1.546,-1.9937,-2.4303,-2.7141,-2.88,-2.8567,-2.9641,-3.0443,-2.9244,-2.9412,-2.9796,-2.9708,-3.0118,-3.0459,-3.0373,-3.0605,-3.0855,-3.0945,-3.1957,-3.2795,-3.3005,-3.3148,-3.3402,-3.3827,-3.2686,-3.2287,-3.3382,-3.2617,-3.2563,-3.375,-3.3442,-3.3503,-3.4164,-3.2577,-3.1743,-3.1977,-3.0639,-2.9869,-2.9738,-2.9577,-2.9038,-2.8126,-2.8047,-2.8066,-2.8126,-2.8126,-2.8132,-2.8097,-2.8258,-2.8026,-2.7497,-2.7065,-2.727,-2.7751,-2.7316,-2.7363,-2.7698,-2.7786,-2.7314,-2.6603,0.0,0.0,0.0,0.0,0.0,0.0,0.0,0.0,0.0,0.0,0.0,0.0,0.0,0.6799,0.7146,0.7874,0.8733,0.6159,-0.1093,-0.4493,-0.7106,-0.9062,-1.154,-1.3852,-1.6003,-1.2954,-1.1256,-1.102,-1.1737,-1.1485,-1.0306,-1.0088,-1.0281,-1.0717,-0.785,-0.5238,-0.3009,-0.2577,-0.1161,0.0748,0.0909,0.1613,0.2651,0.2302,0.3868,0.5643,0.0878,-0.0334,0.0372,0.0612,0.0273,-0.0564,-0.204,-0.447,0.0,-1.1588,-1.7498,-2.3135,-2.5,-2.6827,-2.844,-2.9325,-3.0234,-3.0848,-3.0675,-3.0647,-3.0565,-3.0249,-3.0202,-3.0104,-2.9794,-2.9538,-2.9459,-2.9795,-2.994,-3.0266,-3.098,-3.0928,-3.1309,-3.2683,-3.1319,-3.1368,0.0,-3.4013,-3.3515,-3.2979,-3.424,-3.4783,-3.4231,-3.3096,-3.2848,-3.3703,-3.1101,-2.9974,-3.0546,-2.9534,-2.8998,-2.8938,-2.8172,-2.82,-2.8948,-2.8948,-2.8655,-2.8097,-2.8107,-2.8203,-2.8293,-2.7298,-2.7856,-2.9234,-2.8184,-2.8259,-2.898,-2.9235,-2.8551,-2.7372,0.0,0.0,0.0,0.0,0.0,0.0,0.0,0.0,0.0,0.0,0.0,0.0,0.0,0.0,0.0,0.0,0.6409,0.5687,0.2242,0.0527,-0.103,-0.2534,-0.4144,-0.5077,-0.5251,-0.4753,-0.3906,-0.2752,-0.3605,-0.3378,-0.2178,-0.2113,-0.1432,-0.0299,0.0252,0.1586,0.3395,0.3198,0.5132,0.8336,0.7455,0.7832,0.8801,0.7092,0.7072,0.7702,0.0,0.4468,0.3726,0.3806,0.3163,0.1533,-0.2643,-0.5783,-0.9099,-1.5264,-1.9668,-2.297,-2.4751,-2.6233,-2.7478,-2.833,-2.909,-2.9779,-3.0312,-3.0256,-3.0008,-2.9675,-2.9144,-2.8633,-2.8294,-2.7622,-2.7059,-2.6854,-2.7321,-2.7794,-2.8049,-2.8791,-2.9601,-3.0375,-3.0465,0.0,0.0,0.0,0.0,-3.4557,-3.4754,-3.4889,-3.5048,-3.3639,-3.304,-3.3524,-3.143,-3.0316,-3.0337,-2.9458,-2.8994,-2.8994,-2.8741,-2.875,-2.9017,-2.9191,-2.9055,-2.871,-2.8892,-2.8894,-2.8774,-2.8427,-2.8636,-2.9106,-2.8727,-2.8769,-2.903,-2.931,-2.9138,-2.8609,0.0,0.0,0.0,0.0,0.0,0.0,0.0,0.0,0.0,0.0,0.0,0.0,0.0,0.0,0.0,0.0,0.0,0.7338,0.6772,0.5533,0.4553,0.3952,0.1958,0.1264,0.2105,0.1468,0.2021,0.3819,0.3044,0.3429,0.4869,0.487,0.6605,0.9577,0.7194,0.765,1.0201,0.8898,0.9973,1.2471,1.1868,1.185,1.2144,1.0655,1.0052,0.0,0.8671,0.5631,0.2133,0.2104,0.1353,-0.0368,-0.4711,-0.8816,-1.3119,-1.8419,-2.1542,-2.3598,-2.5168,-2.6133,-2.6911,-2.7845,-2.8249,-2.8547,-2.9011,-2.8813,-2.8399,-2.798,-2.7552,-2.7203,-2.7021,-2.6454,-2.5664,-2.4689,-2.5138,-2.5641,-2.5591,-2.6664,-2.7877,-2.9024,-2.9989,-3.1005,0.0,0.0,0.0,-3.5103,-3.4974,-3.4951,-3.5203,-3.3912,-3.3184,-3.3254,-3.154,-3.0472,-3.02,-2.9411,-2.8994,-2.8994,-2.8994,-2.8994,-2.9017,-2.9267,-2.9246,-2.9007,-2.9289,-2.9255,-2.8994,-2.8994,-2.8994,-2.8994,-2.8994,-2.8994,-2.9007,-2.9191,-2.931,-2.9238,0.0,0.0,0.0,0.0,0.0,0.0,0.0,0.0,0.0,0.0,0.0,0.0,0.0,0.0,0.0,0.0,0.0,0.0,1.2095,1.036,0.9561,1.0182,0.684,0.5322,0.6068,0.5702,0.6504,0.8484,0.8012,0.869,1.0442,1.0508,1.32,1.7787,1.2542,1.2744,1.6832,1.4366,1.3423,1.3645,1.4175,1.3801,1.2899,1.3021,1.2754,1.2084,1.0115,0.3876,-0.3475,-0.3761,-0.4746,-0.6208,-0.8165,-1.3361,-1.9075,-2.0978,-2.3088,-2.504,-2.6123,-2.6403,-2.6638,-2.7692,-2.754,-2.7072,-2.6776,-2.6329,-2.5841,-2.5285,-2.5467,-2.579,0.0,0.0,-2.5234,-2.3365,-2.3507,-2.3819,-2.3706,-2.4663,-2.6231,0.0,0.0,0.0,0.0,0.0,0.0,-3.4571,0.0,-3.4961,-3.4736,-3.3901,-3.3285,-3.2998,-3.1468,-3.0496,-3.02,-2.9411,-2.8994,-2.8994,-2.8994,-2.8994,-2.9017,-2.9267,-2.9246,-2.9007,-2.9289,-2.9255,-2.8994,-2.8994,-2.8994,-2.8994,-2.9017,-2.9007,-2.9007,-2.9017,-2.9191,-2.9311,0.0,0.0,0.0,0.0,0.0,0.0,0.0,0.0,0.0,0.0,0.0,0.0,0.0,0.0,0.0,0.0,0.0,0.0,1.1694,1.2697,1.3564,1.4269,1.3291,1.2763,1.2831,1.1718,1.1523,1.2387,1.1843,1.2219,1.3478,1.3789,1.489,1.655,1.4955,1.5685,1.803,1.5985,1.615,1.7665,1.6299,1.6077,1.6293,1.4843,1.4749,1.5421,1.5242,0.8017,-0.2028,0.0,0.0,0.0,0.0,-1.8276,-2.1607,-2.2943,-2.4094,-2.4975,-2.5113,-2.5012,-2.4857,-2.4787,-2.4226,-2.3491,-2.2824,-2.2845,-2.2843,-2.2292,-2.3025,-2.3826,0.0,0.0,0.0,-2.273,-2.3021,0.0,-2.2272,-2.4069,0.0,-2.603,0.0,-2.9755,-3.064,-3.1917,0.0,0.0,-3.412,-3.4592,-3.4982,-3.4171,-3.3484,-3.3017,-3.182,-3.087,-3.021,-2.9411,-2.8994,-2.8994,-2.8994,-2.8994,-2.9017,-2.9267,-2.9246,-2.9007,-2.9289,-2.9255,-2.8994,-2.8994,-2.8994,-2.9017,-2.9212,-2.9178,-2.903,-2.9225,-2.9351,-2.9355,0.0,0.0,0.0,0.0,0.0,0.0,0.0,0.0,0.0,0.0,0.0,0.0,0.0,0.0,0.0,0.0,0.0,0.0,0.0,1.3103,1.4491,1.5412,1.53,1.4871,1.4163,1.3581,1.2953,1.2241,1.2409,1.2913,1.3723,1.4141,1.4739,1.5514,1.5432,1.6204,1.7547,1.6567,1.6824,0.0,0.0,1.7518,1.7484,1.6817,1.7103,1.7621,1.5714,0.0,0.0,0.0,0.0,-2.0943,-2.0536,-2.1674,-2.3328,-2.4119,0.0,-2.4606,-2.4192,-2.3713,-2.3113,-2.2196,-2.1047,-1.9996,-1.952,-1.9387,-1.9544,-2.0189,-2.1386,-2.2581,-2.3358,-2.3721,-2.3569,0.0,0.0,0.0,-2.198,-2.3562,-2.4995,0.0,-2.7495,0.0,-2.965,-3.1092,-3.2142,0.0,-3.3713,-3.4451,-3.4531,-3.3692,-3.2886,-3.2093,-3.0981,-3.0068,-2.9414,-2.8968,-2.8839,-2.8994,-2.8994,-2.8994,-2.9017,-2.9267,-2.9246,-2.9007,-2.9289,-2.9255,-2.8994,-2.8994,-2.9067,-2.9191,-2.9351,-2.9353,-2.9334,-2.9474,-2.9523,-2.9504,0.0,0.0,0.0,0.0,0.0,0.0,0.0,0.0,0.0,0.0,0.0,0.0,0.0,0.0,0.0,0.0,0.0,0.0,0.0,0.0,0.0,1.4139,1.4133,1.3534,1.231,1.2794,1.2181,1.0396,1.093,1.1536,1.2095,1.252,1.321,1.4139,1.4304,1.4834,1.5664,1.5819,1.5808,1.5834,1.7365,1.7519,1.6992,0.0,0.0,0.0,0.0,0.0,0.0,0.0,-2.015,-2.2591,-2.3232,-2.3876,-2.4439,-2.4704,-2.4492,-2.4015,-2.328,-2.2384,-2.1262,-1.9661,-1.7872,-1.6487,-1.6314,-1.5973,-1.6323,-1.841,0.0,-2.1799,-2.3118,-2.4072,-2.419,-2.2784,0.0,-2.294,-2.2339,-2.3371,-2.4607,-2.5694,-2.7336,-2.8523,-2.877,-3.0216,-3.1262,-3.1489,-3.3139,-3.3953,-3.356,-3.2699,-3.1727,-3.0684,-2.9538,-2.8761,-2.8394,-2.8385,-2.8599,-2.8994,-2.8994,-2.8994,-2.9017,-2.9246,-2.9234,-2.9067,-2.9267,-2.9246,-2.908,-2.903,-2.916,-2.9434,-2.9434,-2.9542,-2.9704,-2.9721,-2.9738,-2.9748,0.0,0.0,0.0,0.0,0.0,0.0,0.0,0.0,0.0,0.0,0.0448,0.3825,0.0,0.0,0.0,0.0,0.0,0.0,0.0,0.0,0.0,0.0,1.0603,1.0678,1.0056,1.0893,1.1169,1.0796,0.9012,0.86,0.9471,1.004,1.0422,1.0615,1.0916,1.1507,1.2324,1.22,1.2521,1.3127,1.3115,1.3688,1.4705,0.0,0.0,0.0,0.0,0.0,0.0,0.0,-1.8696,-2.1694,-2.3976,-2.478,-2.485,-2.4681,-2.4075,-2.325,-2.2183,-2.0631,-1.8744,-1.6435,-1.439,-1.2807,-1.2039,-1.2929,0.0,0.0,-1.8859,-2.119,-2.2358,-2.3307,-2.3762,-2.3376,-2.3958,-2.4041,-2.2798,-2.4395,-2.5257,0.0,-2.6289,-2.77,-2.7162,-2.8797,0.0,0.0,-3.0638,-3.1369,-3.2108,-3.1229,-3.0299,-2.9445,-2.8548,-2.8208,-2.8394,-2.8385,-2.8599,-2.8994,-2.8994,-2.8994,-2.9007,-2.9053,-2.9169,-2.933,-2.9156,0.0,-2.9551,-2.915,-2.9261,-2.9652,-2.9652,-2.9661,-2.9721,-2.9893,-2.9954,-2.9914,0.0,0.0,0.0,0.0,0.0,0.0,0.0,-0.4432,-0.535,-0.4146,-0.1985,0.0775,0.4276,0.4272,0.4426,0.0,0.0,0.0,0.0,0.0,0.0,0.0,0.0,0.0,0.0,0.8549,0.8204,0.7047,0.0,0.6517,0.6522,0.7748,0.7996,0.7393,0.6874,0.6689,0.676,0.7587,0.8066,0.839,0.9133,1.0534,0.0,0.0,0.0,0.0,0.0,0.0,0.0,0.0,-1.0004,-1.5553,-2.2177,-2.4534,-2.4664,-2.381,-2.3022,-2.1995,-2.0089,-1.8212,-1.614,-1.3477,-1.1421,-1.0142,-1.0632,0.0,0.0,0.0,-1.9192,-2.1234,-2.2468,-2.3285,0.0,-2.3757,-2.4119,-2.4106,-2.3335,-2.4348,-2.4835,-2.3968,-2.5516,-2.6472,-2.6016,-2.7393,-2.8317,-2.8317,-2.8502,-2.9317,-3.0939,-2.9986,-2.8907,-2.7881,-2.7485,-2.7461,-2.7825,-2.8038,-2.8316,-2.8691,-2.8896,-2.9228,-2.9613,-2.92,-2.9297,-2.9791,-2.9237,-2.9138,-2.9325,-2.9102,-2.9206,-2.9551,-2.9661,-2.9763,-2.9877,-3.0122,-3.0209,-3.0196,0.0,0.0,0.0,0.0,0.0,0.0,0.0,-0.6301,-0.8396,-0.5529,-0.462,-0.3316,-0.0939,0.153,0.3463,0.0,0.0,0.0,0.0,0.0,0.0,0.0,0.0,0.0,0.0,0.0,0.0,0.3529,0.4677,0.0,0.0,0.0,0.0,0.0,0.3127,0.2288,0.1771,0.3092,0.3499,0.0,0.0,0.6375,0.0,0.0,0.0,0.0,0.0,0.0,0.0,0.0,-0.2535,-1.1167,-1.841,-2.2154,-2.3529,-2.1892,-2.1066,-2.0162,-1.7585,-1.5575,-1.3532,-1.0889,-0.8985,-0.8171,-0.988,-1.1273,0.0,-1.7492,-1.9673,-2.1255,-2.2598,-2.3178,-2.3515,0.0,-2.3881,-2.3868,-2.3631,-2.4046,-2.4279,0.0,-2.4944,0.0,-2.5003,-2.6106,0.0,-2.6871,-2.6945,-2.7765,-2.9453,-2.8644,-2.7678,-2.6742,-2.6691,-2.6898,-2.7303,-2.7687,-2.8084,-2.8411,-2.8806,-2.9338,-2.9925,-2.9278,-2.9379,-2.9991,-2.9306,-2.9067,-2.9128,-2.9044,-2.9181,-2.9484,-2.9634,-2.9829,-3.0028,-3.0299,-3.0398,-3.0398,0.0,0.0,0.0,0.0,0.0,0.0,0.0,-0.4895,-0.7042,-0.493,-0.4997,-0.5418,-0.5779,-0.179,0.1622,0.0,0.0,0.0,0.0,0.0,0.0,0.0,0.0,0.0,0.0,0.0,0.0,0.3598,0.3714,0.0,0.0,0.0,0.0,0.0,0.0,0.009,-0.0323,-0.0354,0.0,0.0,0.0,0.0,0.0,0.0,0.0,0.0,0.0,0.0,0.0,0.0,0.0,-1.4654,-1.2068,-1.5801,-2.0681,-1.823,0.0,0.0,-1.4966,-1.2952,-1.1017,-0.889,-0.7424,-0.6959,-0.8621,0.0,-1.3984,-1.7209,-1.92,-2.0758,-2.2121,-2.2305,-2.2479,-2.3162,-2.3526,-2.3601,-2.3291,-2.4134,-2.4185,-2.2649,0.0,0.0,-2.4001,-2.523,-2.6104,-2.6104,-2.651,-2.6818,-2.7012,-2.6927,-2.6826,-2.6691,-2.6691,-2.6898,-2.7303,-2.7687,-2.8084,-2.8411,-2.8806,-2.903,-2.9104,-2.9021,-2.9171,-2.9463,-2.9149,-2.924,0.0,-2.9172,-2.9261,-2.9678,-2.9696,-2.9829,-3.0028,-3.0299,-3.0398,-3.0398,0.0,0.0,0.0,0.0,0.0,0.0,-0.113,-0.3439,-0.4976,-0.4418,-0.4558,-0.4471,-0.3951,-0.1223,0.1378,0.3327,0.0,0.0,0.0,0.0,0.0,0.0,0.0,0.0,0.0,0.0,0.3351,0.3823,0.3676,0.0,0.0,0.0,0.0,0.0,0.0,-0.251,-0.3027,-0.2672,0.0,0.0,0.0,0.0,0.0,0.0,0.0,0.0,0.0,0.0,0.0,0.0,0.0,0.0,-0.5685,-1.0402,0.0,0.0,-1.6545,-1.601,-1.3004,-1.126,-0.9673,-0.7237,-0.6354,-0.6572,-0.8663,0.0,-1.4175,-1.7232,-1.9171,-2.055,-2.1354,-2.1475,-2.1665,-2.2416,-2.2922,-2.3329,-2.3639,-2.4051,-2.4333,-2.4337,-2.498,0.0,0.0,0.0,-2.5242,-2.4499,-2.492,-2.5337,-2.5672,-2.6345,-2.6691,-2.6691,-2.6691,-2.6791,-2.6939,-2.7568,-2.7982,-2.8111,-2.9207,-2.9723,-2.9723,-2.9723,-2.9793,-2.9839,-2.9265,-2.9203,-2.9494,-2.9138,-2.9272,-2.9696,-2.9696,-2.9829,-3.0028,-3.0299,-3.0398,-3.0398,0.0,0.0,0.0,0.0,0.0,0.0533,-0.0197,-0.1541,-0.2492,-0.2562,-0.2541,-0.2213,-0.137,0.0705,0.2742,0.4537,0.4906,0.0,0.0,0.0,0.0,0.0,0.0,0.0,0.0,0.0,0.3497,0.3372,0.3082,0.2922,0.0,0.0,-0.0179,-0.3722,0.0,0.0,0.0,0.0,0.0,0.0,0.0,0.0,0.0,0.0,0.0,0.0,0.0,0.0,0.0,0.0,0.0,0.0,0.0,0.0,0.0,0.0,-1.4648,-1.4122,-1.0941,-0.9439,-0.8237,-0.595,-0.5706,-0.6634,0.0,0.0,-1.4539,-1.7341,-1.8971,-2.0051,-2.0651,-2.0757,-2.1038,-2.1883,-2.2612,-2.3293,-2.3903,-2.4091,-2.4377,0.0,0.0,-2.4545,-2.3879,-2.4282,-2.425,-2.3468,-2.3903,-2.4442,-2.5045,-2.597,-2.6556,-2.67,-2.6691,-2.6691,-2.6691,-2.7582,-2.7944,-2.7754,-2.9161,-2.978,-2.967,-2.967,-2.9728,-2.9815,-2.9264,-2.9147,-2.9392,-2.9112,-2.924,-2.9626,-2.9678,-2.9789,-2.9954,-3.0276,-3.0398,-3.0398,0.0,0.0,0.0,0.0,0.0,0.0,0.2045,0.0946,0.0431,0.1162,0.1302,0.1236,0.0887,0.3565,0.5938,0.7317,0.6475,0.0,0.0,0.0,0.0,0.0,0.0,0.0,0.0,0.0,0.3034,0.1821,0.1642,0.1315,0.0942,0.1544,-0.0273,-0.3964,0.0,0.0,0.0,0.0,0.0,0.0,0.0,0.0,0.0,0.0,0.0,0.0,0.0,0.0,0.0,0.0,0.0,0.0,0.0,0.0,0.0,0.0,-1.1229,-1.0994,-0.8518,-0.735,-0.6507,-0.5084,-0.5664,-0.708,0.0,-1.2139,-1.5218,-1.7447,-1.8455,-1.9192,-2.0035,-2.0198,-2.0542,-2.1639,-2.2761,-2.3608,-2.396,-2.4291,-2.4255,0.0,0.0,-2.3981,-2.3194,-2.3137,-2.319,-2.3406,-2.3903,0.0,-2.5165,-2.5726,-2.6218,-2.6691,-2.6691,-2.6691,-2.6691,-2.7839,-2.8025,-2.7334,-2.8481,-2.8795,-2.8429,-2.8429,-2.8642,-2.9003,-2.8994,-2.9147,0.0,-2.9112,-2.9147,-2.9423,-2.9616,-2.9696,-2.9765,-3.0238,-3.0398,-3.0398,0.0,0.0,0.0,0.0,0.0,0.0,0.0,0.3062,0.3436,0.4443,0.4613,0.4592,0.4599,0.5654,0.6633,0.7385,0.7293,0.0,0.0,0.0,0.0,0.0,0.0,0.0,0.0,0.0,0.2983,0.1675,-0.0176,-0.0843,-0.0315,-0.0399,-0.1631,-0.3723,-0.3656,-0.3591,0.0,0.0,0.0,0.0,0.0,0.0,0.0,0.0,0.0,0.0,0.0,0.0,0.0,0.0,0.0,0.0,0.0,0.0,0.0,-1.4839,0.0,0.0,-0.9566,-0.8502,-0.7645,-0.5713,-0.6126,-0.7541,-0.9448,-1.2197,-1.5005,-1.7412,-1.8723,-1.9702,-2.0593,-2.0477,-2.0695,-2.2008,-2.2826,-2.3548,0.0,0.0,0.0,-2.5181,-2.4464,-2.385,0.0,0.0,-2.1385,-2.1926,-2.2294,-2.2732,-2.3254,-2.4311,-2.5327,-2.6183,-2.6547,-2.6691,-2.6691,-2.7324,-2.7537,-2.7303,-2.8719,-2.9062,-2.8438,-2.9237,-2.9408,-2.8994,-2.8994,-2.9147,-2.9392,-2.9112,-2.9249,-2.9607,-2.9523,-2.9661,-2.9924,-3.0075,-3.0244,-3.0398,0.0,0.0,0.0,0.0,0.0,0.0,0.0,0.4245,0.4859,0.5879,0.6386,0.6584,0.6336,0.682,0.7219,0.739,0.7809,0.0,0.0,0.0,0.0,0.0,0.0,0.0,0.0,0.3832,0.3036,0.1845,-0.0814,-0.2285,-0.255,-0.2498,-0.2944,-0.3847,-0.3877,-0.3848,0.0,0.0,0.0,0.0,0.0,0.0,-1.0707,0.0,0.0,0.0,0.0,0.0,0.0,0.0,0.0,0.0,0.0,0.0,0.0,0.0,-1.5799,-1.4104,0.0,-0.9687,-0.8459,-0.6768,-0.7165,-0.8453,-1.0247,-1.277,-1.5369,-1.7469,-1.8709,-1.9601,-2.0333,-2.0454,-2.0853,-2.2099,-2.3021,-2.3878,0.0,0.0,0.0,-2.5375,0.0,0.0,0.0,-2.1627,-2.1093,-2.1444,-2.1854,-2.2305,-2.2806,-2.3852,-2.4704,-2.5381,-2.606,-2.6444,-2.6444,-2.7146,-2.7343,-2.7092,-2.8334,-2.8588,-2.8011,-2.8917,-2.9139,-2.8773,-2.8929,-2.9147,0.0,-2.9112,-2.9228,-2.957,-2.9454,-2.9561,-2.978,-2.9861,-2.9988,-3.0137,0.0,0.0,0.0,0.0,0.0,0.0,0.0,0.452,0.4833,0.5784,0.6812,0.715,0.6363,0.7128,0.7551,0.7282,0.0,0.0,0.0,0.0,0.0,0.0,0.0,0.0,0.5305,0.425,0.3204,0.2265,-0.0535,-0.307,-0.5296,-0.4543,-0.4222,-0.428,-0.4361,-0.4227,-0.3938,-0.4439,-0.4868,-0.5388,-0.8059,-0.9428,0.0,0.0,0.0,0.0,0.0,0.0,0.0,0.0,0.0,0.0,0.0,0.0,0.0,0.0,0.0,0.0,0.0,-1.1191,-0.9244,-0.8246,-0.8775,-0.9896,-1.1372,-1.3772,0.0,-1.7648,-1.8484,-1.9119,-1.9654,-2.0336,-2.1106,-2.2098,-2.3417,0.0,0.0,-2.5627,0.0,0.0,-2.3457,0.0,-2.115,-2.1646,-2.1929,-2.1685,-2.2319,-2.2929,-2.3505,-2.4051,-2.4348,-2.4348,-2.5343,-2.5924,-2.6005,-2.7096,-2.735,-2.67,-2.7436,-2.7589,-2.7326,-2.7716,-2.8075,-2.842,-2.8806,-2.9115,-2.9351,-2.9089,-2.9156,-2.9372,-2.9372,-2.9383,-2.9423,-2.9598,-2.9696,-2.9696,0.0,0.0,0.0,0.0,0.0,0.0,0.0,0.0,0.0,0.0,0.5945,0.6005,0.5977,0.6303,0.6307,0.0,0.0,0.0,0.0,0.0,0.0,0.0,0.0,0.0,0.5303,0.4755,0.3598,0.1926,-0.1146,-0.3541,-0.5281,-0.5088,-0.5006,-0.5019,-0.4475,-0.4206,-0.4144,-0.4244,-0.4738,-0.5558,-0.7073,-0.8345,0.0,0.0,0.0,0.0,-1.487,-1.5331,0.0,0.0,0.0,0.0,0.0,0.0,0.0,0.0,-1.9775,-1.9122,-1.8022,0.0,-1.2024,-1.1074,-1.1175,-1.1961,0.0,-1.4774,-1.6019,-1.8018,0.0,0.0,-2.124,-2.1649,-2.2201,-2.3558,0.0,-2.4686,-2.576,0.0,0.0,-2.4551,-2.4078,-2.321,-2.162,-2.1948,-2.1988,-2.1441,-2.2226,-2.2742,-2.2884,-2.3461,-2.3794,-2.3794,-2.443,-2.5174,-2.6005,-2.6286,-2.6507,-2.67,-2.7175,-2.7382,-2.7326,-2.7716,-2.8075,-2.842,-2.8506,-2.8755,-2.9089,-2.904,-2.903,-2.9089,-2.9089,-2.9212,-2.9412,-2.9444,-2.958,-2.9696,0.0,0.0,0.0,0.0,0.0,0.0,0.0,0.0,0.0,0.0,0.0,0.0,0.0,0.0,0.0,0.0,0.0,0.0,0.0,0.0,0.0,0.0,0.0,0.6298,0.5596,0.4142,0.2125,-0.0439,-0.3089,-0.5096,-0.6496,-0.6503,-0.6081,-0.5358,-0.4769,-0.4536,-0.4497,-0.4497,-0.4694,-0.5091,-0.727,0.0,0.0,0.0,0.0,0.0,-1.4459,-1.4777,0.0,-1.5234,-1.5128,-1.502,0.0,0.0,0.0,0.0,-2.0021,-1.9802,-1.8881,-1.6446,-1.4037,-1.3326,-1.3024,-1.3228,-1.4345,0.0,0.0,0.0,0.0,0.0,0.0,0.0,0.0,0.0,-2.4687,0.0,0.0,0.0,-2.4937,-2.4734,-2.3977,-2.3149,0.0,-2.2587,-2.2416,-2.1562,-2.2495,-2.3009,-2.2701,-2.3279,-2.3602,-2.3602,-2.3872,-2.443,-2.5259,-2.577,-2.612,-2.6367,-2.6832,-2.7019,-2.7027,-2.7448,-2.7542,-2.744,-2.8119,-2.8323,-2.8254,-2.8773,-2.8787,-2.8494,-2.8847,-2.8859,-2.8716,-2.9074,-2.9291,-2.9377,0.0,0.0,0.0,0.0,0.0,0.0,0.0,0.0,0.0,0.0,0.0,0.0,0.0,0.0,0.0,0.0,0.0,0.0,0.0,0.0,0.0,0.0,0.0,0.5811,0.5303,0.2533,-0.0452,-0.3613,-0.5499,-0.7038,-0.8206,-0.789,-0.6857,-0.5294,-0.5143,-0.4991,-0.4839,-0.4839,-0.462,-0.4532,-0.7629,0.0,0.0,0.0,0.0,0.0,0.0,0.0,0.0,-1.4438,-1.4337,-1.4433,-1.53,0.0,0.0,0.0,0.0,0.0,-1.8198,-1.6811,-1.5627,-1.5067,-1.4519,-1.4217,-1.4655,0.0,0.0,0.0,0.0,0.0,0.0,-2.2539,0.0,0.0,0.0,0.0,-2.6516,-2.5068,-2.4264,-2.5053,-2.3809,0.0,-2.2825,-2.3072,-2.2772,-2.1627,-2.2732,-2.3238,-2.2747,-2.3282,-2.3602,-2.3602,-2.3602,-2.3837,-2.4266,-2.5335,-2.5924,-2.6005,-2.6361,-2.653,-2.6522,-2.6888,-2.6653,-2.6106,-2.7459,-2.7767,-2.7381,-2.8332,-2.8439,-2.8044,-2.8741,-2.8585,-2.8071,-2.8737,-2.8994,-2.8994,0.0,0.0,0.0,0.0,0.0,0.0,0.0,0.0,0.0,0.0,0.0,0.0,0.0,0.0,0.0,0.0,0.0,0.0,0.0,0.0,0.0,0.695,0.5955,0.4451,0.2456,-0.0481,-0.3301,-0.5904,-0.7222,-0.8506,-0.9655,-0.7749,-0.6011,-0.4461,-0.5529,-0.5468,-0.4557,-0.4557,-0.4515,-0.4622,-0.6342,0.0,0.0,0.0,0.0,0.0,0.0,0.0,0.0,-1.4123,-1.3647,-1.3487,-1.5038,0.0,0.0,0.0,0.0,0.0,-1.8509,-1.7834,-1.7103,-1.6113,-1.5681,-1.564,-1.6223,0.0,0.0,0.0,0.0,0.0,0.0,-2.2607,-2.3432,0.0,0.0,-2.6505,0.0,0.0,-2.5883,-2.5399,0.0,-2.3483,-2.1816,-2.2339,-2.2275,-2.1025,-2.211,-2.2792,-2.2694,-2.3282,-2.3602,-2.3602,-2.3602,-2.3638,-2.3716,-2.4784,-2.5532,-2.6005,-2.5858,-2.5778,-2.5778,-2.5825,-2.5651,-2.5307,-2.6159,-2.6817,-2.7311,-2.7486,-2.8057,-2.8819,-2.8938,-2.8911,-2.8819,-2.8938,-2.8994,-2.8994,0.0,0.0,0.0,0.0,0.0,0.0,0.0,0.0,0.0,0.0,0.0,0.0,0.0,0.0,0.0,0.0,0.0,0.0,0.0,0.0,0.0,0.4603,0.1957,0.004,-0.0868,-0.3956,-0.7132,-1.0336,-1.0282,-0.9968,-0.9353,-0.6916,-0.4891,-0.3413,-0.4992,-0.5437,-0.4942,-0.5023,-0.5058,-0.5255,0.0,0.0,0.0,0.0,0.0,0.0,0.0,0.0,0.0,0.0,-1.3128,-1.2953,-1.4472,0.0,0.0,0.0,0.0,0.0,-1.7632,-1.7091,-1.6593,-1.6278,-1.5993,-1.5812,-1.5879,0.0,0.0,0.0,0.0,0.0,0.0,0.0,-2.3701,-2.4708,0.0,-2.5564,-2.5747,-2.5472,-2.512,0.0,0.0,-2.349,-2.2615,-2.2622,-2.2154,-2.0894,-2.1619,-2.2154,-2.2154,-2.277,-2.3282,-2.3595,-2.3602,-2.3602,-2.3602,-2.4389,-2.502,-2.5569,-2.5597,-2.5609,-2.56,-2.5186,-2.47,-2.4224,-2.5175,-2.5565,-2.5603,-2.6611,-2.7195,-2.7514,-2.8346,-2.8533,-2.8402,-2.8851,-2.8994,-2.8994,0.0,0.0,0.0,0.0,0.0,0.0,0.0,0.0,0.0,0.0,0.0,0.0,0.0,0.0,0.0,0.0,0.0,0.0,0.0,0.0,0.2419,0.1499,-0.2132,-0.404,-0.3854,-0.742,-1.071,-1.3657,-1.2754,-1.087,-0.8011,-0.6018,-0.4085,-0.2389,-0.3899,-0.4872,-0.5426,-0.5491,-0.5594,-0.5966,0.0,0.0,0.0,0.0,0.0,0.0,0.0,0.0,0.0,0.0,0.0,0.0,0.0,0.0,0.0,-1.5719,-1.645,-1.6841,-1.6342,-1.597,-1.5743,-1.5841,0.0,-1.593,-1.5639,0.0,0.0,0.0,0.0,0.0,0.0,-2.2767,0.0,-2.4937,-2.4838,-2.4521,-2.436,-2.4112,-2.3926,-2.3944,-2.3343,-2.299,-2.3076,-2.2599,-2.1799,-2.0646,-2.1155,-2.1472,-2.1472,-2.2253,-2.292,-2.337,-2.3508,-2.3602,-2.3602,-2.4274,-2.4784,-2.5205,-2.5185,-2.5225,-2.5321,-2.4568,-2.3833,-2.321,-2.4265,-2.4417,-2.412,-2.5534,-2.6187,-2.639,-2.757,-2.7981,-2.8036,-2.8732,-2.8994,-2.8994,0.0,0.0,0.0,0.0,0.0,0.0,0.0,0.0,0.0,0.0,0.0,0.0,0.0,0.0,0.0,0.0,0.0,0.0,0.0,0.0,-0.0228,-0.1767,-0.4274,-0.5702,-0.5798,-1.0535,-1.3183,-1.3498,-1.3365,-1.0637,-0.5542,-0.538,-0.3962,-0.1612,-0.2162,-0.3705,-0.5832,-0.5599,-0.5871,-0.6671,-0.8414,0.0,0.0,0.0,0.0,0.0,0.0,0.0,0.0,0.0,0.0,0.0,0.0,0.0,-1.2626,-1.3607,-1.4735,-1.5499,-1.4843,-1.5073,-1.5378,-1.4772,-1.5623,0.0,-1.6694,-1.6658,0.0,-1.8007,0.0,0.0,0.0,-2.2452,-2.3586,-2.4726,-2.4376,-2.405,-2.4339,0.0,-2.3243,-2.3444,-2.2487,-2.1798,-2.1829,-2.13,-2.0646,-1.9952,-2.0497,-2.0845,-2.0845,-2.2035,-2.2701,-2.274,-2.3326,-2.3602,-2.3602,-2.4632,-2.5174,-2.5205,-2.4253,-2.409,-2.4535,-2.3807,-2.308,-2.2429,-2.3185,-2.3708,-2.4006,-2.4155,-2.5208,-2.6766,-2.6881,-2.7504,-2.8399,-2.8845,-2.8994,-2.8994,0.0,0.0,0.0,0.0,0.0,0.0,0.0,0.0,0.0,0.0,0.0,0.0,0.0,0.0,0.0,0.0,0.0,0.0,0.0,-0.2186,-0.2366,-0.2852,-0.6012,-0.7354,-0.6587,-1.0509,-1.2509,-1.2319,-1.0571,-0.9186,-0.8103,-0.5082,-0.3565,-0.3358,-0.3509,-0.4318,-0.5622,-0.6929,-0.753,-0.7795,-0.9659,-1.0558,0.0,0.0,0.0,0.0,0.0,0.0,0.0,0.0,-1.2227,-1.1349,-1.3029,-1.2916,-1.247,-1.3812,-1.4519,-1.4823,-1.4563,-1.4865,-1.5258,-1.5189,-1.5943,0.0,0.0,-1.613,-1.6435,-1.7415,-1.8059,0.0,0.0,0.0,-2.2764,-2.3476,-2.3527,-2.3334,-2.2955,-2.2775,-2.2445,-2.1894,-2.1447,-2.106,-2.0698,-2.0447,-2.0032,-1.9365,-1.9515,-1.9849,-2.0261,-2.11,-2.1917,-2.2687,-2.329,-2.3602,-2.3602,-2.3991,-2.4552,-2.5205,-2.4966,-2.4748,-2.4481,-2.3731,-2.3004,-2.2327,-2.2598,-2.2793,-2.2986,-2.3448,-2.4447,-2.5846,-2.7036,-2.7576,-2.7784,-2.8408,-2.8782,-2.8994,0.0,0.0,0.0,0.0,0.0,0.0,0.0,0.0,0.0,0.0,0.0,0.0,0.0,0.0,0.0,0.0,0.0,0.0,-0.3431,-0.3575,-0.3734,-0.3983,-0.6513,-0.7229,-0.5832,-0.7739,-0.9225,-1.0199,-0.7318,-0.6183,-0.6684,-0.3373,-0.2427,-0.3511,-0.4431,-0.5331,-0.6292,-0.7747,-0.8493,-0.8848,-1.0505,-1.1255,0.0,0.0,0.0,0.0,0.0,0.0,0.0,0.0,-1.2004,-1.1028,-1.2456,-1.2422,-1.2019,-1.3019,-1.3374,-1.3487,-1.3782,-1.4141,-1.4627,0.0,0.0,0.0,-1.6237,-1.6134,-1.6343,-1.7273,-1.823,0.0,-2.1532,0.0,0.0,0.0,-2.2629,-2.241,-2.1587,-2.1478,-2.1296,-2.0661,-2.0272,-1.9945,-1.9734,-1.9526,-1.9261,-1.8763,-1.8769,-1.9027,-1.9658,-2.0441,-2.1353,-2.2331,-2.2995,-2.34,-2.3602,-2.3548,-2.4099,-2.5205,-2.5379,-2.5146,-2.4481,-2.3494,-2.2784,-2.231,-2.231,-2.231,-2.2353,-2.2843,-2.3781,-2.5077,-2.6731,-2.7331,-2.7397,-2.8126,-2.8565,-2.8839,0.0,0.0,0.0,0.0,0.0,0.0,0.0,0.0,0.0,0.0,0.0,0.0,0.0,0.0,0.0,0.0,0.0,0.0,-0.3248,-0.3491,-0.4152,-0.544,-0.5599,-0.4953,-0.339,-0.2096,-0.332,-0.7143,-0.3922,-0.1504,0.0139,0.004,-0.0459,-0.1462,-0.4443,-0.6645,-0.8076,-0.7732,-0.8332,-0.9578,-1.0735,-1.1251,-1.147,0.0,0.0,0.0,0.0,0.0,0.0,0.0,-1.1801,-1.0964,-1.0827,-1.0896,-1.097,-1.0827,-1.0933,-1.1314,-1.2254,-1.28,-1.3419,0.0,0.0,0.0,-1.706,-1.6984,-1.6902,-1.7642,-1.8975,-2.0279,-2.1313,-2.1907,0.0,-2.2113,-2.1816,-2.129,-2.0408,-1.9904,-1.9657,-1.9864,-1.8871,-1.842,-1.902,-1.8528,-1.8198,-1.8198,-1.8198,-1.8436,-1.8933,-2.0201,-2.1142,-2.1662,-2.2338,-2.2966,-2.358,-2.3427,-2.3975,-2.5197,-2.5189,-2.4933,-2.4464,-2.2987,-2.2319,-2.231,-2.231,-2.231,-2.231,-2.2327,-2.3181,-2.4596,-2.5751,-2.6636,-2.737,-2.8103,-2.8385,-2.8455,0.0,0.0,0.0,0.0,0.0,0.0,0.0,0.0,0.0,0.0,0.0,0.0,0.0,0.0,0.0,0.0,0.0,0.0,-0.181,-0.2731,-0.3531,-0.4152,-0.3402,-0.2346,-0.1026,0.1377,0.0801,-0.2982,-0.0366,0.1267,0.1898,-0.004,-0.1474,-0.2523,-0.5001,-0.6304,-0.6724,-0.8392,-0.908,-0.919,-1.0468,-1.0984,-1.1087,0.0,0.0,0.0,0.0,0.0,0.0,0.0,0.0,0.0,-1.042,-1.0676,-1.0934,-1.1006,-1.1503,-1.2166,-1.2425,-1.3293,0.0,-1.549,0.0,0.0,0.0,-1.7389,0.0,0.0,-1.8013,-1.9107,-1.9893,-2.0757,0.0,-2.1344,-2.0959,-2.0493,-1.9904,-1.9412,-1.886,-1.8153,-1.7777,-1.765,-1.7894,-1.7751,-1.7418,-1.6957,-1.7365,-1.7492,-1.7181,-1.8747,-1.9861,-2.0412,-2.1449,-2.2069,-2.2256,-2.2214,-2.2732,-2.3719,-2.3215,-2.3496,-2.4458,-2.3677,-2.2926,-2.231,-2.231,-2.231,-2.2386,-2.3418,-2.379,-2.3922,-2.5819,-2.6545,-2.6606,-2.735,-2.7965,-2.842,0.0,0.0,0.0,0.0,0.0,0.0,0.0,0.0,0.0,0.0,0.0,0.0,0.0,0.0,0.0,0.0,0.0,0.0,0.0,-0.0808,-0.1627,-0.2658,-0.2571,-0.1499,0.0689,0.2678,0.2778,0.092,0.2253,0.3304,0.4015,0.074,-0.1708,-0.341,-0.525,-0.6106,-0.6311,-0.793,-0.8674,-0.8792,-0.9974,-1.0533,-1.073,0.0,0.0,0.0,0.0,0.0,0.0,0.0,0.0,0.0,-0.9692,-0.996,-1.0441,-1.0645,-1.1149,-1.1772,-1.2336,-1.3437,0.0,-1.5965,-1.6922,-1.7644,-1.7913,0.0,0.0,0.0,-1.7151,-1.8107,-1.9215,-1.9868,0.0,-2.0668,-2.0139,-1.9598,-1.9376,-1.8705,-1.802,-1.7388,-1.7111,-1.7014,-1.7049,-1.7036,-1.6789,-1.6148,-1.6456,-1.6593,-1.6401,-1.7681,-1.887,-1.988,-2.0604,-2.122,-2.1695,-2.144,-2.182,-2.2809,-2.2347,-2.2689,-2.3771,-2.3323,-2.2839,-2.231,-2.231,-2.231,-2.2403,-2.357,-2.3959,-2.3985,-2.5625,-2.6321,-2.6473,-2.7077,-2.7689,-2.8228,0.0,0.0,0.0,0.0,0.0,0.0,0.0,0.0,0.0,0.0,0.0,0.0,0.0,0.0,0.0,0.0,0.0,0.0,0.0,0.0,0.0663,-0.1417,-0.2737,-0.1827,0.1581,0.2184,0.2898,0.3835,0.3798,0.444,0.5647,0.1759,-0.143,-0.3917,-0.5233,-0.5989,-0.6346,-0.6786,-0.7451,-0.8236,-0.9144,-0.977,-1.0205,-1.1103,0.0,0.0,0.0,0.0,0.0,0.0,0.0,0.0,-0.8747,-0.8971,-0.9561,-0.9889,-1.0184,-1.0739,-1.2082,0.0,0.0,-1.6188,-1.7194,0.0,-1.6811,-1.6552,-1.6345,-1.6016,0.0,-1.7212,-1.876,-1.9017,-1.9217,-1.9836,-1.9234,-1.8659,-1.8679,-1.7866,-1.7271,-1.7229,-1.6795,-1.6472,-1.6423,-1.6423,-1.6145,-1.5493,-1.5537,-1.579,-1.6225,-1.6989,-1.81,-1.9679,-1.9776,-2.0359,-2.1508,-2.0917,-2.1152,-2.2211,-2.2189,-2.235,-2.259,-2.24,-2.2313,-2.231,-2.231,-2.231,-2.2369,-2.3164,-2.3892,-2.4591,-2.5389,-2.6116,-2.675,-2.7115,-2.7508,-2.7888,0.0,0.0,0.0,0.0,0.0,0.0,0.0,0.0,0.0,0.0,0.0,0.0,0.0,0.0,0.0,0.0,0.0,0.0,0.0,0.0,-0.0873,-0.3022,-0.2517,-0.1365,0.0346,0.0983,0.1464,0.1904,0.2897,0.301,0.2214,0.0218,-0.1451,-0.2824,-0.4527,-0.5112,-0.4952,-0.6396,-0.6775,-0.6526,-0.7742,-0.8446,-0.885,-0.9399,-1.0037,0.0,0.0,0.0,0.0,0.0,0.0,0.0,-0.8186,-0.8307,-0.8924,-0.903,-0.9884,-1.0952,-1.1735,-1.3579,0.0,0.0,-1.6959,-1.7591,-1.7109,-1.6073,-1.5113,-1.4881,-1.5583,-1.6271,-1.6321,-1.6983,-1.7508,-1.7337,-1.7504,-1.7487,-1.7088,-1.7176,-1.7153,-1.6716,-1.6558,-1.6324,-1.582,-1.577,-1.5365,-1.4272,-1.5039,-1.5457,-1.508,-1.648,-1.7703,-1.8479,-1.8889,-1.9447,-2.0116,-1.9981,-2.0197,-2.0756,-2.1106,-2.1496,-2.1859,-2.2318,-2.2448,-2.231,-2.231,-2.231,-2.2412,-2.3706,-2.4371,-2.4642,-2.5938,-2.6556,-2.6725,-2.6783,-2.7083,-2.747,0.0,0.0,0.0,0.0,0.0,0.0,0.0,0.0,0.0,0.0,0.0,0.0,0.0,0.0,0.0,0.0,0.0,0.0,0.0,0.0,-0.1287,-0.2671,-0.2689,-0.2215,-0.1315,-0.0815,-0.0583,-0.0562,-0.0186,0.0036,0.0073,-0.1587,-0.2842,-0.3777,-0.4515,-0.4633,-0.427,-0.5168,-0.5446,-0.5356,-0.6446,-0.713,-0.7582,-0.8406,-0.9029,-0.9547,-1.0417,0.0,0.0,0.0,0.0,0.0,0.0,0.0,-0.9156,-0.94,-1.0153,-1.1093,0.0,0.0,0.0,-1.6106,0.0,-1.6937,-1.6529,-1.5416,-1.4358,-1.3953,-1.4482,-1.5129,-1.5437,-1.5749,-1.6075,-1.646,-1.6512,-1.6526,-1.6487,-1.6753,-1.6704,-1.6139,-1.6051,-1.5826,-1.5236,-1.5192,-1.4778,-1.3862,-1.4641,-1.5011,-1.4703,-1.6089,-1.7244,-1.8052,-1.8612,-1.9169,-1.9682,-1.9682,-1.9818,-2.0035,-2.0665,-2.1323,-2.1945,-2.2298,-2.24,-2.231,-2.231,-2.2505,-2.2911,-2.4027,-2.4726,-2.5135,-2.6251,-2.6691,-2.6691,-2.6691,-2.6963,-2.7273,0.0,0.0,0.0,0.0,0.0,0.0,0.0,0.0,0.0,0.0,0.0,0.0,0.0,0.0,0.0,0.0,0.0,0.0,0.0,0.0,0.0,-0.2318,-0.3325,-0.363,-0.3086,-0.2892,-0.2919,-0.319,-0.3873,-0.3528,0.0,-0.3613,-0.4549,-0.5097,-0.4765,-0.4342,-0.3893,-0.3958,-0.4143,-0.4462,-0.5333,-0.5925,-0.6414,-0.768,-0.8232,-0.8424,-0.929,-0.9553,-0.9544,-0.9938,0.0,0.0,0.0,0.0,-0.944,-0.9959,-1.0495,-1.1149,0.0,0.0,-1.4076,-1.6234,-1.6236,0.0,-1.5574,-1.4642,-1.37,-1.3292,-1.352,-1.404,-1.4924,-1.4747,-1.4774,-1.577,-1.5637,-1.5589,-1.6134,-1.629,-1.6225,-1.5802,-1.5676,-1.5359,-1.4744,-1.4612,-1.4288,-1.3684,-1.4288,-1.4703,-1.4703,-1.579,-1.6934,-1.8052,-1.8535,-1.905,-1.9682,-1.9682,-1.9711,-1.9811,-2.0698,-2.1515,-2.231,-2.231,-2.231,-2.231,-2.231,-2.2725,-2.3452,-2.421,-2.4924,-2.5676,-2.6404,-2.6691,-2.6691,-2.6691,-2.6906,-2.7115,0.0,0.0,0.0,0.0,0.0,0.0,0.0,0.0,0.0,0.0,0.0,0.0,0.0,0.0,0.0,0.0,0.0,0.0,-0.3206,0.0,0.0,-0.4475,-0.486,-0.4916,-0.4601,-0.4916,-0.5225,-0.5561,-0.6333,0.0,0.0,0.0,0.0,-0.4674,-0.4625,-0.4143,-0.3423,-0.3823,-0.3788,-0.3551,-0.4431,-0.502,-0.5512,-0.6779,-0.7541,-0.8047,-0.9246,-0.9413,-0.9116,-0.9392,-0.9205,0.0,0.0,0.0,-0.8849,-0.9485,-1.0244,-1.1137,0.0,0.0,-1.4285,0.0,-1.5024,-1.3758,0.0,0.0,-1.2811,0.0,-1.3267,-1.3348,-1.3486,-1.3437,-1.3462,-1.3601,-1.4012,-1.4506,-1.5024,-1.5495,-1.594,-1.6318,-1.5914,-1.5359,-1.4744,-1.4242,-1.3689,-1.306,-1.4066,-1.4703,-1.4703,-1.5832,-1.6986,-1.8059,-1.8178,-1.8696,-1.9682,-1.9682,-1.9874,-2.0219,-2.1102,-2.1794,-2.231,-2.231,-2.231,-2.231,-2.231,-2.2725,-2.3452,-2.421,-2.4924,-2.5676,-2.6404,-2.6691,-2.6691,-2.6691,-2.6716,-2.6832,0.0,0.0,0.0,0.0,0.0,0.0,0.0,0.0,0.0,0.0,0.0,0.0,0.0,0.0,0.0,-0.367,-0.353,-0.3581,-0.3913,-0.4311,-0.4544,-0.4631,-0.4923,-0.5104,-0.5114,-0.5295,-0.5762,-0.6489,0.0,0.0,0.0,-0.7037,-0.6222,0.0,0.0,0.0,-0.3292,-0.3268,-0.314,-0.3035,-0.3921,-0.4371,-0.4692,-0.6179,-0.6884,-0.7231,-0.8504,-0.8843,-0.8749,-0.938,-0.9254,-0.8867,-0.8861,0.0,0.0,0.0,-1.0069,0.0,-1.1768,-1.2759,-1.3631,0.0,-1.3549,-1.2911,-1.3454,0.0,-1.2544,-1.2762,-1.3242,-1.352,-1.3267,-1.3198,-1.3198,-1.3198,-1.3697,-1.4167,-1.4418,-1.5153,-1.5657,-1.5557,-1.5295,-1.4875,-1.4231,-1.3414,-1.2907,-1.2954,-1.3507,-1.401,-1.4278,-1.572,-1.6864,-1.7633,-1.8229,-1.893,-1.9682,-1.9937,-2.0382,-2.1031,-2.1422,-2.1861,-2.231,-2.231,-2.231,-2.231,-2.231,-2.2725,-2.3452,-2.421,-2.4924,-2.5676,-2.6404,-2.6691,-2.6691,-2.6691,-2.6691,-2.6674,0.0,0.0,0.0,0.0,0.0,0.0,0.0,0.0,0.0,0.0,0.0,0.0,0.0,0.0,0.0,0.0,-0.4405,-0.4402,-0.4604,-0.4682,-0.4766,-0.4874,-0.5118,-0.5295,-0.5392,-0.549,-0.6009,-0.6928,0.0,0.0,-0.7691,-0.7377,-0.6644,0.0,-0.4557,-0.3874,0.0,0.0,0.0,0.0,-0.3698,-0.4056,-0.4309,-0.5894,-0.6484,-0.6647,-0.78,-0.8213,-0.8324,-0.8971,-0.902,-0.8868,-0.9116,-0.9161,0.0,0.0,0.0,0.0,0.0,0.0,-1.2782,-1.2461,-1.2144,-1.1994,0.0,0.0,-1.2181,0.0,-1.3312,-1.3835,-1.3581,-1.3452,-1.3391,-1.3391,-1.3677,-1.3921,-1.4066,-1.4922,-1.5374,-1.5049,-1.4742,-1.4428,-1.4103,-1.2929,-1.2443,-1.2947,-1.3264,-1.3564,-1.3991,-1.5413,-1.6492,-1.7047,-1.8192,-1.9089,-1.9605,-2.0296,-2.0967,-2.159,-2.1718,-2.1966,-2.231,-2.231,-2.231,-2.231,-2.231,-2.2725,-2.3435,-2.3976,-2.4763,-2.5659,-2.6209,-2.653,-2.6691,-2.6691,-2.6581,-2.637,0.0,0.0,0.0,0.0,0.0,0.0,0.0,0.0,0.0,0.0,0.0,0.0,-0.4073,-0.4768,-0.5169,-0.4969,-0.5063,-0.5311,-0.5702,-0.6014,-0.6204,-0.6188,-0.6156,0.0,-0.5673,-0.6063,-0.6504,0.0,0.0,0.0,-0.7686,-0.6854,-0.6029,-0.5216,-0.4641,-0.4222,-0.3893,0.0,0.0,0.0,0.0,0.0,0.0,0.0,0.0,-0.6609,-0.744,-0.7734,-0.7734,-0.7783,-0.8046,-0.8278,-0.7905,-0.8563,-0.9475,0.0,0.0,0.0,0.0,-1.1786,0.0,-1.1844,0.0,0.0,0.0,0.0,-1.1375,-1.2779,-1.3517,-1.4026,-1.4374,-1.4123,-1.3868,-1.3868,-1.3512,-1.3458,-1.4016,-1.4588,-1.5109,-1.5596,-1.4735,-1.4287,-1.4722,-1.3258,-1.2505,-1.2951,-1.3581,-1.3951,-1.3997,-1.4974,-1.5815,-1.6352,-1.7828,-1.8876,-1.9408,-2.0811,-2.156,-2.162,-2.204,-2.2282,-2.231,-2.231,-2.231,-2.231,-2.231,-2.2725,-2.3393,-2.3435,-2.4298,-2.5609,-2.5651,-2.6082,-2.6691,-2.6691,-2.626,-2.5752,0.0,0.0,0.0,0.0,0.0,0.0,0.0,0.0,0.0,0.0,0.0,0.0,0.0,-0.5302,-0.5646,-0.5824,-0.5947,-0.6178,-0.655,-0.6494,-0.6402,-0.629,-0.6481,-0.6292,-0.5718,-0.6036,-0.6251,0.0,0.0,-0.6048,-0.6451,-0.5823,-0.5271,-0.4798,-0.4328,-0.3927,-0.3525,-0.294,0.0,0.0,0.0,0.0,0.0,0.0,0.0,0.0,0.0,0.0,-0.77,-0.77,-0.7783,-0.7894,-0.7754,-0.7999,-0.8525,-0.9337,0.0,0.0,0.0,0.0,0.0,-1.0617,-1.0385,-1.0366,-1.0968,-1.147,-1.2111,-1.2917,-1.4292,-1.5216,-1.4954,-1.4342,-1.3901,-1.3901,-1.352,-1.3273,-1.3496,-1.4035,-1.4456,-1.4651,-1.4004,-1.3714,-1.4228,-1.2847,-1.2233,-1.3019,-1.305,-1.3184,-1.3484,-1.4451,-1.5243,-1.5758,-1.7165,-1.8621,-2.0078,-2.1101,-2.1756,-2.204,-2.2209,-2.231,-2.231,-2.231,-2.231,-2.231,-2.231,-2.2454,-2.2733,-2.3198,-2.3706,-2.4239,-2.4704,-2.5338,-2.5989,-2.5989,-2.6133,-2.6277,0.0,0.0,0.0,0.0,0.0,0.0,0.0,0.0,0.0,-0.463,0.0,0.0,0.0,0.0,-0.6499,-0.6943,-0.7046,-0.7134,-0.7234,-0.7059,-0.6759,-0.6391,-0.6696,-0.6499,-0.5718,-0.5905,-0.5982,0.0,0.0,0.0,0.0,-0.4907,-0.4474,-0.4154,-0.3841,-0.3566,0.0,0.0,0.0,-0.3774,0.0,0.0,-0.5702,0.0,0.0,0.0,0.0,0.0,0.0,-0.787,-0.7817,-0.77,-0.77,-0.7783,-0.8089,0.0,0.0,0.0,-1.0255,0.0,0.0,0.0,0.0,-1.0617,-1.1141,-1.1983,-1.2799,-1.3417,-1.4634,-1.5524,-1.5425,-1.474,-1.4159,-1.4124,-1.3581,-1.3198,-1.3198,-1.3703,-1.4085,-1.4085,-1.3456,-1.3271,-1.3967,-1.2625,-1.2135,-1.3044,-1.2884,-1.2937,-1.3425,-1.4197,-1.5164,-1.6276,-1.7524,-1.9003,-2.0711,-2.1458,-2.2003,-2.231,-2.231,-2.231,-2.231,-2.231,-2.231,-2.231,-2.231,-2.231,-2.2353,-2.2835,-2.3181,-2.3444,-2.3926,-2.4568,-2.5228,-2.5228,-2.5532,-2.5879,0.0,0.0,0.0,0.0,0.0,0.0,0.0,0.0,-0.4086,-0.4086,0.0,0.0,0.0,0.0,0.0,-0.826,-0.8319,-0.8119,-0.7725,-0.7744,-0.7404,-0.6533,-0.6821,-0.6613,-0.5745,-0.5731,-0.5711,0.0,0.0,0.0,0.0,0.0,-0.3719,-0.3284,-0.3135,-0.3149,-0.3284,0.0,-0.3794,-0.4625,0.0,-0.574,-0.6565,0.0,0.0,0.0,-0.8103,-0.8115,0.0,-0.8237,0.0,0.0,0.0,0.0,0.0,0.0,0.0,0.0,0.0,0.0,0.0,0.0,0.0,0.0,-1.2238,0.0,-1.3421,-1.4266,-1.4494,-1.485,-1.5773,-1.5257,-1.4638,-1.4502,-1.3788,-1.3229,-1.3229,-1.3697,-1.406,-1.406,-1.3182,-1.2948,-1.3944,-1.2684,-1.218,-1.3123,-1.3198,-1.3391,-1.3868,-1.4303,-1.5556,-1.781,-1.8917,-2.0034,-2.1161,-2.1921,-2.231,-2.231,-2.231,-2.231,-2.231,-2.231,-2.231,-2.231,-2.231,-2.231,-2.231,-2.231,-2.2725,-2.3367,-2.3367,-2.3807,-2.4481,-2.4481,-2.4489,-2.4515,0.0,0.0,0.0,0.0,0.0,0.0,-0.6484,-0.6086,-0.5739,0.0,0.0,0.0,-0.6016,-0.7204,-0.8186,-0.8634,-0.8449,-0.8138,-0.7724,-0.7446,-0.7117,-0.6746,-0.6804,-0.668,-0.6343,-0.6142,-0.5961,-0.5701,-0.4954,-0.4596,-0.4587,-0.3728,-0.3328,0.0,-0.2705,-0.2554,-0.2729,-0.2729,0.0,-0.4487,-0.4685,-0.5804,0.0,0.0,0.0,0.0,0.0,-0.856,-0.8218,0.0,-0.8091,-0.77,0.0,0.0,0.0,0.0,0.0,0.0,-0.8906,0.0,0.0,0.0,0.0,0.0,0.0,0.0,-1.5425,-1.5233,-1.5823,-1.6094,-1.5106,-1.4843,-1.461,-1.4152,-1.3964,-1.3858,-1.3858,-1.3318,-1.2938,-1.2938,-1.2033,-1.1697,-1.2383,-1.2036,-1.2066,0.0,-1.3019,-1.3391,-1.3868,-1.4774,-1.5853,-1.7069,-1.8663,-1.9776,-2.0322,-2.1832,-2.25,-2.231,-2.273,-2.273,-2.231,-2.25,-2.2482,-2.231,-2.231,-2.231,-2.231,-2.231,-2.2429,-2.2606,-2.2606,-2.3054,-2.3697,-2.3697,-2.4027,-2.443,0.0,0.0,0.0,0.0,0.0,-0.6899,-0.7672,-0.7124,-0.6665,0.0,0.0,0.0,-0.7703,-0.8153,-0.8546,-0.8783,-0.8349,-0.7893,-0.7472,-0.7233,-0.689,-0.6447,-0.6719,-0.6738,-0.6441,-0.6159,-0.5942,-0.5878,-0.5006,-0.4596,-0.4581,-0.3687,-0.3264,-0.3198,0.0,0.0,0.0,0.0,0.0,0.0,-0.5363,0.0,0.0,-0.8234,-0.8589,0.0,0.0,0.0,-0.8226,-0.8678,-0.8158,0.0,0.0,0.0,0.0,0.0,0.0,0.0,0.0,0.0,0.0,0.0,0.0,0.0,-1.4141,-1.5466,-1.642,0.0,-1.5773,-1.5712,-1.4767,-1.4728,-1.4816,-1.4682,-1.4707,-1.4532,-1.3804,-1.3599,-1.3295,-1.281,-1.2103,-1.1768,-1.2039,-1.1706,-1.1763,-1.2437,-1.2762,-1.3319,-1.4301,-1.5476,-1.6441,-1.7158,-1.8626,-1.972,-2.0358,-2.1736,-2.251,-2.2686,-2.3038,-2.3023,-2.2686,-2.284,-2.2747,-2.2463,-2.2463,-2.2407,-2.231,-2.231,-2.231,-2.231,-2.231,-2.2564,-2.2945,-2.2945,-2.3401,-2.3926,0.0,0.0,-0.641,-0.6977,-0.6799,-0.7072,-0.8628,-0.7898,-0.7292,0.0,-0.7859,-0.84,-0.9548,-0.9148,-0.8756,-0.8673,-0.8045,-0.7409,-0.6926,-0.6935,-0.661,-0.5757,-0.6461,-0.6611,-0.6115,-0.593,-0.5929,-0.6138,-0.5287,-0.4823,-0.4681,-0.3968,-0.3457,-0.313,0.0,0.0,0.0,0.0,0.0,-0.5182,-0.6398,-0.7511,0.0,0.0,-0.9004,-0.9058,-0.9406,-0.8804,-0.7967,-0.885,-0.8103,0.0,0.0,0.0,0.0,0.0,-0.77,0.0,0.0,0.0,0.0,0.0,-1.3636,0.0,-1.5114,-1.6092,-1.6775,0.0,-1.5267,-1.4792,-1.4723,-1.4818,-1.5073,-1.5524,-1.5655,-1.5185,-1.368,-1.4175,-1.4318,-1.3247,-1.2737,-1.2423,-1.2339,-1.1554,-1.1469,-1.2406,-1.2633,-1.3403,-1.4936,-1.6173,-1.7118,-1.7693,-1.877,-1.9813,-2.0755,-2.1622,-2.2401,-2.3065,-2.3223,-2.3268,-2.3189,-2.3245,-2.3045,-2.2695,-2.2695,-2.2537,-2.231,-2.231,-2.231,-2.231,-2.231,-2.231,-2.2319,-2.2403,-2.2843,-2.3308,0.0,0.0,-0.6933,-0.7002,-0.7632,-0.8264,-0.8617,-0.8752,-0.8771,-0.8645,-0.8889,-0.9333,-1.0002,-0.9316,-0.8563,-0.7969,-0.7439,-0.6704,-0.5632,-0.5927,-0.5705,-0.4723,-0.5518,-0.5866,-0.5658,-0.6369,-0.6593,-0.6253,-0.6486,-0.614,-0.5236,-0.4668,-0.4104,-0.3561,0.0,0.0,0.0,0.0,0.0,-0.5496,-0.5663,0.0,-0.8455,-0.8848,-0.9004,-0.9023,-0.9076,-0.8689,-0.805,-0.7564,-0.704,-0.6575,0.0,0.0,0.0,-0.7313,0.0,0.0,0.0,0.0,0.0,0.0,-1.3262,0.0,-1.5963,-1.6893,-1.7397,0.0,-1.6781,-1.6335,-1.4942,-1.4818,-1.4941,-1.5054,-1.5404,-1.5586,-1.526,-1.4225,-1.3431,-1.3212,-1.2346,-1.1769,-1.1769,-1.1649,-1.1812,-1.2389,-1.3459,-1.4358,-1.4973,-1.6362,-1.73,-1.7693,-1.8956,-1.9726,-1.9926,-2.1587,-2.2352,-2.224,-2.3446,-2.3714,-2.3221,-2.3468,-2.3268,-2.2695,-2.2695,-2.2537,-2.231,-2.231,-2.231,-2.231,-2.231,-2.231,-2.2378,-2.297,-2.3274,-2.3376,0.0,-0.7315,-0.767,-0.7964,-0.8311,-0.87,-0.9178,-0.9365,-0.9411,-0.9317,-0.939,-0.9574,-0.9857,-0.892,-0.8091,-0.7744,-0.6947,-0.6133,-0.5386,-0.5302,-0.4962,-0.4337,-0.4856,-0.5187,-0.5315,-0.5847,-0.6308,-0.6594,-0.6521,-0.6328,-0.5939,-0.5151,-0.4446,-0.3764,-0.3166,0.0,0.0,0.0,-0.4534,-0.5869,-0.6139,0.0,-0.8423,-0.8637,-0.8828,-0.896,-0.8776,-0.8455,-0.8015,-0.7166,-0.66,0.0,-0.6211,-0.6583,-0.7073,0.0,-0.7607,-0.8234,0.0,0.0,0.0,-1.2155,-1.3802,0.0,0.0,-1.704,-1.7705,-1.7427,-1.7271,-1.6852,-1.5783,-1.5875,-1.6019,-1.5724,-1.6163,-1.6278,-1.5733,-1.4939,-1.4073,-1.3195,-1.2647,-1.2222,-1.1939,-1.1549,-1.1532,-1.2079,-1.3597,-1.4767,-1.5414,-1.6574,-1.7577,-1.8426,-1.9102,-1.9704,-2.0235,-2.157,-2.2336,-2.2517,-2.3642,-2.4016,-2.3692,-2.3867,-2.3662,-2.3189,-2.3021,-2.2789,-2.2482,-2.2349,-2.231,-2.231,-2.231,-2.231,-2.2353,-2.2725,-2.2852,-2.2902,-0.7988,0.0,-0.8377,-0.8855,-0.866,-0.8706,-0.9486,-0.9451,-0.9313,-0.9304,-0.935,-0.9287,-0.9112,-0.8191,-0.7521,-0.7355,-0.6393,-0.5674,-0.5436,-0.4949,-0.4493,-0.4122,-0.4476,-0.4745,-0.4877,-0.5317,-0.5916,-0.6722,-0.632,-0.6157,-0.6197,-0.5369,-0.4566,-0.3792,-0.3378,0.0,0.0,0.0,0.0,-0.6347,0.0,-0.7594,-0.839,-0.838,-0.8555,-0.8713,-0.8459,-0.8096,-0.7687,-0.7095,-0.6455,-0.5863,-0.5803,-0.6071,0.0,0.0,0.0,0.0,0.0,0.0,0.0,0.0,0.0,-1.5347,0.0,0.0,0.0,-1.7811,-1.7614,-1.7303,-1.6853,-1.715,0.0,-1.6731,0.0,0.0,0.0,-1.541,0.0,-1.335,-1.3081,-1.2869,-1.24,-1.1714,-1.1506,-1.207,-1.3618,-1.4963,-1.586,-1.6873,-1.7954,-1.9158,-1.9444,-1.9986,-2.0854,-2.182,-2.256,-2.3078,-2.387,-2.4247,-2.4199,-2.4199,-2.4025,-2.3692,-2.3346,-2.3021,-2.2678,-2.2407,-2.231,-2.231,-2.231,-2.231,-2.2327,-2.2471,-2.2606,-2.2818,-0.8184,-0.8517,0.0,-0.8645,-0.8414,-0.8285,-0.8465,-0.8416,-0.8236,-0.7877,-0.8442,-0.8476,-0.7418,0.0,0.0,0.0,0.0,-0.5304,-0.5142,-0.4983,-0.4557,-0.3885,-0.449,-0.4638,-0.413,-0.5587,-0.625,-0.6001,-0.6662,-0.6356,-0.5167,-0.5047,-0.4481,-0.3549,-0.3477,0.0,0.0,0.0,-0.5935,0.0,-0.693,-0.7487,0.0,-0.837,-0.8177,-0.7883,-0.8121,-0.7494,-0.6562,0.0,-0.6427,-0.5685,0.0,-0.6088,-0.6896,-0.6676,0.0,0.0,0.0,0.0,0.0,0.0,-1.3204,-1.3914,-1.6554,0.0,-1.732,-1.8361,0.0,-1.8504,-1.787,0.0,0.0,-1.7295,-1.7266,-1.6701,-1.5056,-1.4789,-1.4538,-1.3794,-1.3253,-1.2899,-1.2808,-1.2797,-1.2861,-1.3112,-1.4191,-1.5159,-1.5849,-1.7354,-1.8485,-1.9182,-2.0298,-2.0938,-2.1054,-2.256,-2.3309,-2.327,-2.408,-2.4375,-2.4199,-2.4199,-2.4025,-2.3692,-2.3346,-2.3021,-2.2678,-2.2407,-2.231,-2.231,-2.231,-2.231,-2.2386,-2.3029,-2.368,-2.4277,-0.795,-0.806,0.0,-0.8097,-0.8274,-0.8285,-0.7846,-0.7518,-0.7314,-0.7271,-0.754,-0.7478,0.0,0.0,0.0,0.0,0.0,-0.4837,0.0,0.0,-0.437,-0.3841,-0.4596,-0.4794,-0.435,-0.532,-0.5837,-0.5917,-0.6238,-0.6107,-0.5513,-0.532,-0.4789,-0.4026,-0.3907,0.0,-0.4544,0.0,-0.6367,0.0,0.0,-0.7456,0.0,-0.7716,-0.7453,-0.7481,-0.8335,-0.8259,-0.775,0.0,-0.7119,0.0,0.0,0.0,0.0,-0.7319,0.0,0.0,0.0,0.0,0.0,0.0,0.0,0.0,-1.6411,-1.7239,-1.7835,-1.8637,0.0,0.0,0.0,0.0,0.0,0.0,-1.751,-1.6792,0.0,0.0,-1.4869,-1.3909,-1.3595,0.0,-1.356,-1.3884,-1.3927,-1.3735,-1.5346,-1.642,-1.658,-1.8738,-2.0126,-2.0418,-2.1424,-2.1968,-2.1968,-2.3106,-2.3553,-2.3309,-2.4129,-2.4383,-2.4199,-2.4199,-2.4122,-2.3967,-2.3414,-2.3117,-2.2947,-2.248,-2.231,-2.2353,-2.2775,-2.2691,-2.2403,-2.3131,-2.3596,-2.3968,-0.7897,0.0,0.0,0.0,-0.8382,-0.84,-0.761,-0.7142,-0.6836,-0.6722,-0.6894,0.0,-0.6244,-0.6006,0.0,0.0,-0.4976,-0.4551,0.0,0.0,-0.4308,-0.3965,-0.4717,-0.4972,-0.4605,-0.5052,-0.5432,-0.5734,-0.5734,-0.5688,-0.5595,-0.5336,-0.4889,-0.4268,0.0,-0.3975,-0.4387,0.0,-0.637,-0.7109,-0.7109,-0.7399,-0.7744,-0.73,-0.7112,-0.7243,-0.8427,-0.8676,-0.8434,-0.8232,-0.7807,0.0,-0.7877,-0.7479,-0.7017,0.0,0.0,0.0,-1.007,0.0,0.0,0.0,0.0,-1.5057,-1.6409,-1.7068,-1.7657,-1.8441,-1.8586,0.0,0.0,0.0,-1.8281,-1.774,0.0,-1.6883,-1.5758,-1.5854,-1.5636,-1.4557,-1.442,0.0,0.0,-1.4906,-1.4859,-1.4574,-1.6373,-1.7515,-1.7624,-1.9866,-2.133,-2.1703,-2.2566,-2.3036,-2.3036,-2.3819,-2.4059,-2.3769,-2.4317,-2.4478,-2.4284,-2.4237,-2.4199,-2.417,-2.3491,-2.3189,-2.315,-2.2553,-2.231,-2.2378,-2.3105,-2.3071,-2.2691,-2.3427,-2.3689,-2.3875,-0.8183,-0.8183,0.0,0.0,0.0,-0.8613,-0.7813,-0.7506,-0.7021,0.0,0.0,0.0,0.0,0.0,0.0,0.0,0.0,-0.4548,-0.442,0.0,-0.4537,-0.4375,-0.4976,-0.5088,0.0,-0.5052,-0.5312,-0.5312,-0.5312,-0.5158,-0.4833,-0.4836,-0.4526,-0.3978,-0.3254,-0.367,-0.4878,-0.4865,-0.5952,-0.7671,-0.7671,-0.7212,-0.6639,0.0,-0.7446,-0.7216,-0.8103,0.0,0.0,-0.8228,-0.8283,-0.8127,-0.7874,-0.7956,0.0,0.0,0.0,0.0,0.0,0.0,0.0,-1.3486,-1.4097,-1.4682,-1.6775,-1.6513,-1.6204,-1.7626,-1.6759,-1.604,-1.6997,-1.7277,-1.7191,-1.663,-1.6983,0.0,0.0,-1.6448,-1.6803,-1.6128,-1.6037,-1.61,0.0,-1.5805,-1.562,-1.5903,-1.7039,-1.8074,-1.8894,-2.0251,-2.1537,-2.271,-2.3657,-2.4147,-2.4147,-2.4887,-2.5145,-2.4939,-2.4836,-2.4695,-2.4478,-2.4284,-2.4199,-2.417,-2.3491,-2.3189,-2.315,-2.2553,-2.231,-2.2378,-2.3105,-2.3384,-2.3444,-2.4201,-2.4472,-2.4551,0.0,0.0,0.0,0.0,0.0,0.0,0.0,-0.7152,0.0,0.0,-0.6294,0.0,0.0,-0.5585,-0.5271,0.0,0.0,-0.4115,-0.3882,-0.4242,0.0,-0.4279,-0.5098,-0.5402,0.0,-0.5214,-0.5312,-0.5312,-0.5312,-0.5227,-0.513,-0.4812,-0.443,-0.398,0.0,-0.3351,0.0,0.0,0.0,0.0,0.0,-0.4465,-0.3672,0.0,-0.7125,-0.717,-0.7794,-0.8243,-0.8551,-0.8635,-0.8531,-0.8388,-0.8809,-0.8663,-0.8451,-0.9019,-0.9259,-0.9549,-1.055,-1.1058,-1.1756,-1.3623,-1.4362,-1.491,-1.5987,-1.5958,-1.5928,-1.6814,-1.6241,-1.5948,-1.7036,-1.6988,-1.6717,-1.6475,-1.6599,-1.6606,0.0,-1.7866,-1.9089,-1.8856,-1.8242,-1.7926,0.0,-1.7103,-1.6968,-1.7907,-1.8927,-1.9826,-2.0599,-2.2602,-2.3737,-2.3786,-2.4617,-2.5036,-2.4987,-2.524,-2.5236,-2.5001,-2.486,-2.47,-2.4495,-2.4284,-2.4074,-2.3837,-2.3392,-2.3061,-2.2848,-2.2453,-2.231,-2.2429,-2.3646,-2.3816,-2.3545,-2.478,-2.5228,-2.5329,-0.8811,0.0,0.0,0.0,0.0,0.0,0.0,0.0,0.0,0.0,-0.6373,0.0,-0.5913,0.0,-0.5052,0.0,-0.4153,-0.3787,-0.3299,-0.3886,0.0,-0.4279,-0.5189,-0.5676,0.0,0.0,0.0,-0.5434,-0.53,-0.5184,-0.5052,-0.4602,-0.4188,-0.3816,0.0,-0.3103,-0.2738,-0.3206,-0.4016,0.0,0.0,-0.3516,0.0,0.0,-0.6128,-0.6843,-0.7512,-0.8125,-0.8579,-0.8632,-0.8739,-0.8926,-0.9375,-0.9319,-0.9177,-0.9706,-0.9863,-1.0076,-1.108,-1.1569,-1.2186,-1.3716,-1.4349,-1.4765,-1.5272,-1.5107,-1.5135,-1.6206,-1.5369,-1.4965,-1.6657,-1.6405,-1.5982,-1.6124,-1.6522,-1.7002,0.0,-1.9306,-2.0564,-2.0895,-1.9986,-1.9162,-1.8782,-1.8287,-1.8248,-1.8812,-2.0159,-2.1294,-2.2135,-2.3852,-2.481,-2.4797,-2.5253,-2.5478,-2.5441,-2.5391,-2.5236,-2.5001,-2.486,-2.47,-2.4495,-2.4284,-2.4074,-2.3846,-2.3401,-2.3069,-2.2848,-2.2453,-2.231,-2.2454,-2.3909,-2.4227,-2.3959,-2.5448,-2.5989,-2.6065,-0.8878,0.0,0.0,0.0,-0.9461,0.0,0.0,0.0,-0.8067,0.0,-0.6781,-0.6362,-0.5975,-0.5554,-0.496,-0.4091,-0.3993,-0.3632,-0.2747,-0.3485,0.0,0.0,-0.5178,-0.5797,-0.6139,0.0,0.0,0.0,0.0,-0.4895,-0.4619,-0.4156,-0.3802,-0.3459,-0.3204,0.0,-0.2586,-0.1411,-0.0744,-0.0678,-0.2846,-0.4281,-0.504,-0.4159,-0.4786,-0.6284,-0.73,-0.7729,-0.789,-0.8303,-0.8955,-0.9602,-0.9617,-0.9951,-1.0283,-1.0283,-1.0283,-1.0505,-1.1516,-1.1811,-1.2144,-1.3685,-1.4096,-1.426,-1.4784,-1.4053,-1.3867,-1.5843,-1.4251,-1.3303,-1.5809,-1.5524,-1.509,-1.5643,-1.663,-1.8037,-1.9978,-2.0573,-2.1193,-2.2192,-2.1109,-1.9865,-1.8865,-1.9286,-1.9385,-1.8815,-2.0761,-2.2408,-2.3403,-2.4064,-2.4823,-2.5674,-2.558,-2.5508,-2.5503,-2.5369,-2.5214,-2.5001,-2.486,-2.47,-2.4512,-2.4303,-2.417,-2.4122,-2.3468,-2.3165,-2.3102,-2.2535,-2.231,-2.2454,-2.3866,-2.4506,-2.4743,-2.6158,-2.6691,-2.6691,-0.9775,-0.9609,-0.9602,0.0,-1.0476,-1.0173,0.0,0.0,0.0,0.0,-0.7326,-0.6721,-0.6393,-0.5734,-0.496,-0.4091,-0.3993,0.0,0.0,0.0,0.0,-0.3566,-0.4224,-0.4854,-0.5369,-0.5043,-0.5254,-0.6078,0.0,-0.4629,-0.495,-0.3958,-0.3391,-0.3174,0.0,-0.253,-0.227,-0.1308,-0.3395,-0.6981,-0.2719,-0.3451,-0.7169,0.0,-0.7693,-0.6928,-0.7065,-0.7583,-0.8295,-0.8702,-0.9194,-0.9651,-1.001,-1.019,-1.0283,-1.0283,-1.0283,-1.0505,-1.1516,-1.1811,-1.2064,-1.315,-1.3976,-1.456,-1.4709,-1.4817,-1.5046,-1.5614,-1.4891,-1.4517,-1.566,-1.5674,-1.5649,-1.6158,-1.735,-1.8811,-2.041,-2.1076,-2.1634,-2.2245,-2.168,-2.1123,-2.0852,-2.0249,-2.0268,-2.1133,-2.2329,-2.3369,-2.4179,-2.5447,-2.6022,-2.5713,-2.5671,-2.5601,-2.5503,-2.5471,-2.5372,-2.5214,-2.4945,-2.4775,-2.4716,-2.4357,-2.3926,-2.3446,-2.3268,-2.2958,-2.2508,-2.2349,-2.231,-2.2403,-2.3317,-2.4348,-2.5431,-2.6353,-2.6691,-2.6691,-0.9897,0.0,0.0,-1.0588,0.0,0.0,-0.9051,-0.926,0.0,-0.8448,-0.7423,0.0,-0.6761,-0.5877,-0.496,-0.4091,-0.3993,0.0,-0.2747,0.0,0.0,-0.3513,-0.3958,-0.4488,-0.5088,-0.4896,0.0,-0.5645,-0.4602,-0.4226,-0.4417,-0.3485,-0.2989,-0.2905,0.0,-0.2546,-0.2605,-0.2673,-0.4914,-0.8223,-0.5442,-0.628,0.0,-0.9369,-0.8792,-0.7843,-0.7396,-0.7622,-0.8159,-0.8589,-0.9009,-0.9398,-0.9863,-1.0127,-1.0283,-1.0283,-1.0283,-1.0505,-1.1516,-1.1811,-1.206,-1.3235,-1.3916,-1.4384,-1.458,-1.5079,-1.5639,-1.6102,-1.5858,-1.5809,-1.6613,-1.6546,-1.6626,0.0,-1.8362,-1.9415,-2.044,-2.1156,0.0,-2.1966,-2.1756,-2.159,-2.159,-2.0747,-2.0549,-2.1334,-2.2369,-2.3399,-2.4407,-2.5492,-2.596,-2.5669,-2.5633,-2.558,-2.5503,-2.5447,-2.5334,-2.5172,-2.4923,-2.4751,-2.4654,-2.4339,-2.3917,-2.3414,-2.3259,-2.2915,-2.2463,-2.2349,-2.231,-2.2378,-2.3105,-2.4298,-2.5659,-2.6065,-2.642,-2.6691,-0.9886,0.0,0.0,0.0,0.0,0.0,0.0,-0.9238,0.0,-0.8358,0.0,-0.659,-0.6839,-0.5936,-0.496,-0.4091,-0.3993,-0.3632,-0.2747,-0.2805,-0.3121,-0.3638,-0.3929,-0.4331,-0.4924,-0.5047,-0.5042,-0.494,-0.4248,-0.3828,-0.3644,-0.3018,0.0,0.0,0.0,0.0,0.0,-0.5073,-0.6269,-0.73,-0.9321,-1.0387,-1.0672,-0.9419,-0.8871,-0.8651,-0.8028,-0.7827,-0.7914,-0.8271,-0.873,-0.9224,-0.95,-0.9932,-1.0283,-1.0283,-1.0356,-1.0582,-1.1547,-1.1872,-1.2289,-1.3582,-1.3993,-1.4149,-1.4501,-1.5133,-1.5915,-1.6884,-1.6865,-1.6977,-1.7931,-1.7793,-1.7831,0.0,0.0,-1.9975,-2.0356,0.0,0.0,0.0,-2.156,0.0,-2.1452,-2.0918,-2.0582,-2.0554,-2.1805,-2.304,-2.4157,-2.4907,-2.5385,-2.5563,-2.5533,-2.5508,-2.5503,-2.5377,-2.5214,-2.5001,-2.486,-2.47,-2.4495,-2.4257,-2.3946,-2.3619,-2.3268,-2.2947,-2.2634,-2.2415,-2.231,-2.2378,-2.3105,-2.4179,-2.5346,-2.5541,-2.6015,-2.6564,-1.1265,0.0,0.0,0.0,0.0,-1.0491,-0.8674,-0.9078,-0.9083,-0.7594,-0.6841,-0.6231,-0.575,-0.5461,-0.496,-0.4091,-0.3993,0.0,0.0,0.0,0.0,-0.2885,-0.3148,-0.3584,-0.4163,-0.3979,-0.4345,-0.5247,-0.4086,-0.3669,-0.3907,-0.3187,-0.2801,0.0,0.0,0.0,-0.5675,-0.8397,0.0,-0.9976,-1.0926,-1.064,-0.9677,-0.9709,-0.9143,-0.8393,-0.8381,-0.8547,-0.874,-0.8467,-0.9126,-1.001,-0.9685,-0.9932,-1.0283,-1.0283,-1.0572,-1.1019,-1.1627,-1.2307,-1.3051,-1.3716,-1.4406,-1.4914,-1.4975,-1.5779,-1.6554,-1.6884,-1.7312,-1.7753,-1.8046,-1.8366,-1.8823,-1.9382,-2.0339,-2.0977,-2.0901,0.0,0.0,0.0,-2.1399,-2.1329,-2.0608,-2.0767,-2.0894,-2.0917,-2.2504,-2.3401,-2.3255,-2.4913,-2.5696,-2.5357,-2.5499,-2.5558,-2.5503,-2.5424,-2.5254,-2.5001,-2.486,-2.47,-2.4486,-2.401,-2.3588,-2.3268,-2.2939,-2.2634,-2.2369,-2.233,-2.231,-2.2378,-2.3105,-2.3553,-2.3926,-2.5152,-2.5685,-2.5888,0.0,0.0,0.0,0.0,0.0,0.0,0.0,-0.8207,-0.7918,-0.7569,-0.6718,-0.6099,-0.5979,-0.541,-0.4769,-0.4046,-0.3848,-0.3447,-0.2742,-0.2714,-0.2714,-0.2714,-0.2893,-0.3122,-0.3417,-0.3428,-0.3881,-0.4719,-0.413,-0.4081,-0.457,-0.4142,-0.365,-0.3175,0.0,-0.6126,0.0,0.0,-1.0792,-1.1461,-1.1678,-1.1145,-1.0153,-0.9431,-0.8297,-0.7145,-0.784,-0.8349,-0.8652,-0.8479,-0.8931,-0.9619,-0.9592,-0.9932,-1.0283,-1.0283,-1.0649,-1.1132,-1.1658,-1.2437,-1.3276,-1.4031,-1.4658,-1.5165,-1.5418,-1.6106,-1.6836,-1.7232,-1.7844,-1.8446,-1.8852,-1.8893,-1.908,-1.9558,-2.0116,-2.0499,-2.0638,-2.1099,-2.1318,0.0,0.0,0.0,-2.034,-2.033,-2.0265,-2.0185,-2.149,-2.2343,-2.2416,-2.4179,-2.5183,-2.5205,-2.5387,-2.5478,-2.5444,-2.5278,-2.5126,-2.501,-2.4761,-2.4591,-2.4469,-2.3952,-2.3522,-2.3165,-2.2848,-2.2537,-2.231,-2.231,-2.231,-2.2353,-2.2691,-2.3063,-2.3486,-2.4196,-2.494,-2.5719,0.0,-1.0071,0.0,0.0,-0.9346,-0.8881,-0.8087,-0.7037,-0.6541,-0.7114,-0.6262,-0.5696,-0.5928,-0.5181,-0.4417,-0.3929,-0.3593,-0.3221,-0.2735,-0.2714,-0.2714,-0.2714,-0.2827,-0.2908,-0.2908,-0.3127,-0.3545,-0.4111,-0.4192,-0.4468,-0.5013,-0.4969,-0.4626,-0.4162,-0.6138,0.0,0.0,-1.0403,-1.1319,-1.2312,-1.2062,-1.1464,-1.0519,-0.8516,-0.7194,-0.6532,-0.7395,-0.7949,-0.8252,-0.8381,-0.8716,-0.918,-0.9383,-0.9858,-1.0322,-1.0428,-1.0802,-1.1276,-1.1805,-1.2648,-1.3584,-1.4328,-1.4883,-1.5352,-1.5704,-1.6278,-1.6898,-1.7555,-1.8358,-1.9024,-1.9405,-1.9273,-1.9207,-1.9646,-1.9809,-1.9976,-2.0147,-2.0254,-2.0416,0.0,0.0,0.0,-2.0071,-1.9916,-1.9741,-1.9553,-2.0303,-2.1087,-2.1863,-2.3443,-2.472,-2.556,-2.5654,-2.5739,-2.5888,-2.5299,-2.4965,-2.4888,-2.4636,-2.4434,-2.4311,-2.3821,-2.3414,-2.3069,-2.2764,-2.2509,-2.231,-2.231,-2.231,-2.231,-2.231,-2.2657,-2.3198,-2.3511,-2.4272,-2.5287,0.0,0.0,0.0,0.0,0.0,-0.7581,-0.6402,-0.5824,-0.5443,-0.5281,-0.4838,-0.4472,-0.4248,-0.4131,-0.3938,-0.359,-0.3303,-0.3015,-0.2704,-0.2714,-0.2714,-0.2714,-0.2827,-0.2908,-0.2908,-0.3063,-0.3338,-0.3846,-0.4088,-0.4355,-0.4668,-0.4929,-0.5407,-0.5995,-0.699,-0.8787,-1.1051,-1.1682,-1.224,-1.2713,-1.2321,-1.125,-0.9573,-0.6493,-0.6465,-0.8049,-0.7782,-0.7725,-0.7822,-0.8242,-0.8911,-0.9476,-0.917,-0.9624,-1.0395,-1.0797,-1.1319,-1.1847,-1.2324,-1.3395,-1.4392,-1.447,-1.5134,-1.5741,-1.5799,-1.6278,-1.6898,-1.7555,-1.8725,-1.9428,-1.8897,-1.9243,-1.9646,-1.9682,-2.0213,-2.04,-1.9837,-2.0054,-2.0185,-1.9846,0.0,0.0,-1.9317,-1.9865,-2.0169,-1.9976,-1.9989,-2.0564,-2.1832,-2.332,-2.5078,-2.7122,-2.6795,-2.6869,-2.7488,-2.5828,-2.4845,-2.4543,-2.4519,-2.4257,-2.3768,-2.3414,-2.3061,-2.2721,-2.2472,-2.233,-2.231,-2.231,-2.231,-2.231,-2.231,-2.2353,-2.2564,-2.3892,-2.4044,-2.39,0.0,0.0,-0.8425,-0.7306,-0.7137,-0.6807,-0.5796,-0.5223,-0.4777,-0.4387,-0.4369,-0.4409,-0.4479,-0.4329,-0.411,-0.3819,-0.351,-0.3161,-0.2735,-0.2714,-0.2714,-0.2714,-0.2739,-0.2773,-0.2773,-0.2918,-0.3361,-0.4163,-0.4567,-0.5275,-0.6303,-0.661,-0.725,-0.8088,-0.842,-0.9827,-1.1932,-1.212,-1.2434,-1.281,-1.3063,-1.1835,-0.9723,-0.8424,-0.6982,-0.5842,-0.7222,-0.77,-0.7725,-0.793,-0.8555,-0.9237,-0.9315,-0.9795,-1.039,-1.0867,-1.1394,-1.1951,-1.266,-1.3677,-1.4564,-1.4783,-1.5322,-1.5799,-1.5799,-1.5979,-1.6346,-1.6965,-1.7839,-1.8545,-1.868,-1.8919,-1.9226,-1.9622,-1.9914,-2.0098,-2.0065,-1.9657,0.0,-1.9782,0.0,-1.8936,-1.9547,-2.0296,-2.0678,-2.0599,-2.122,-2.2026,-2.3064,-2.4033,-2.5345,-2.7057,-2.6174,-2.5993,-2.6667,-2.5362,-2.4526,-2.4192,-2.408,-2.3792,-2.3392,-2.3036,-2.2747,-2.2436,-2.2349,-2.231,-2.2344,-2.2784,-2.2708,-2.2353,-2.2792,-2.2691,-2.2378,-2.2961,-2.3266,-2.352,-0.7678,-0.7544,-0.7357,-0.6669,-0.6384,-0.5968,-0.5191,-0.4761,-0.4347,-0.3839,-0.3984,-0.4202,-0.4406,-0.4188,-0.3923,-0.3695,-0.3423,-0.3133,-0.2828,-0.2851,-0.2874,-0.2874,-0.2874,0.0,-0.2714,-0.2786,-0.3327,-0.4292,-0.4707,-0.5618,-0.706,-0.7542,-0.8244,-0.9121,-0.9243,-1.0322,-1.2095,-1.224,-1.2482,-1.2825,-1.3124,-1.2012,-1.007,-0.8911,-0.7234,-0.5715,-0.7177,-0.7783,-0.789,-0.7901,-0.8325,-0.8896,-0.9312,-0.9829,-1.0428,-1.1057,-1.151,-1.1976,-1.2904,-1.3815,-1.4564,-1.4845,-1.5359,-1.5799,-1.5799,-1.5948,-1.6196,-1.6614,-1.7234,-1.7832,-1.8328,-1.8575,-1.8954,-1.9733,-1.9782,-1.9846,-2.0246,-1.9227,-1.8806,-1.9901,-1.9075,-1.8866,-2.0124,-2.089,-2.1358,-2.148,-2.2553,-2.3317,-2.3519,-2.4388,-2.5495,-2.6898,-2.5867,-2.5622,-2.6289,-2.4996,-2.4201,-2.3899,-2.3669,-2.3369,-2.3045,-2.2721,-2.2482,-2.231,-2.231,-2.2429,-2.2657,-2.2953,-2.3029,-2.2961,-2.3046,-2.3021,-2.2953,-2.2953,-2.3139,-2.3486,-0.7046,-0.6986,-0.6842,-0.5723,-0.5292,-0.4926,-0.4398,-0.4317,-0.4113,-0.3566,-0.3509,-0.3513,-0.3519,-0.3278,-0.3071,-0.2912,-0.2777,-0.2825,-0.3082,-0.3228,-0.3292,-0.3292,-0.3292,-0.3099,-0.2714,-0.2716,-0.3144,-0.3996,-0.4287,-0.5017,-0.6233,-0.7036,-0.7868,-0.8718,-0.9129,-1.0062,-1.1356,-1.2025,-1.2482,-1.2757,-1.2152,-1.1517,-1.0457,-0.6544,-0.6846,-0.9183,-0.8104,-0.7952,-0.8301,-0.8373,-0.8411,-0.8489,-0.8882,-0.96,-1.051,-1.1516,-1.1774,-1.1993,-1.2943,-1.3835,-1.4501,-1.4501,-1.5165,-1.5799,-1.5799,-1.6271,-1.6704,-1.6712,-1.7234,-1.769,-1.7705,-1.8261,-1.9042,-2.0104,-1.9972,-1.9846,-2.0246,-1.8791,-1.8359,-2.0076,-1.9457,-1.9448,-2.0862,-2.1649,-2.2262,-2.266,-2.3793,-2.3925,-2.2669,-2.4004,-2.5477,-2.6952,-2.6333,-2.6312,-2.6979,-2.4995,-2.3899,-2.3692,-2.3369,-2.3021,-2.2695,-2.2426,-2.231,-2.231,-2.231,-2.2716,-2.3325,-2.2615,-2.3164,-2.4345,-2.2885,-2.3198,-2.4481,-2.4481,-2.401,-2.3706,-0.6072,-0.6087,-0.6035,-0.5348,-0.4849,-0.4491,-0.4329,-0.399,-0.3689,-0.3527,-0.3506,-0.3506,-0.3506,-0.3618,-0.3633,-0.346,-0.3411,-0.3292,-0.3108,-0.3141,-0.3235,-0.3431,-0.3438,-0.3319,-0.313,-0.3432,-0.373,-0.3993,-0.4587,-0.5673,-0.7165,-0.7806,-0.8348,-0.883,-0.8962,-0.9486,-1.0283,-1.05,-1.1059,-1.1767,-1.1532,-1.1117,-1.0511,-0.8934,-0.8717,-0.9176,-0.8483,-0.8262,-0.8254,-0.8,-0.8299,-0.8751,-0.8889,-0.9586,-1.0625,-1.189,-1.2288,-1.2555,-1.3756,-1.4278,-1.4627,-1.5232,-1.558,-1.5799,-1.5799,-1.5963,-1.6084,-1.6084,-1.6248,-1.6667,-1.7525,-1.7861,-1.8429,-1.9693,-1.9775,-1.9747,-1.9874,-1.8647,-1.8149,-1.9339,-1.895,-1.9177,-2.077,-2.1925,-2.285,-2.3465,-2.5055,-2.5591,-2.4629,-2.562,-2.6381,-2.672,-2.6116,-2.5727,-2.5573,-2.4401,-2.3521,-2.3021,-2.2914,-2.2704,-2.2426,-2.2349,-2.231,-2.231,-2.231,-2.2437,-2.2716,-2.3469,-2.3477,-2.3054,-2.3579,-2.3773,-2.374,-2.374,-2.3596,-2.3494,-0.5421,-0.5452,-0.5449,-0.5156,-0.4829,-0.4531,-0.4329,-0.401,-0.3727,-0.3527,-0.3506,-0.3506,-0.3506,-0.3694,-0.3753,-0.3643,-0.3674,-0.3618,-0.3446,-0.3475,-0.3519,-0.357,-0.3684,-0.3645,-0.3373,-0.378,-0.4058,-0.4215,-0.4963,-0.6034,-0.7414,-0.7689,-0.8164,-0.8715,-0.8698,-0.8943,-0.9436,-0.9689,-1.0251,-1.0949,-1.0923,-1.0763,-1.0478,-1.0053,-0.9627,-0.9203,-0.8684,-0.8488,-0.8416,-0.8062,-0.8358,-0.8929,-0.9286,-0.9952,-1.0816,-1.1878,-1.2435,-1.2951,-1.3999,-1.4501,-1.4845,-1.5389,-1.5675,-1.5799,-1.5799,-1.5799,-1.5799,-1.5799,-1.5799,-1.6203,-1.7483,-1.769,-1.8182,-1.969,-1.9607,-1.9386,-1.9553,-1.8654,-1.8377,-1.9499,-1.9604,-2.0222,-2.1806,-2.2556,-2.3142,-2.3606,-2.5043,-2.5586,-2.4927,-2.6232,-2.6808,-2.639,-2.5588,-2.5168,-2.5124,-2.3922,-2.3393,-2.357,-2.3443,-2.3292,-2.3122,-2.2843,-2.2868,-2.3105,-2.2835,-2.2868,-2.3181,-2.3807,-2.3866,-2.3562,-2.3638,-2.39,-2.4162,-2.3596,-2.3393,-2.3435,-0.5108,-0.5108,-0.5108,-0.5108,-0.5088,-0.4908,-0.441,-0.4289,-0.4089,-0.3587,-0.3506,-0.3506,-0.3506,-0.3506,-0.3509,-0.3522,-0.3643,-0.3812,-0.3994,-0.412,-0.4034,-0.374,-0.4028,-0.4018,-0.3548,-0.3901,-0.428,-0.4634,-0.5345,-0.6137,-0.704,-0.6946,-0.7414,-0.8347,-0.8285,-0.8449,-0.8811,-0.9468,-0.9989,-1.0378,-1.0378,-1.0378,-1.0353,-1.0021,-0.9712,-0.9348,-0.8767,-0.8673,-0.8789,-0.8444,-0.8551,-0.8983,-0.9855,-1.0546,-1.1134,-1.1602,-1.2384,-1.3215,-1.3782,-1.4501,-1.5066,-1.5134,-1.5485,-1.5799,-1.5799,-1.5799,-1.5799,-1.5799,-1.5836,-1.6226,-1.7458,-1.7727,-1.8326,-1.9977,-1.9413,-1.8918,-1.9329,-1.885,-1.8975,-2.0342,-2.1148,-2.2127,-2.3487,-2.3356,-2.3233,-2.3324,0.0,-2.4454,-2.4166,-2.6122,-2.6836,-2.5997,-2.4979,-2.4794,-2.5473,-2.3737,-2.356,-2.4948,-2.465,-2.4515,-2.4489,-2.3782,-2.3841,-2.4472,-2.3756,-2.3858,-2.4464,-2.3799,-2.4332,-2.5329,-2.3317,-2.3773,-2.5363,-2.3976,-2.3435,-2.3494,-0.5151,-0.5108,-0.5108,-0.5108,-0.4932,-0.475,-0.4631,-0.4248,-0.3948,-0.3828,-0.3626,-0.3506,-0.3506,-0.3506,-0.36,-0.3867,-0.3907,-0.3946,-0.3998,-0.4036,-0.4017,-0.3925,-0.4192,-0.4242,-0.4035,-0.4657,-0.5055,-0.5119,-0.5315,-0.5815,-0.6643,-0.6612,-0.7055,-0.7876,-0.7856,-0.8119,-0.8595,-0.8915,-0.9419,-1.0021,-1.0021,-1.016,-1.0353,-1.0021,-0.9848,-0.9718,-0.9322,-0.9214,-0.9209,-0.8816,-0.8932,-0.9286,-0.9524,-1.0438,-1.1566,-1.2081,-1.268,-1.3365,-1.4142,-1.4501,-1.4783,-1.5485,-1.5704,-1.5799,-1.5799,-1.5799,-1.5799,-1.5799,-1.6174,-1.6734,-1.754,-1.8134,-1.8766,-1.9675,-1.9619,-1.9404,-1.9285,-1.9214,-1.9467,-2.0238,-2.1086,-2.1916,-2.271,-2.303,-2.3571,-2.4494,-2.5034,-2.5681,-2.6442,-2.7228,-2.702,-2.5657,-2.595,-2.5806,-2.5127,-2.467,-2.45,-2.4628,-2.4537,-2.4515,-2.4506,-2.4337,-2.4345,-2.4498,-2.4337,-2.4354,-2.454,-2.4915,-2.4949,-2.4746,-2.4805,-2.4797,-2.4704,-2.4379,-2.3866,-2.3418,-0.531,-0.519,-0.5108,-0.5108,-0.4991,-0.4809,-0.4551,-0.4268,-0.4031,-0.3907,-0.3668,-0.3545,-0.3668,-0.3566,-0.3644,-0.3968,-0.4119,-0.4136,-0.4002,-0.4119,-0.4048,-0.3778,-0.4175,-0.4368,-0.4298,-0.4969,-0.5312,-0.5312,-0.5312,-0.5613,-0.6217,-0.6275,-0.6674,-0.7344,-0.7603,-0.7203,-0.6407,-0.6522,-0.6995,-0.7798,-0.929,-1.0021,-1.0141,-0.997,-0.9796,-0.9639,-0.9455,-0.9402,-0.9375,-0.9149,-0.931,-0.9639,-0.9639,-1.0358,-1.1249,-1.1556,-1.2659,-1.3901,-1.4374,-1.4783,-1.5195,-1.5675,-1.5799,-1.5799,-1.5799,-1.5799,-1.5888,-1.6151,-1.6465,-1.7003,-1.7999,-1.8463,-1.8919,-1.9577,-1.9428,-1.9238,-1.9294,-1.9641,-2.0152,-2.083,-2.1884,-2.27,-2.301,-2.3151,-2.3555,-2.4427,-2.4867,-2.5645,-2.6967,-2.7207,-2.699,-2.6332,-2.6231,-2.6062,-2.5779,-2.5779,-2.5533,-2.5,-2.5329,-2.5522,-2.5482,-2.5152,-2.5177,-2.5456,-2.4802,-2.4678,-2.5,-2.5067,-2.5059,-2.4974,-2.4704,-2.4754,-2.4864,-2.3642,-2.3269,-2.3313,-0.5563,-0.5349,-0.5171,-0.5171,-0.5132,-0.4952,-0.4491,-0.439,-0.4268,-0.4048,-0.3748,-0.3647,-0.3869,-0.3668,-0.3606,-0.3904,-0.4168,-0.4235,-0.4009,-0.4202,-0.4095,-0.3529,-0.4088,-0.4402,-0.4402,-0.498,-0.5312,-0.5312,-0.5312,-0.5495,-0.5917,-0.6006,-0.6366,-0.6918,-0.705,-0.6147,-0.4421,-0.3637,-0.3865,-0.5004,-0.796,-0.941,-0.9786,-0.9868,-0.9718,-0.9481,-0.9481,-0.9481,-0.9481,-0.9481,-0.9666,-0.9899,-0.9899,-1.0282,-1.0721,-1.0749,-1.2416,-1.4253,-1.4342,-1.5062,-1.5799,-1.5799,-1.5799,-1.5799,-1.5799,-1.5873,-1.6054,-1.6473,-1.6809,-1.7324,-1.8373,-1.8717,-1.9066,-1.9685,-1.9308,-1.9106,-1.9514,-2.0237,-2.0958,-2.1531,-2.2807,-2.3642,-2.3723,-2.3478,-2.3542,-2.4111,-2.4462,-2.5253,-2.6623,-2.6691,-2.6849,-2.721,-2.6269,-2.6065,-2.6683,-2.6691,-2.6387,-2.5778,-2.6395,-2.6691,-2.6674,-2.6057,-2.6116,-2.6623,-2.5363,-2.5177,-2.571,-2.4966,-2.5093,-2.5625,-2.4137,-2.4323,-2.5171,-2.2867,-2.2608,-2.3262,-0.5869,-0.5614,-0.543,-0.543,-0.5253,-0.5069,-0.4991,-0.479,-0.4631,-0.4591,-0.415,-0.3848,-0.389,-0.3668,-0.3526,-0.3569,-0.3868,-0.4042,-0.3998,-0.4039,-0.3884,-0.3519,-0.4088,-0.4402,-0.4402,-0.498,-0.5312,-0.5312,-0.5312,-0.5495,-0.5917,-0.5913,-0.6275,-0.6822,-0.5223,-0.5464,-0.6815,-0.2461,-0.1747,-0.3691,-0.5174,-0.7149,-0.9283,-0.9723,-0.988,-0.9822,-0.9822,-0.9822,-0.9822,-0.9822,-0.9848,-0.9899,-0.9899,-1.0282,-1.0749,-1.1033,-1.2006,-1.3092,-1.3663,-1.479,-1.5799,-1.5799,-1.5799,-1.5799,-1.5799,-1.6196,-1.6435,-1.6017,-1.7251,-1.8291,-1.7906,-1.8785,-1.9697,-2.0135,-2.0127,-2.0116,-2.0308,-2.1204,-2.1791,-2.1614,-2.2594,-2.3415,-2.3824,-2.3815,-2.4212,-2.5246,-2.5395,-2.5803,-2.664,-2.6691,-2.6725,-2.6783,-2.6615,-2.6581,-2.6691,-2.6691,-2.6632,-2.653,-2.664,-2.6691,-2.6691,-2.6581,-2.6581,-2.6683,-2.6454,-2.6412,-2.6463,-2.5735,-2.5862,-2.6378,-2.4898,-2.4481,-2.4611,-2.4194,-2.3786,-2.3376,-0.6082,-0.5881,-0.5708,-0.5708,-0.5609,-0.5429,-0.5146,-0.4986,-0.4874,-0.4726,-0.435,-0.4109,-0.4109,-0.401,-0.3807,-0.3527,-0.3778,-0.3883,-0.3731,-0.3904,-0.3931,-0.3771,-0.4028,-0.4319,-0.4602,-0.49,-0.5236,-0.5613,-0.5404,-0.5408,-0.5613,-0.5362,-0.5422,-0.5653,-0.4439,-0.478,-0.5979,-0.178,-0.0587,-0.183,-0.5362,-0.7872,-0.9548,-0.9805,-0.9899,-0.9899,-0.9899,-0.9899,-0.9899,-0.9899,-0.9899,-0.9899,-0.9899,-1.0075,-1.0329,-1.0677,-1.2027,-1.3572,-1.414,-1.502,-1.5799,-1.5799,-1.6032,-1.6286,-1.6286,-1.6495,-1.6831,-1.7266,-1.779,-1.8358,-1.8969,-1.9615,-2.0166,-2.0624,-2.069,-2.0926,-2.1601,-2.1911,-2.2269,-2.2773,-2.3402,-2.3812,-2.3882,-2.4261,-2.4789,-2.5556,-2.5609,-2.6108,-2.7241,-2.6919,-2.6877,-2.7292,-2.6911,-2.6691,-2.6691,-2.6691,-2.6691,-2.6691,-2.6691,-2.6691,-2.6691,-2.6691,-2.6691,-2.6674,-2.6277,-2.6116,-2.6048,-2.5304,-2.5439,-2.5964,-2.4475,-2.4628,-2.5524,-2.4064,-2.3969,-2.4436,-0.6295,-0.6123,-0.5967,-0.5967,-0.5936,-0.5765,-0.5346,-0.5284,-0.5213,-0.4996,-0.4701,-0.4482,-0.4482,-0.4366,-0.413,-0.3727,-0.3869,-0.394,-0.3812,-0.3974,-0.4046,-0.398,-0.4045,-0.4356,-0.4885,-0.4843,-0.5096,-0.5744,-0.5366,-0.5216,-0.5245,-0.4903,-0.4706,-0.4667,-0.4251,-0.4639,-0.5473,-0.325,-0.1863,-0.1533,-0.5806,-0.8405,-0.9723,-0.9849,-0.9899,-0.9899,-0.9899,-0.9899,-0.9899,-0.9899,-0.9899,-0.9899,-0.9899,-0.9899,-0.997,-1.0378,-1.2121,-1.4032,-1.4681,-1.5174,-1.5514,-1.561,-1.6091,-1.6581,-1.6681,-1.6943,-1.7406,-1.8298,-1.8373,-1.8677,-1.986,-2.0273,-2.0616,-2.1055,-2.115,-2.155,-2.2686,-2.266,-2.2905,-2.3923,-2.4277,-2.4418,-2.4296,-2.4801,-2.5343,-2.5803,-2.5862,-2.6361,-2.7495,-2.7012,-2.6962,-2.7545,-2.7004,-2.6691,-2.6691,-2.6691,-2.6691,-2.6691,-2.6691,-2.6691,-2.6691,-2.6691,-2.6691,-2.6657,-2.5922,-2.5609,-2.5549,-2.4788,-2.4924,-2.5473,-2.4154,-2.4687,-2.5956,-2.4086,-2.4108,-2.4917,-0.6575,-0.636,-0.6177,-0.6177,-0.6016,-0.5887,-0.5845,-0.5845,-0.5826,-0.5808,-0.5365,-0.5049,-0.5049,-0.4593,-0.4289,-0.4248,-0.4248,-0.439,-0.4681,-0.4437,-0.4169,-0.3927,-0.4197,-0.461,-0.5162,-0.4918,-0.4952,-0.5257,-0.4978,-0.4839,-0.484,-0.481,-0.4719,-0.4608,-0.4567,-0.5637,-0.7584,-0.8694,-0.742,-0.4663,-0.5079,-0.681,-0.922,-0.9705,-0.9899,-0.9899,-0.9899,-0.9899,-0.9899,-0.9899,-0.9899,-0.9899,-0.9899,-0.9899,-1.0027,-1.0674,-1.201,-1.3518,-1.4746,-1.484,-1.469,-1.5066,-1.5641,-1.6237,-1.6612,-1.7652,-1.841,-1.7869,-1.9025,-1.9986,-1.9557,-2.028,-2.1086,-2.1491,-2.156,-2.1983,-2.3178,-2.3596,-2.3949,-2.4397,-2.4763,-2.5097,-2.5435,-2.5522,-2.5852,-2.6564,-2.6615,-2.6666,-2.6776,-2.6725,-2.6716,-2.6776,-2.6725,-2.6691,-2.6691,-2.6691,-2.6691,-2.6691,-2.6691,-2.6691,-2.6691,-2.6691,-2.6691,-2.6657,-2.5922,-2.5609,-2.5549,-2.4788,-2.4924,-2.5524,-2.4721,-2.4531,-2.4704,-2.5213,-2.4605,-2.3638,-0.6599,-0.6517,-0.6488,-0.6613,-0.647,-0.6337,-0.6336,-0.6189,-0.6034,-0.5924,-0.5723,-0.5526,-0.5365,-0.517,-0.4903,-0.4584,-0.4542,-0.453,-0.4485,-0.4366,-0.4248,-0.415,-0.4277,-0.4532,-0.4953,-0.4846,-0.5042,-0.5579,-0.5207,-0.51,-0.5175,-0.4914,-0.4615,-0.431,-0.4907,-0.55,-0.6227,-0.8336,-0.7976,-0.6114,-0.7476,-0.8656,-0.961,-0.9818,-0.9899,-0.9899,-0.9899,-0.9899,-0.9899,-0.9899,-0.9899,-0.9899,-0.9899,-0.9899,-1.0116,-1.1189,-1.2108,-1.2969,-1.3863,-1.4311,-1.4686,-1.5523,-1.6218,-1.6928,-1.7758,-1.8343,-1.8755,-1.8912,-1.9363,-1.9871,-2.032,-2.0941,-2.1538,-2.1966,-2.2409,-2.3051,-2.3959,-2.4202,-2.4513,-2.5124,-2.5295,-2.5436,-2.5583,-2.6015,-2.6395,-2.6674,-2.6691,-2.6691,-2.6691,-2.6691,-2.6691,-2.6691,-2.6691,-2.6691,-2.6691,-2.6691,-2.6691,-2.6691,-2.6691,-2.6691,-2.6691,-2.6691,-2.6691,-2.6657,-2.5922,-2.5338,-2.4847,-2.4112,-2.3976,-2.4162,-2.3418,-2.3968,-2.516,-2.4974,-2.5135,-2.5414,-0.6761,-0.6734,-0.6757,-0.6954,-0.6888,-0.6771,-0.6697,-0.6532,-0.6347,-0.6141,-0.6045,-0.5925,-0.5743,-0.5654,-0.5466,-0.5107,-0.5083,-0.4996,-0.4815,-0.4796,-0.4682,-0.443,-0.443,-0.4569,-0.4894,-0.4815,-0.5023,-0.5584,-0.521,-0.5083,-0.5184,-0.4902,-0.465,-0.4455,-0.5169,-0.5218,-0.4878,-0.728,-0.7911,-0.7438,-0.9202,-0.9899,-0.9899,-0.9899,-0.9899,-0.9899,-1.0021,-0.9995,-0.9925,-1.0021,-0.9995,-0.9899,-0.9899,-1.0046,-1.037,-1.1198,-1.1944,-1.2586,-1.2993,-1.3594,-1.4388,-1.5615,-1.6512,-1.7391,-1.845,-1.8859,-1.9136,-1.9592,-1.9828,-2.0122,-2.0847,-2.1446,-2.1936,-2.2245,-2.2725,-2.3384,-2.4348,-2.4515,-2.4847,-2.5837,-2.5955,-2.5955,-2.5955,-2.6395,-2.6691,-2.6691,-2.6691,-2.6691,-2.6691,-2.6691,-2.6691,-2.6691,-2.6691,-2.6691,-2.6691,-2.6691,-2.6691,-2.6691,-2.6691,-2.6691,-2.6691,-2.6691,-2.6691,-2.664,-2.5676,-2.4966,-2.4455,-2.3697,-2.3393,-2.3367,-2.3105,-2.3782,-2.4881,-2.4585,-2.4839,-2.5313,-0.713,-0.7038,-0.697,-0.7178,-0.7202,-0.713,-0.6927,-0.6901,-0.6841,-0.6633,-0.6371,-0.6212,-0.6212,-0.6016,-0.5905,-0.5905,-0.5905,-0.5905,-0.5905,-0.5905,-0.5537,-0.475,-0.471,-0.4829,-0.5088,-0.4849,-0.4829,-0.5108,-0.4829,-0.471,-0.471,-0.471,-0.4854,-0.5107,-0.5377,-0.4926,-0.4068,-0.627,-0.7827,-0.8863,-0.9598,-0.9893,-0.9893,-0.9899,-0.9899,-0.9944,-1.0279,-1.0185,-0.9951,-1.0279,-1.0185,-0.9899,-0.9899,-1.0373,-1.0849,-1.0508,-1.1401,-1.2469,-1.2248,-1.2691,-1.3587,-1.512,-1.6305,-1.7391,-1.8443,-1.9211,-1.9682,-1.9718,-2.0413,-2.0999,-2.0991,-2.1713,-2.231,-2.231,-2.2319,-2.2835,-2.4303,-2.4515,-2.5073,-2.6514,-2.6691,-2.6691,-2.6691,-2.6691,-2.6691,-2.6691,-2.6691,-2.6691,-2.6691,-2.6691,-2.6691,-2.6691,-2.6691,-2.6691,-2.6691,-2.6691,-2.6691,-2.6691,-2.6691,-2.6691,-2.6691,-2.6691,-2.6691,-2.6615,-2.5167,-2.4515,-2.4455,-2.3697,-2.3393,-2.3452,-2.421,-2.4027,-2.3494,-2.4205,-2.3562,-2.2539,-0.7171,-0.7146,-0.7191,-0.7439,-0.7325,-0.7241,-0.7369,-0.723,-0.7031,-0.6834,-0.6744,-0.6636,-0.6494,-0.6266,-0.6112,-0.6112,-0.5985,-0.5905,-0.5905,-0.5905,-0.5789,-0.5555,-0.5358,-0.5291,-0.5373,-0.531,-0.5401,-0.5659,-0.5447,-0.541,-0.5537,-0.5161,-0.5141,-0.5461,-0.5778,-0.5867,-0.5868,-0.7049,-0.7907,-0.8506,-0.9089,-0.9346,-0.9408,-1.0012,-1.0026,-0.9793,-1.0501,-1.0539,-1.0279,-1.0378,-1.0185,-0.9899,-0.9899,-1.0501,-1.1127,-1.0835,-1.159,-1.2547,-1.283,-1.3494,-1.4388,-1.5615,-1.6298,-1.7027,-1.8401,-1.9211,-1.9782,-2.0062,-2.0599,-2.1095,-2.1376,-2.1907,-2.231,-2.231,-2.3164,-2.3807,-2.3731,-2.505,-2.6006,-2.5938,-2.6378,-2.6691,-2.6691,-2.6691,-2.6691,-2.6691,-2.6691,-2.6691,-2.6691,-2.6691,-2.6691,-2.6691,-2.6691,-2.6691,-2.6691,-2.6691,-2.6691,-2.6691,-2.6691,-2.6691,-2.6691,-2.6691,-2.6691,-2.664,-2.5693,-2.4974,-2.4455,-2.3697,-2.3097,-2.2657,-2.2868,-2.3444,-2.415,-2.3833,-2.4095,-2.4611,-0.744,-0.741,-0.7432,-0.7672,-0.7583,-0.7508,-0.7597,-0.747,-0.727,-0.7054,-0.6944,-0.6851,-0.6729,-0.6505,-0.6388,-0.6463,-0.6371,-0.626,-0.6177,-0.6177,-0.6141,-0.6016,-0.5857,-0.5734,-0.5657,-0.5657,-0.5745,-0.5905,-0.5776,-0.5776,-0.5887,-0.5566,-0.5561,-0.5852,-0.604,-0.6301,-0.6643,-0.7306,-0.778,-0.8142,-0.8594,-0.9049,-0.9468,-0.9916,-1.0107,-1.02,-1.0829,-1.0767,-1.0421,-1.0556,-1.0298,-0.9951,-1.0198,-1.0598,-1.0949,-1.0913,-1.1688,-1.2678,-1.312,-1.3869,-1.4749,-1.5734,-1.6275,-1.6944,-1.8383,-1.9147,-1.973,-2.0192,-2.0813,-2.1306,-2.156,-2.1966,-2.231,-2.231,-2.3291,-2.3993,-2.3849,-2.5236,-2.6099,-2.5659,-2.6251,-2.6581,-2.6294,-2.653,-2.6691,-2.6691,-2.615,-2.6074,-2.6666,-2.642,-2.6395,-2.6683,-2.6691,-2.6691,-2.6691,-2.6691,-2.6691,-2.6691,-2.6691,-2.6691,-2.6691,-2.6691,-2.653,-2.6218,-2.549,-2.4737,-2.3993,-2.3266,-2.2708,-2.231,-2.231,-2.2843,-2.357,-2.3131,-2.3714,-2.467,-0.7812,-0.7753,-0.7679,-0.787,-0.7899,-0.7834,-0.7665,-0.7627,-0.7538,-0.7272,-0.707,-0.6951,-0.6901,-0.6757,-0.6723,-0.6884,-0.6917,-0.6834,-0.6651,-0.6633,-0.6511,-0.6254,-0.623,-0.6153,-0.5991,-0.5954,-0.5942,-0.596,-0.596,-0.596,-0.596,-0.5942,-0.6039,-0.623,-0.6212,-0.6354,-0.663,-0.7119,-0.7497,-0.7795,-0.8185,-0.8913,-0.9802,-0.9761,-1.0196,-1.0915,-1.122,-1.0966,-1.0525,-1.0818,-1.0503,-1.0116,-1.0722,-1.0739,-1.0567,-1.0859,-1.1804,-1.283,-1.3246,-1.3941,-1.4766,-1.5654,-1.6331,-1.7095,-1.8395,-1.9099,-1.9675,-2.0291,-2.1062,-2.1612,-2.165,-2.2003,-2.231,-2.231,-2.297,-2.3706,-2.4337,-2.5143,-2.5651,-2.5524,-2.615,-2.6311,-2.5575,-2.6167,-2.6623,-2.6691,-2.5471,-2.5262,-2.6623,-2.6065,-2.6015,-2.6674,-2.6691,-2.6691,-2.6691,-2.6691,-2.6691,-2.6691,-2.6691,-2.6691,-2.6691,-2.6691,-2.6327,-2.5668,-2.4907,-2.4171,-2.3444,-2.2775,-2.2429,-2.2319,-2.2378,-2.2403,-2.2403,-2.2327,-2.2775,-2.3393,-0.7885,-0.787,-0.7848,-0.7885,-0.7899,-0.7885,-0.7834,-0.7834,-0.7753,-0.7538,-0.7484,-0.7314,-0.6934,-0.7006,-0.7015,-0.6917,-0.7038,-0.7048,-0.6851,-0.6841,-0.674,-0.6517,-0.6517,-0.6563,-0.6676,-0.633,-0.623,-0.6454,-0.6454,-0.6454,-0.6436,-0.6183,-0.6218,-0.65,-0.6295,-0.6354,-0.6605,-0.6724,-0.7043,-0.756,-0.8317,-0.8756,-0.9102,-1.0437,-1.0798,-1.0684,-1.1431,-1.1445,-1.1066,-1.0961,-1.0947,-1.098,-1.0913,-1.1157,-1.1468,-1.1265,-1.2117,-1.3168,-1.3576,-1.4318,-1.5219,-1.6247,-1.6878,-1.7451,-1.8277,-1.9336,-2.0344,-2.1164,-2.146,-2.1726,-2.2069,-2.2245,-2.231,-2.231,-2.3393,-2.4133,-2.3689,-2.5262,-2.6023,-2.4864,-2.5389,-2.5549,-2.4797,-2.5406,-2.6082,-2.6657,-2.6387,-2.6353,-2.6674,-2.6547,-2.653,-2.6683,-2.6691,-2.6691,-2.6691,-2.6691,-2.6691,-2.6691,-2.6691,-2.6691,-2.6691,-2.6691,-2.6607,-2.642,-2.5685,-2.4932,-2.4261,-2.4078,-2.3334,-2.2369,-2.2945,-2.3156,-2.3088,-2.2522,-2.2775,-2.3393,-0.7899,-0.7899,-0.7899,-0.7899,-0.7899,-0.7899,-0.7899,-0.7899,-0.787,-0.7753,-0.7665,-0.7506,-0.7266,-0.7223,-0.7162,-0.7054,-0.7254,-0.7286,-0.7054,-0.7038,-0.714,-0.7347,-0.7049,-0.708,-0.7503,-0.6959,-0.6749,-0.6881,-0.6881,-0.6881,-0.6875,-0.6705,-0.6722,-0.6881,-0.664,-0.6619,-0.6746,-0.6651,-0.6872,-0.7363,-0.8041,-0.8708,-0.9395,-1.0498,-1.0994,-1.1172,-1.1635,-1.1586,-1.128,-1.1134,-1.1087,-1.1111,-1.1087,-1.1233,-1.137,-1.1303,-1.2226,-1.3449,-1.4318,-1.5371,-1.6464,-1.7528,-1.8214,-1.8687,-1.8827,-1.9688,-2.0653,-2.1447,-2.1794,-2.2003,-2.2245,-2.231,-2.231,-2.231,-2.3537,-2.4379,-2.3968,-2.5211,-2.5752,-2.4642,-2.4831,-2.4915,-2.4548,-2.4526,-2.4856,-2.5583,-2.5313,-2.5431,-2.6141,-2.6175,-2.6336,-2.6683,-2.6691,-2.6691,-2.6691,-2.6691,-2.6691,-2.6691,-2.6691,-2.6691,-2.6691,-2.6691,-2.6505,-2.615,-2.5778,-2.4983,-2.3968,-2.3968,-2.3308,-2.2353,-2.2725,-2.2877,-2.2868,-2.2843,-2.3071,-2.3393,-0.7992,-0.7963,-0.7927,-0.7927,-0.7906,-0.7899,-0.7899,-0.7899,-0.7899,-0.7899,-0.7753,-0.7642,-0.7597,-0.7401,-0.7287,-0.7318,-0.7515,-0.7538,-0.7287,-0.7369,-0.7645,-0.8181,-0.7775,-0.7812,-0.8401,-0.7769,-0.7353,-0.7202,-0.7202,-0.7202,-0.7202,-0.7202,-0.7187,-0.7146,-0.697,-0.6884,-0.6847,-0.6832,-0.7015,-0.7368,-0.7946,-0.8911,-1.0044,-1.0411,-1.1069,-1.1797,-1.1797,-1.1608,-1.1393,-1.1393,-1.1249,-1.1101,-1.131,-1.1226,-1.1123,-1.1462,-1.2475,-1.376,-1.5028,-1.6401,-1.7728,-1.8715,-1.9554,-2.0044,-1.9838,-2.0279,-2.0953,-2.1602,-2.2032,-2.231,-2.231,-2.231,-2.2353,-2.2479,-2.3503,-2.4413,-2.4636,-2.511,-2.5186,-2.4551,-2.4294,-2.4205,-2.4489,-2.3824,-2.3706,-2.4455,-2.4044,-2.4315,-2.5541,-2.5727,-2.6074,-2.6674,-2.6691,-2.6691,-2.6691,-2.6691,-2.6691,-2.6691,-2.6691,-2.6691,-2.6691,-2.6564,-2.6251,-2.5778,-2.5524,-2.4721,-2.3579,-2.3579,-2.308,-2.2319,-2.2454,-2.242,-2.2378,-2.2987,-2.3207,-2.3207,-0.833,-0.8187,-0.8077,-0.8077,-0.7969,-0.7899,-0.7899,-0.7899,-0.7899,-0.7899,-0.787,-0.779,-0.7612,-0.756,-0.762,-0.7797,-0.7834,-0.7768,-0.756,-0.8032,-0.8291,-0.8201,-0.8662,-0.9055,-0.9317,-0.8663,-0.7955,-0.7202,-0.7202,-0.7202,-0.7202,-0.7202,-0.7105,-0.6944,-0.6917,-0.6807,-0.6693,-0.7415,-0.7764,-0.7901,-0.8893,-0.9737,-1.0444,-1.0681,-1.118,-1.1797,-1.1797,-1.1776,-1.1725,-1.1725,-1.1711,-1.1689,-1.1725,-1.1711,-1.18,-1.2409,-1.3342,-1.434,-1.5102,-1.6549,-1.8007,-1.8731,-1.9707,-2.0648,-2.1174,-2.1382,-2.1602,-2.211,-2.2254,-2.231,-2.231,-2.231,-2.2513,-2.3148,-2.3418,-2.3985,-2.527,-2.4983,-2.4625,-2.4523,-2.3367,-2.3105,-2.4388,-2.3824,-2.3706,-2.4455,-2.5,-2.5397,-2.56,-2.6201,-2.659,-2.6691,-2.6691,-2.6691,-2.6691,-2.6691,-2.6691,-2.6691,-2.6691,-2.6691,-2.6674,-2.604,-2.604,-2.648,-2.5186,-2.4557,-2.4362,-2.4362,-2.3537,-2.2369,-2.3004,-2.2868,-2.2319,-2.242,-2.2454,-2.2454,-0.8395,-0.8327,-0.8267,-0.8267,-0.8119,-0.8017,-0.8017,-0.7956,-0.7899,-0.7899,-0.7899,-0.787,-0.7776,-0.7776,-0.7805,-0.7885,-0.7899,-0.787,-0.7776,-0.8026,-0.8457,-0.9126,-0.9085,-0.9406,-1.0208,-0.9235,-0.8539,-0.8151,-0.778,-0.7591,-0.7591,-0.7591,-0.7538,-0.7453,-0.7345,-0.7235,-0.7169,-0.7414,-0.7597,-0.78,-0.8609,-0.9428,-1.0217,-1.0643,-1.1229,-1.1797,-1.1797,-1.1797,-1.1797,-1.1797,-1.1797,-1.1797,-1.1797,-1.2052,-1.2441,-1.2932,-1.3922,-1.518,-1.6691,-1.7912,-1.9105,-2.0466,-2.1183,-2.1638,-2.1919,-2.2003,-2.204,-2.2245,-2.231,-2.231,-2.231,-2.231,-2.242,-2.2733,-2.3469,-2.423,-2.4881,-2.4726,-2.4362,-2.3917,-2.2953,-2.2725,-2.3773,-2.3215,-2.3088,-2.3816,-2.456,-2.5169,-2.5592,-2.6302,-2.6691,-2.6691,-2.6691,-2.6691,-2.6691,-2.6691,-2.6691,-2.6691,-2.6691,-2.6691,-2.6666,-2.5938,-2.6006,-2.6615,-2.5127,-2.4515,-2.4481,-2.4044,-2.3257,-2.2344,-2.2665,-2.2843,-2.2919,-2.2919,-2.2919,-2.2919]},{"header":{"parameterUnit":"m.s-1","parameterCategory":1,"la1":30.6,"la2":28.766,"lo1":-90.7593,"lo2":-88.6598,"dy":0.0162,"dx":0.0183,"nx":116,"ny":114,"refTime":"2023-06-10T06:00:00:Z","depth":0,"parameterNumber":3,"parameterNumberName":"V-component_of_WINDS"},"data":[0.0,0.0,0.0,0.0,0.0,0.0,0.0,0.0,0.0,0.0,0.0,0.0,0.0,0.0,0.0,0.0,0.0,0.0,0.0,0.0,0.0,0.0,0.0,0.0,0.0,0.0,0.0,0.0,0.0,0.0,0.0,0.0,0.0,0.0,0.0,0.0,0.0,0.0,0.0,0.0,0.0,0.0,0.0,0.0,0.0,0.0,0.0,0.0,0.0,0.0,0.0,0.0,0.0,0.0,0.0,0.0,0.0,0.0,0.0,0.0,0.0,0.0,0.0,0.0,0.0,0.0,0.0,0.0,0.0,0.0,0.0,0.0,0.0,0.0,0.0,0.0,0.0,0.0,0.0,0.0,0.0,0.0,0.0,0.0,0.0,0.0,0.0,0.0,0.0,0.0,0.0,0.0,0.0,0.0,0.0,0.0,0.0,0.0,0.0,0.0,0.0,0.0,0.0,0.0,0.0,0.0,0.0,0.0,0.0,0.0,0.0,0.0,0.0,0.0,0.0,0.0,0.0,0.0,0.0,0.0,0.0,0.0,0.0,0.0,0.0,0.0,0.0,0.0,0.0,0.0,0.0,0.0,0.0,0.0,0.0,0.0,0.0,0.0,0.0,0.0,0.0,0.0,0.0,0.0,0.0,0.0,0.0,0.0,0.0,0.0,0.0,0.0,0.0,0.0,0.0,0.0,0.0,0.0,0.0,0.0,0.0,0.0,0.0,0.0,0.0,0.0,0.0,0.0,0.0,0.0,0.0,0.0,0.0,0.0,0.0,0.0,0.0,0.0,0.0,0.0,0.0,0.0,0.0,0.0,0.0,0.0,0.0,0.0,0.0,0.0,0.0,0.0,0.0,0.0,0.0,0.0,0.0,0.0,0.0,0.0,0.0,0.0,0.0,0.0,0.0,0.0,0.0,0.0,0.0,0.0,0.0,0.0,0.0,0.0,0.0,0.0,0.0,0.0,0.0,0.0,0.0,0.0,0.0,0.0,0.0,0.0,0.0,0.0,0.0,0.0,0.0,0.0,0.0,0.0,0.0,0.0,0.0,0.0,0.0,0.0,0.0,0.0,0.0,0.0,0.0,0.0,0.0,0.0,0.0,0.0,0.0,0.0,0.0,0.0,0.0,0.0,0.0,0.0,0.0,0.0,0.0,0.0,0.0,0.0,0.0,0.0,0.0,0.0,0.0,0.0,0.0,0.0,0.0,0.0,0.0,0.0,0.0,0.0,0.0,0.0,0.0,0.0,0.0,0.0,0.0,0.0,0.0,0.0,0.0,0.0,0.0,0.0,0.0,0.0,0.0,0.0,0.0,0.0,0.0,0.0,0.0,0.0,0.0,0.0,0.0,0.0,0.0,0.0,0.0,0.0,0.0,0.0,0.0,0.0,0.0,0.0,0.0,0.0,0.0,0.0,0.0,0.0,0.0,0.0,0.0,0.0,0.0,0.0,0.0,0.0,0.0,0.0,0.0,0.0,0.0,0.0,0.0,0.0,0.0,0.0,0.0,0.0,0.0,0.0,0.0,0.0,0.0,0.0,0.0,0.0,0.0,0.0,0.0,0.0,0.0,0.0,0.0,0.0,0.0,0.0,0.0,0.0,0.0,0.0,0.0,0.0,0.0,0.0,0.0,0.0,0.0,0.0,0.0,0.0,0.0,0.0,0.0,0.0,0.0,0.0,0.0,0.0,0.0,0.0,0.0,0.0,0.0,0.0,0.0,0.0,0.0,0.0,0.0,0.0,0.0,0.0,0.0,0.0,0.0,0.0,0.0,0.0,0.0,0.0,0.0,0.0,0.0,0.0,0.0,0.0,0.0,0.0,0.0,0.0,0.0,0.0,0.0,0.0,0.0,0.0,0.0,0.0,0.0,0.0,0.0,0.0,0.0,0.0,0.0,0.0,0.0,0.0,0.0,0.0,0.0,0.0,0.0,0.0,0.0,0.0,0.0,0.0,0.0,0.0,0.0,0.0,0.0,0.0,0.0,0.0,0.0,0.0,0.0,0.0,0.0,0.0,0.0,0.0,0.0,0.0,0.0,0.0,0.0,0.0,0.0,0.0,0.0,0.0,0.0,0.0,0.0,0.0,0.0,0.0,0.0,0.0,0.0,0.0,0.0,0.0,0.0,0.0,0.0,0.0,0.0,0.0,0.0,0.0,0.0,0.0,0.0,0.0,0.0,0.0,0.0,0.0,0.0,0.0,0.0,0.0,0.0,0.0,0.0,0.0,0.0,0.0,0.0,0.0,0.0,0.0,0.0,0.0,0.0,0.0,0.0,0.0,0.0,0.0,0.0,0.0,0.0,0.0,0.0,0.0,0.0,0.0,0.0,0.0,0.0,0.0,0.0,0.0,0.0,0.0,0.0,0.0,0.0,0.0,0.0,0.0,0.0,0.0,0.0,0.0,0.0,0.0,0.0,0.0,0.0,0.0,0.0,0.0,0.0,0.0,0.0,0.0,0.0,0.0,0.0,0.0,0.0,0.0,0.0,0.0,0.0,0.0,0.0,0.0,0.0,0.0,0.0,0.0,0.0,0.0,0.0,0.0,0.0,0.0,0.0,0.0,0.0,0.0,0.0,0.0,0.0,0.0,0.0,0.0,0.0,0.0,0.0,0.0,0.0,0.0,0.0,0.0,0.0,0.0,0.0,0.0,0.0,0.0,0.0,0.0,0.0,0.0,0.0,0.0,0.0,0.0,0.0,0.0,0.0,0.0,0.0,0.0,0.0,0.0,0.0,0.0,0.0,0.0,0.0,0.0,0.0,0.0,0.0,0.0,0.0,0.0,0.0,0.0,0.0,0.0,0.0,0.0,0.0,0.0,0.0,0.0,0.0,0.0,0.0,0.0,0.0,0.0,0.0,0.0,0.0,0.0,0.0,0.0,0.0,0.0,0.0,0.0,0.0,0.0,0.0,0.0,0.0,0.0,0.0,0.0,0.0,0.0,0.0,0.0,0.0,0.0,0.0,0.0,0.0,0.0,0.0,0.0,0.0,0.0,0.0,0.0,0.0,0.0,0.0,0.0,0.0,0.0,0.0,0.0,0.0,0.0,0.0,0.0,0.0,0.0,0.0,0.0,0.0,0.0,0.0,0.0,0.0,0.0,0.0,0.0,0.0,0.0,0.0,0.0,0.0,0.0,0.0,0.0,0.0,0.0,0.0,0.0,0.0,0.0,0.0,0.0,0.0,0.0,0.0,0.0,0.0,0.0,0.0,0.0,0.0,0.0,0.0,0.0,0.0,0.0,0.0,0.0,0.0,0.0,0.0,0.0,0.0,0.0,0.0,0.0,0.0,0.0,0.0,0.0,0.0,0.0,0.0,0.0,0.0,0.0,0.0,0.0,0.0,0.0,0.0,0.0,0.0,0.0,0.0,0.0,0.0,0.0,0.0,0.0,0.0,0.0,0.0,0.0,0.0,0.0,0.0,0.0,0.0,0.0,0.0,0.0,0.0,0.0,0.0,0.0,0.0,0.0,0.0,0.0,0.0,0.0,0.0,0.0,0.0,0.0,0.0,0.0,0.0,0.0,0.0,0.0,0.0,0.0,0.0,0.0,0.0,0.0,0.0,0.0,0.0,0.0,0.0,0.0,0.0,0.0,0.0,0.0,0.0,0.0,0.0,0.0,0.0,0.0,0.0,0.0,0.0,0.0,0.0,0.0,0.0,0.0,0.0,0.0,0.0,0.0,0.0,0.0,0.0,0.0,0.0,0.0,0.0,0.0,0.0,0.0,0.0,0.0,0.0,0.0,0.0,0.0,0.0,0.0,0.0,0.0,0.0,0.0,0.0,0.0,0.0,0.0,0.0,0.0,0.0,0.0,0.0,0.0,0.0,0.0,0.0,0.0,0.0,0.0,0.0,0.0,0.0,0.0,0.0,0.0,0.0,0.0,0.0,0.0,0.0,0.0,0.0,0.0,0.0,0.0,0.0,0.0,0.0,0.0,0.0,0.0,0.0,0.0,0.0,0.0,0.0,0.0,0.0,0.0,0.0,0.0,0.0,0.0,0.0,0.0,0.0,0.0,0.0,0.0,0.0,0.0,0.0,0.0,0.0,0.0,0.0,0.0,0.0,0.0,0.0,0.0,0.0,0.0,0.0,0.0,0.0,0.0,0.0,0.0,0.0,0.0,0.0,0.0,0.0,0.0,0.0,0.0,0.0,0.0,0.0,0.0,0.0,0.0,0.0,0.0,0.0,0.0,0.0,0.0,0.0,0.0,0.0,0.0,0.0,0.0,0.0,0.0,0.0,0.0,0.0,0.0,0.0,0.0,0.0,0.0,0.0,0.0,0.0,0.0,0.0,0.0,0.0,0.0,0.0,0.0,0.0,0.0,0.0,0.0,0.0,0.0,0.0,0.0,0.0,0.0,0.0,0.0,0.0,0.0,0.0,0.0,0.0,0.0,0.0,0.0,0.0,0.0,0.0,0.0,0.0,0.0,0.0,0.0,0.0,0.0,0.0,0.0,0.0,0.0,0.0,0.0,0.0,0.0,0.0,0.0,0.0,0.0,0.0,0.0,0.0,0.0,0.0,0.0,0.0,0.0,0.0,0.0,0.0,0.0,0.0,0.0,0.0,0.0,0.0,0.0,0.0,0.0,0.0,0.0,0.0,0.0,0.0,0.0,0.0,0.0,0.0,0.0,0.0,0.0,0.0,0.0,0.0,0.0,0.0,0.0,0.0,0.0,0.0,0.0,0.0,0.0,0.0,0.0,0.0,0.0,0.0,0.0,0.0,0.0,0.0,0.0,0.0,0.0,0.0,0.0,0.0,0.0,0.0,0.0,0.0,0.0,0.0,0.0,0.0,0.0,0.0,0.0,0.0,0.0,0.0,0.0,0.0,0.0,0.0,0.0,0.0,0.0,0.0,0.0,0.0,0.0,0.0,0.0,0.0,0.0,0.0,0.0,0.0,0.0,0.0,0.0,0.0,0.0,0.0,0.0,0.0,0.0,0.0,0.0,0.0,0.0,0.0,0.0,0.0,0.0,0.0,0.0,0.0,0.0,0.0,0.0,0.0,0.0,0.0,0.0,0.0,0.0,0.0,0.0,0.0,0.0,0.0,0.0,0.0,0.0,0.0,0.0,0.0,0.0,0.0,0.0,0.0,0.0,0.0,0.0,0.0,0.0,0.0,0.0,0.0,0.0,0.0,0.0,0.0,0.0,0.0,0.0,0.0,0.0,0.0,0.0,0.0,0.0,0.0,0.0,0.0,0.0,0.0,0.0,0.0,0.0,0.0,0.0,0.0,0.0,0.0,0.0,0.0,0.0,0.0,0.0,0.0,0.0,0.0,0.0,0.0,0.0,0.0,0.0,0.0,0.0,0.0,0.0,0.0,0.0,0.0,0.0,0.0,0.0,0.0,0.0,0.0,0.0,0.0,0.0,0.0,0.0,0.0,0.0,0.0,0.0,0.0,0.0,0.0,0.0,0.0,0.0,0.0,0.0,0.0,0.0,0.0,0.0,0.0,0.0,0.0,0.0,0.0,0.0,0.0,0.0,0.0,0.0,0.0,0.0,0.0,0.0,0.0,0.0,0.0,0.0,0.0,0.0,0.0,0.0,0.0,0.0,0.0,0.0,0.0,0.0,0.0,0.0,0.0,0.0,0.0,0.0,0.0,0.0,0.0,0.0,0.0,0.0,0.0,0.0,0.0,0.0,0.0,0.0,0.0,0.0,0.0,0.0,0.0,0.0,0.0,0.0,0.0,0.0,0.0,0.0,0.0,0.0,0.0,0.0,0.0,0.0,0.0,0.0,0.0,0.0,0.0,0.0,0.0,0.0,0.0,0.0,0.0,0.0,0.0,0.0,0.0,0.0,0.0,0.0,0.0,0.0,0.0,0.0,0.0,0.0,0.0,0.0,0.0,0.0,0.0,0.0,0.0,0.0,0.0,0.0,0.0,0.0,0.0,0.0,0.0,0.0,0.0,0.0,0.0,0.0,0.0,0.0,0.0,0.0,0.0,0.0,0.0,0.0,0.0,0.0,0.0,0.0,0.0,0.0,0.0,0.0,0.0,0.0,0.0,0.0,0.0,0.0,0.0,0.0,0.0,0.0,0.0,0.0,0.0,0.0,0.0,0.0,0.0,0.0,0.0,0.0,-0.3431,-0.3855,0.0,0.0,0.0,0.0,0.0,0.0,0.0,0.0,0.0,0.0,0.0,0.0,0.0,0.0,0.0,0.0,0.0,0.0,0.0,0.0,0.0,0.0,0.0,0.0,0.0,0.0,0.0,0.0,0.0,0.0,0.0,0.0,0.0,0.0,0.0,0.0,0.0,0.0,-0.4136,-0.394,-0.4413,-0.5659,-0.7337,-0.9293,0.0,0.0,0.0,0.0,0.0,0.0,0.0,0.0,0.0,0.0,0.0,0.0,0.0,0.0,0.0,0.0,0.0,0.0,0.0,0.0,0.0,0.0,0.0,0.0,0.0,0.0,0.0,0.0,0.0,0.0,0.0,0.0,0.0,0.0,0.0,0.0,0.0,0.0,0.0,0.0,0.0,0.0,0.0,0.0,0.0,0.0,0.0,0.0,0.0,0.0,0.0,0.0,0.0,0.0,0.0,0.0,0.0,0.0,0.0,0.0,0.0,0.0,0.0,0.0,0.0,0.0,0.0,0.0,0.0,0.0,-0.4302,-0.4782,0.0,0.0,0.0,0.0,0.0,0.0,0.0,0.0,0.0,0.0,0.0,0.0,0.0,0.0,0.0,0.0,0.0,0.0,0.0,0.0,0.0,0.0,0.0,0.0,-1.0656,-1.0164,-1.0835,-1.1329,0.0,0.0,0.0,0.0,0.0,0.0,0.0,0.0,0.0,-0.2763,-0.2045,-0.2062,-0.2806,-0.3588,-0.5346,-0.7899,-0.865,0.0,0.0,0.0,0.0,0.0,0.0,0.0,0.0,0.0,0.0,0.0,0.0,0.0,0.0,0.0,0.0,0.0,0.0,0.0,0.0,0.0,0.0,0.0,0.0,0.0,0.0,0.0,0.0,0.0,0.0,0.0,0.0,0.0,0.0,0.0,0.0,0.0,0.0,0.0,0.0,0.0,0.0,0.0,0.0,0.0,0.0,0.0,0.0,0.0,0.0,0.0,0.0,0.0,0.0,0.0,0.0,0.0,0.0,0.0,0.0,0.0,0.0,0.0,-0.2833,-0.3795,-0.4236,-0.4409,-0.477,-0.514,-0.4836,-0.5379,-0.6484,-0.635,0.0,0.0,0.0,0.0,0.0,0.0,0.0,0.0,0.0,0.0,0.0,0.0,0.0,0.0,0.0,0.0,0.0,0.0,0.0,0.0,0.0,-0.9755,-0.9564,-0.9829,-0.9924,-1.0261,0.0,0.0,0.0,0.0,0.0,0.0,0.0,-0.24,-0.1129,-0.0286,-0.065,-0.1102,-0.1557,-0.306,-0.4591,-0.6159,-0.7011,-0.8733,-1.0906,0.0,0.0,0.0,0.0,0.0,0.0,0.0,0.0,0.0,0.0,0.0,0.0,0.0,0.0,0.0,0.0,0.0,0.0,0.0,0.0,0.0,0.0,0.0,0.0,0.0,0.0,0.0,0.0,0.0,0.0,0.0,0.0,0.0,0.0,0.0,0.0,0.0,0.0,0.0,0.0,0.0,0.0253,-0.0044,0.0,0.0,0.0,0.0,0.0,0.0,0.0,0.0,0.0,0.0,0.0,0.0,0.0,0.0782,0.0249,-0.1225,-0.2224,-0.2845,-0.3871,-0.4376,-0.4436,-0.4508,-0.4829,-0.5439,-0.5178,0.0,-0.6016,-0.5255,0.0,0.0,0.0,0.0,0.0,0.0,0.0,0.0,0.0,0.0,0.0,0.0,0.0,0.0,0.0,0.0,0.0,0.0,0.0,0.0,0.0,-0.8285,-0.8159,-0.7969,-0.8673,-0.9389,-0.9991,-1.0271,0.0,0.0,0.0,-0.504,-0.262,-0.0825,0.0382,0.0984,0.0458,-0.03,-0.1342,-0.2514,-0.3949,-0.5516,-0.6572,-0.8234,-1.0242,-0.9988,0.0,0.0,0.0,0.0,0.0,0.0,0.0,0.0,0.0,0.0,0.0,0.0,0.0,0.0,0.0,0.0,0.0,0.0,0.0,0.0,0.0,0.0,0.0,0.0,0.0,0.0,0.0,0.0,0.0,0.0,0.0,0.0,0.0,0.0,0.0,0.0,0.0,0.0,0.0,0.2836,0.1489,-0.0309,-0.0185,-0.0048,0.0,0.0,0.0,0.0,0.0,0.0,0.0,0.0,0.0,0.131,0.0319,-0.0376,-0.0622,-0.2067,-0.2988,-0.3276,-0.4097,-0.4517,-0.4517,-0.4517,-0.4679,-0.4944,-0.4821,-0.4856,-0.5001,-0.5408,-0.5572,-0.5526,0.0,0.0,0.0,0.0,-0.232,-0.2633,0.0,0.0,0.0,0.0,0.0,0.0,0.0,0.0,0.0,0.0,0.0,0.0,-0.6954,-0.6848,-0.6857,-0.6671,-0.7804,-0.8782,-0.9304,-0.9876,0.0,0.0,0.0,-0.3865,-0.1433,0.0275,0.115,0.1194,0.0725,-0.0314,-0.1846,-0.2531,-0.3825,-0.5515,-0.6642,-0.8078,-0.9627,-1.0006,-1.0471,-1.0985,0.0,0.0,0.0,0.0,0.0,0.0,0.0,0.0,0.0,0.0,0.0,0.0,0.0,0.0,0.0,0.0,0.0,0.0,0.0,0.0,0.0,0.0,0.0,0.0,0.0,0.0,0.0,0.0,0.0,0.0,0.0,0.0,0.0,0.0,0.0,0.0,0.0,0.3934,0.2642,0.0179,0.0,-0.02,0.0,0.0,0.0,0.0,0.0,0.0,0.2007,0.1167,0.0586,0.0415,-0.0599,-0.1214,-0.1397,-0.2642,-0.3343,-0.34,-0.4125,-0.4517,-0.4517,-0.4517,-0.4517,-0.4517,-0.4517,-0.4402,-0.4352,-0.529,-0.5371,-0.4817,-0.4502,-0.4061,-0.352,-0.2889,-0.2925,-0.33,0.0,0.0,0.0,0.0,0.0,0.0,0.0,0.0,0.0,0.0,0.0,-0.7305,-0.6411,-0.5724,-0.5786,-0.695,-0.7714,-0.8526,-0.9424,-0.9399,-0.8543,-0.6682,-0.4355,-0.2111,0.0041,0.1203,0.1206,0.0083,-0.0383,-0.1494,-0.321,-0.3519,-0.4567,-0.629,-0.7159,-0.8318,-0.9643,-1.0371,-1.0854,-1.1274,-1.2259,0.0,0.0,0.0,0.0,0.0,0.0,0.0,0.0,0.0,0.0,0.0,0.0,0.0,0.0,0.0,0.0,0.0,0.0,0.0,0.0,0.0,0.0,0.0,0.0,0.0,0.0,0.0,0.0,0.0,0.0,0.0,0.0,0.0,0.0,0.0,0.0,0.0,0.0,0.2184,0.0924,0.0,0.0,0.0,0.0,0.1006,0.1008,0.0754,0.0167,0.0056,-0.0279,-0.1001,-0.106,-0.1451,-0.2114,-0.2895,-0.3288,-0.3288,-0.4125,-0.4517,-0.4517,-0.4517,-0.4517,-0.4517,-0.4517,-0.4513,-0.4496,-0.4355,-0.4299,-0.4248,-0.42,-0.4205,-0.4136,-0.3992,-0.3845,-0.3748,0.0,0.0,0.0,0.0,0.0,0.0,0.0,0.0,-1.0084,-0.8247,-0.7069,-0.5782,-0.4148,-0.4696,-0.5477,-0.6145,-0.7588,-0.8821,-0.9653,-0.9675,-0.8853,-0.7028,-0.4656,-0.1926,0.1172,0.1216,0.0825,0.0,-0.1348,-0.2427,-0.3321,-0.4454,-0.5609,-0.6749,-0.7904,-0.9024,-1.0089,-1.057,-1.1393,-1.2423,-1.2973,-1.3499,0.0,0.0,0.0,0.0,0.0,0.0,0.0,0.0,0.0,0.0,0.0,0.0,0.0,0.0,0.0,0.0,0.0,0.0,0.0,0.0,0.0,0.0,0.0,0.0,0.0,0.0,0.0,0.0,0.0,0.0,0.0,0.0,0.0,0.0,0.0,0.0,0.0,0.2861,0.1946,0.0,0.0105,0.0214,0.0329,0.0341,0.0341,0.0229,0.0,0.0,-0.0336,-0.1062,-0.1563,-0.2175,-0.2899,-0.3678,-0.407,-0.407,-0.4349,-0.4517,-0.4517,-0.4517,-0.4517,-0.4517,-0.4517,-0.4517,-0.4513,-0.4407,-0.4385,-0.444,-0.4863,-0.4757,-0.4422,-0.4734,-0.4465,-0.3917,0.0,0.0,0.0,0.0,0.0,0.0,0.0,0.0,-0.9223,-0.7164,-0.5771,-0.4385,-0.2843,-0.4074,-0.5359,-0.6233,-0.7682,-0.8933,-0.9894,-0.9647,-0.8691,-0.6987,-0.3996,-0.1266,0.1157,0.08,0.0089,-0.0889,-0.2228,-0.3269,-0.4019,-0.5402,-0.6486,-0.733,-0.8554,-0.9732,-1.0867,-1.1244,-1.2025,-1.3021,-1.3537,-1.4329,-1.4991,0.0,0.0,0.0,0.0,0.0,0.0,0.0,0.0,0.0,0.0,0.0,0.0,0.0,0.0,0.0,0.0,0.0,0.0,0.0,0.0,0.0,0.0,0.0,0.0,0.0,0.0,0.0,0.0,0.0,0.0,0.0,0.0,0.0,0.0,0.6147,0.5086,0.33,0.2565,0.1597,0.0167,0.0,0.0,0.0,0.0,0.0,0.0,0.0,-0.0456,-0.142,-0.1684,-0.2453,-0.3678,-0.4013,-0.4237,-0.4517,-0.4517,-0.4517,-0.4517,-0.4517,-0.4517,-0.4517,-0.4517,-0.4517,-0.4517,-0.4517,-0.4517,-0.4517,-0.5003,-0.4863,-0.4431,-0.4534,-0.4346,-0.4005,0.0,0.0,0.0,0.0,0.0,0.0,0.0,-1.081,-0.8275,-0.6534,-0.4538,-0.3084,-0.2659,-0.3802,-0.5401,-0.7363,-0.7984,-0.8821,-1.0199,-0.9207,-0.7826,-0.624,-0.2213,-0.0045,-0.0045,-0.0045,-0.0933,-0.2716,-0.3191,-0.4075,-0.5384,-0.6421,-0.7323,-0.8087,-0.912,-1.0452,-1.196,-1.2449,-1.28,-1.3074,-1.3981,-1.4679,-1.5128,0.0,0.0,0.0,0.0,0.0,0.0,0.0,0.0,0.0,0.0,0.0,0.0,0.0,0.0,0.0,0.0,0.0,0.0,0.0,0.0,0.0,0.0,0.0,0.0,0.0,0.0,0.0,0.0,0.0,0.0,0.0,0.0,0.0,0.6369,0.5875,0.4999,0.3655,0.2744,0.162,0.0169,0.0,0.0,-0.0059,-0.0061,-0.0062,-0.0062,-0.006,-0.0706,-0.2113,-0.148,-0.2234,-0.4413,-0.3798,-0.3795,-0.4517,-0.4517,-0.4517,-0.4517,-0.4517,-0.4517,-0.4517,-0.4517,-0.4517,-0.4517,-0.4517,-0.4517,-0.4517,-0.4572,-0.4431,-0.4146,-0.3451,-0.3526,-0.4019,0.0,0.0,0.0,0.0,0.0,0.0,0.0,-1.0944,-0.8144,-0.6831,-0.4151,-0.2408,-0.2596,-0.4219,-0.6074,-0.7977,-0.8894,-0.959,-1.0121,-0.8398,-0.6096,-0.3242,-0.1543,-0.0666,-0.0666,-0.1066,-0.1952,-0.3282,-0.5004,-0.6056,-0.6573,-0.834,-0.9165,-0.9134,-1.0552,-1.1625,-1.2477,-1.3778,-1.456,-1.4949,-1.5118,-1.5168,-1.5204,0.0,0.0,0.0,0.0,0.0,0.0,0.0,0.0,0.0,0.0,0.0,0.0,0.0,0.0,0.0,0.0,0.0,0.0,0.0,0.0,0.0,0.0,0.0,0.0,0.0,0.0,0.0,0.0,0.0,0.0,0.0,0.6087,0.5977,0.5977,0.5356,0.4558,0.3677,0.2733,0.1822,0.0868,0.0301,-0.0246,-0.0913,-0.0939,-0.0955,-0.0955,-0.0969,-0.1069,-0.1396,-0.1884,-0.2603,-0.3641,-0.4106,-0.4399,-0.4517,-0.4517,-0.4517,-0.4517,-0.4517,-0.4517,-0.4517,-0.4517,-0.4517,-0.4517,-0.4517,-0.4517,-0.4627,-0.5607,-0.5682,-0.5187,-0.5418,-0.4848,-0.4019,0.0,0.0,0.0,0.0,0.0,0.0,0.0,-0.9504,-0.6007,-0.5383,-0.2112,-0.045,-0.205,-0.4459,-0.6726,-0.8724,-0.9547,-0.9793,-0.937,-0.6987,-0.4602,-0.2348,-0.162,-0.1377,-0.1643,-0.2217,-0.2968,-0.3898,-0.6063,-0.7305,-0.7687,-0.9564,-1.0584,-1.0828,-1.1733,-1.2681,-1.3685,-1.4612,-1.5391,-1.6048,-1.5958,-1.5871,-1.5696,-1.5107,-1.4263,-1.3337,-1.2871,-1.2374,-1.1948,-1.1674,0.0,0.0,0.0,0.0,0.0,0.0,0.0,0.0,0.0,0.0,0.0,0.0,0.0,0.0,0.0,0.0,0.0,0.0,0.0,0.0,0.0,0.0,0.0,0.0,0.5115,0.4968,0.5464,0.5117,0.4559,0.3868,0.3237,0.2449,0.128,0.0817,0.0,-0.1193,-0.1289,-0.1441,-0.1833,-0.1505,-0.1417,-0.1692,-0.1862,-0.2345,-0.3279,-0.3872,-0.4265,-0.4517,-0.4517,-0.4551,-0.4611,-0.4818,-0.477,-0.4611,-0.4816,-0.4787,-0.4517,-0.4517,-0.4517,-0.4572,0.0,0.0,0.0,0.0,-0.4793,-0.373,0.0,0.0,0.0,0.0,0.0,0.0,0.0,-0.7576,-0.2928,-0.2397,0.1076,0.2168,-0.1353,-0.4678,-0.756,-0.9744,-1.0123,-0.9515,-0.782,-0.5105,-0.3246,-0.2525,-0.2174,-0.2272,-0.2893,-0.35,-0.4109,-0.4689,-0.6808,-0.8129,-0.8696,-1.0447,-1.1732,-1.2696,-1.2879,-1.3748,-1.512,-1.5222,-1.5787,-1.6595,-1.6674,-1.6552,-1.6231,-1.4807,-1.4239,-1.4085,-1.3519,-1.3039,-1.2781,-1.285,0.0,0.0,0.0,0.0,0.0,0.0,0.0,0.0,0.0,0.0,0.0,0.0,0.0,0.0,0.0,0.0,0.0,0.0,0.0,0.0,0.0,0.0,0.0,0.0,0.3904,0.3921,0.4983,0.5074,0.4766,0.4061,0.3774,0.3003,0.1286,0.1052,0.0264,-0.1483,-0.1584,-0.1942,-0.2811,-0.2089,0.0,0.0,0.0,-0.2005,-0.3297,-0.3477,-0.3862,-0.4517,-0.4589,-0.4717,-0.4831,-0.5332,-0.5288,-0.4828,-0.5254,-0.5075,-0.4517,-0.4517,-0.4517,-0.4519,-0.4682,-0.468,-0.4625,-0.468,-0.4179,-0.3511,0.0,0.0,0.0,0.0,0.0,0.0,0.0,-0.8316,-0.1754,0.2463,0.4389,0.3523,-0.1336,-0.5737,-0.9302,-1.1731,-1.1017,-0.8612,-0.4316,-0.2714,-0.1723,-0.1288,-0.2471,-0.3458,-0.4037,-0.5053,-0.5908,-0.6476,-0.8474,-0.9579,-0.9827,-1.2224,-1.3273,-1.3206,-1.458,-1.5352,-1.5711,-1.6516,-1.6966,-1.7194,-1.7626,-1.6989,-1.5796,-1.5966,-1.5423,-1.4637,-1.5037,-1.4775,-1.4417,-1.5399,-1.518,-1.4599,-1.5219,-1.495,0.0,0.0,0.0,0.0,0.0,0.0,0.0,0.0,0.0,0.0,0.0,0.0,0.0,0.0,0.0,0.0,0.0,0.0,0.0,0.4601,0.4336,0.4281,0.5345,0.5477,0.5094,0.409,0.3264,0.2123,0.0383,-0.0387,-0.1551,-0.3336,-0.349,-0.3546,-0.3748,-0.3583,-0.3242,-0.2655,-0.3079,-0.3348,-0.3531,-0.413,-0.4469,-0.452,-0.5307,0.0,-0.5387,-0.5872,-0.5791,-0.5331,-0.4995,-0.4743,-0.4517,-0.4517,-0.4517,-0.4625,-0.5771,-0.5821,-0.538,-0.5987,-0.5389,-0.4294,0.0,0.0,0.0,0.0,0.0,0.0,0.0,-0.7511,-0.14,0.0462,0.4519,0.4878,-0.137,-0.5792,-0.9137,-1.1227,-0.8363,-0.4943,-0.1383,-0.0662,-0.0576,-0.0965,-0.2911,-0.4075,-0.4389,-0.5834,-0.6946,-0.7759,-1.0051,-1.1649,-1.2602,-1.4328,-1.5343,-1.5724,-1.629,-1.6846,-1.7343,-1.7834,-1.8179,-1.8401,-1.8825,-1.8478,-1.771,-1.7317,-1.6763,-1.6269,-1.6544,-1.6473,-1.6309,-1.6644,-1.6718,-1.6709,-1.6719,-1.6474,-1.6075,0.0,0.0,0.0,0.0,0.0,0.0,0.0,0.0,0.0,0.0,0.0,0.0,0.0,0.0,0.1475,0.0,0.0,0.2263,0.3773,0.3728,0.4066,0.5472,0.5337,0.4978,0.4711,0.3853,0.2577,0.0847,-0.0131,-0.1186,-0.2465,-0.3475,-0.3767,-0.3267,-0.3722,-0.3825,-0.3345,-0.3659,-0.395,-0.4316,-0.4627,-0.5131,-0.5806,-0.5895,-0.605,-0.639,-0.6964,-0.6723,-0.5958,-0.5927,-0.5384,-0.4627,-0.4875,-0.4787,-0.4627,-0.6043,-0.593,-0.5111,-0.5764,-0.5386,-0.4572,0.0,0.0,0.0,0.0,0.0,0.0,0.0,-0.6911,-0.1675,-0.2401,0.3578,0.5538,-0.072,-0.5562,-0.8643,-0.9332,-0.4644,-0.0901,0.0855,0.0991,0.0447,-0.0864,-0.3276,-0.4599,-0.4726,-0.6626,-0.8063,-0.8948,-1.1547,-1.3564,-1.5061,-1.6251,-1.7372,-1.8314,-1.7993,-1.8353,-1.9177,-1.9177,-1.9426,-1.9823,-2.0216,-2.0369,-2.0311,-1.9261,-1.8637,-1.8338,-1.8223,-1.8172,-1.8122,-1.794,-1.8227,-1.8539,-1.7817,-1.7783,-1.7821,-1.6879,-1.59,0.0,0.0,0.0,0.0,0.0,0.0,0.0,0.0,0.0,0.1068,0.0895,0.0728,0.0373,-0.0385,0.0328,0.1346,0.2236,0.2793,0.3707,0.5328,0.5088,0.4853,0.5133,0.4194,0.2825,0.1006,-0.0202,-0.1151,-0.1857,-0.3415,-0.3967,-0.312,-0.3886,-0.4319,-0.4319,-0.4305,-0.4663,-0.5353,-0.5406,-0.5979,-0.7154,-0.6632,-0.6774,-0.7583,-0.8089,-0.78,-0.6805,-0.6856,-0.6063,-0.4735,-0.5458,-0.5368,-0.499,-0.6392,-0.6179,-0.5094,-0.5407,-0.5056,-0.4572,0.0,0.0,0.0,0.0,0.0,0.0,0.0,0.0,-0.2849,-0.0641,0.3061,0.4456,0.1744,-0.5629,-0.9221,-0.638,-0.1717,0.132,0.1915,0.2045,0.1391,-0.0246,-0.34,-0.5373,-0.5899,-0.8492,-1.007,-1.0548,-1.2737,-1.4332,-1.5296,-1.7409,-1.8643,-1.9179,-1.9668,-2.01,-2.0479,-2.0479,-2.0736,-2.1209,-2.1743,-2.2103,-2.2332,-2.2598,-2.1695,-2.0297,-2.0281,-1.9935,-1.9621,-2.06,-2.0031,-1.9009,-1.9308,-1.9267,-1.8913,-1.7915,-1.7157,-1.601,-1.3128,-0.8703,-0.429,-0.1873,-0.0686,0.0062,0.0,0.0,0.0924,0.0252,-0.0499,-0.1303,-0.2233,-0.161,-0.0663,0.0357,0.1954,0.344,0.4483,0.522,0.5354,0.4464,0.2881,0.1105,-0.0829,-0.2631,-0.4059,-0.4849,-0.533,-0.5488,-0.524,-0.536,-0.5424,-0.5424,-0.586,-0.613,-0.6255,-0.6866,-0.7292,-0.7441,-0.8033,-0.8343,-0.8434,-0.8626,-0.8623,-0.8277,-0.6793,-0.5608,-0.4794,-0.5961,-0.6307,-0.614,-0.7467,-0.769,-0.7003,-0.5885,-0.5056,-0.4519,0.0,0.0,0.0,0.0,0.0,0.0,0.0,0.0,0.0,-0.4656,-0.1225,-0.0203,-0.3717,-0.8743,-0.9093,-0.2189,-0.0404,0.2185,0.6527,0.4924,0.2639,-0.0039,-0.339,-0.5997,-0.7672,-0.9805,-1.1631,-1.3145,-1.5085,-1.665,-1.7852,-1.9522,-2.0544,-2.1014,-2.1267,-2.1672,-2.2216,-2.2216,-2.2477,-2.2937,-2.3318,-2.3557,-2.3626,-2.3488,-2.3026,-2.2407,-2.1935,-2.1125,0.0,-2.082,-2.0559,-1.9949,-1.9626,-1.9722,-1.962,-1.8026,-1.6794,-1.4832,-0.9825,-0.6318,-0.3511,-0.1185,-0.0763,-0.0647,0.0325,0.0128,-0.038,-0.0704,-0.1482,-0.2207,-0.2625,-0.2257,-0.1825,0.0,-0.0216,0.0808,0.1186,0.1994,0.2134,0.1106,0.1506,0.0987,-0.1278,-0.1745,-0.2507,-0.3853,-0.5611,-0.5933,-0.4143,-0.5584,-0.6404,-0.6333,-0.6486,-0.7056,-0.8082,-0.786,-0.8177,-0.9017,-0.8827,-0.9011,-0.9452,-0.9557,-0.9302,-0.8767,-0.7511,-0.6742,-0.6398,-0.7352,-0.7425,-0.7049,-0.8021,-0.8046,-0.7398,-0.6793,-0.6028,-0.5381,0.0,0.0,0.0,0.0,0.0,0.0,0.0,0.0,0.0,0.0,-0.6324,-0.5584,-0.9052,-1.142,-0.9529,-0.1504,0.0042,0.2797,0.8038,0.596,0.3135,0.0,-0.4028,-0.729,-0.9589,-1.1331,-1.3327,-1.5675,-1.7303,-1.888,-2.0378,-2.1471,-2.2243,-2.2697,-2.2672,-2.298,-2.3514,-2.3489,-2.374,-2.4145,-2.4349,-2.4459,-2.4438,-2.3777,-2.3484,-2.3335,-2.2725,-2.1808,-2.0883,-2.0956,-2.0746,-2.0357,-1.9841,-1.9954,-1.9864,-1.787,-1.5393,-1.2098,-0.6683,-0.4117,-0.2583,-0.0623,-0.0647,-0.0997,-0.051,-0.0834,-0.1496,-0.2273,-0.2966,-0.3538,-0.4066,-0.4029,-0.3925,-0.4143,-0.3218,-0.2509,-0.2453,-0.1302,-0.0656,-0.1181,0.0785,0.1057,-0.1749,-0.1139,-0.1493,-0.3547,-0.6047,-0.6361,-0.3892,-0.5891,-0.711,-0.7089,-0.7074,-0.7794,-0.9376,-0.8972,-0.9225,-1.0237,-0.9521,-0.9527,-1.0237,-1.0237,-0.9755,-0.8994,-0.8303,-0.7838,-0.7626,-0.8339,-0.8337,-0.8089,-0.8744,-0.8759,-0.8336,-0.7968,-0.7064,-0.602,0.0,0.0,0.0,0.0,0.0,0.0,0.0,0.0,0.0,0.0,0.0,0.0,0.0,-1.2521,-1.1056,-0.6462,-0.0343,0.3432,0.3781,0.3638,0.2429,-0.0079,-0.5722,-0.9654,-1.1468,-1.3298,-1.5421,-1.7895,-1.9059,-2.0509,-2.2229,-2.2927,-2.3504,-2.393,-2.3807,-2.3875,-2.407,-2.4012,-2.4171,-2.449,-2.4485,-2.4615,-2.4702,-2.3903,-2.3116,-2.2426,-2.2336,-2.1872,-2.1315,-2.1583,-2.0848,-1.9894,-2.0259,-2.0165,0.0,-1.7591,-1.2948,-0.7797,-0.4916,-0.2701,-0.0993,-0.0192,0.0,-0.0269,-0.1071,-0.1271,-0.207,-0.4656,-0.519,-0.5783,-0.7497,-0.7708,-0.7893,-0.8614,-0.7188,-0.602,-0.5882,-0.3729,-0.1915,-0.1213,0.1094,0.1095,0.0,-0.2006,-0.2564,-0.5519,-0.6966,-0.7235,-0.5959,-0.6809,-0.7357,-0.7472,-0.7826,-0.8524,-0.9704,-1.0242,-1.0555,-1.0604,-1.0254,-1.0264,-1.0608,-1.0608,-1.0007,-0.8994,-0.8997,-0.8488,-0.7714,-0.8346,-0.885,-0.9288,-0.9842,-1.0216,-1.0405,-0.957,-0.7918,-0.6068,0.0,0.0,0.0,0.0,0.0,0.0,0.0,0.0,0.0,0.0,0.0,0.0,0.0,0.0,0.0,0.0,-0.4242,-0.0926,0.4194,0.2842,0.0656,-0.2007,-0.5449,-0.8491,-1.1009,-1.2798,-1.4836,-1.7134,-1.8987,-2.0188,-2.0726,-2.1939,-2.2611,-2.282,-2.3085,-2.3413,-2.3782,-2.3888,-2.4408,-2.5097,-2.4384,-2.4286,-2.4347,-2.2492,-2.1606,-2.1307,0.0,-2.0795,-2.0603,-2.0787,-2.0549,-2.0039,-1.9105,-1.9064,-1.8553,-1.4359,-1.0184,-0.6262,-0.3589,-0.2353,-0.1681,-0.1051,-0.1716,-0.2605,-0.2985,-0.3983,-0.5224,-0.6647,-0.7199,-0.7806,-0.8989,-0.9376,-0.9715,-1.0376,-1.0079,-0.9774,-0.9726,-0.8256,-0.697,-0.6318,-0.3404,0.0,0.0,0.0,0.0,-0.3708,-0.5738,-0.5995,-0.4148,-0.7535,-0.9163,-0.8359,-0.8864,-0.9559,-1.052,-1.0576,-1.0624,-1.0624,-1.0461,-1.0464,-1.0561,-0.998,-0.9863,-1.0026,-0.9457,-0.9388,-0.9628,-0.9858,-1.0,-1.0164,-1.0385,-1.0471,-1.0495,-0.9594,-0.8839,-0.8001,0.0,0.0,0.0,0.0,0.0,0.0,0.0,0.0,0.0,0.0,0.0,0.0,0.0,0.0,0.0,0.0,0.0,-0.3902,0.124,0.0387,-0.1114,-0.2884,-0.6356,-0.9289,-1.1498,-1.3141,-1.51,-1.7408,-1.8689,-1.9446,-1.971,-2.0885,-2.1437,-2.1509,-2.1977,-2.2216,-2.2256,-2.2588,-2.2935,-2.3209,-2.2799,-2.2764,-2.272,-2.1138,-2.0609,0.0,-2.0677,-2.0135,-1.9473,-1.9604,-1.9347,-1.8737,-1.7431,-1.6935,-1.5915,-1.1342,-0.8054,-0.5448,-0.3202,-0.2574,-0.265,-0.2927,-0.4033,-0.5291,-0.6299,-0.7586,-0.8818,-0.9566,-0.9757,-0.9834,-1.0103,-1.0354,-1.0894,-1.1776,-1.1923,-1.2093,-1.269,-1.1387,-1.0009,-0.9012,-0.6717,-0.5957,0.0,0.0,0.0,-0.5012,-0.6246,-0.632,-0.534,-0.8298,-0.983,-0.9378,-0.9567,-1.0122,-1.0992,-1.0705,-1.0624,-1.0624,-1.0624,-1.0624,-1.0561,-0.9722,-0.9786,-1.0558,-0.9658,-0.9789,-1.0624,-1.0624,-1.0624,-1.0624,-1.0624,-1.0624,-1.0558,-0.998,-0.9594,-0.9079,0.0,0.0,0.0,0.0,0.0,0.0,0.0,0.0,0.0,0.0,0.0,0.0,0.0,0.0,0.0,0.0,0.0,0.0,-0.5072,-0.3771,-0.3061,-0.3137,-0.8409,-1.1815,-1.2794,-1.4201,-1.6099,-1.851,-1.8208,-1.8425,-1.9133,-1.9763,-2.0037,-2.0016,-2.0467,-2.0296,-1.9708,-2.0233,-1.9994,-1.9307,-2.0057,-2.0269,-2.0151,-1.9956,-2.0116,-2.0514,-2.1088,-1.971,-1.7669,-1.808,-1.726,-1.5964,-1.5357,-1.3896,-1.1804,-0.8636,-0.6675,-0.5208,-0.3788,-0.3476,-0.3981,-0.5886,-0.693,-0.8148,-1.0682,-1.186,-1.2534,-1.3163,-1.2697,-1.1889,0.0,0.0,-1.1367,-1.2819,-1.2763,-1.3067,-1.4527,-1.3045,-1.1134,0.0,0.0,0.0,0.0,0.0,0.0,-0.9263,0.0,-0.8152,-0.8983,-0.9163,-0.9623,-1.0404,-0.9997,-1.0204,-1.0992,-1.0705,-1.0624,-1.0624,-1.0624,-1.0624,-1.0561,-0.9722,-0.9786,-1.0558,-0.9658,-0.9789,-1.0624,-1.0624,-1.0624,-1.0624,-1.0561,-1.0558,-1.0558,-1.0561,-0.998,-0.9172,0.0,0.0,0.0,0.0,0.0,0.0,0.0,0.0,0.0,0.0,0.0,0.0,0.0,0.0,0.0,0.0,0.0,0.0,-1.0857,-0.8767,-0.795,-0.8916,-1.0061,-1.0949,-1.1553,-1.3129,-1.4617,-1.5926,-1.6993,-1.729,-1.6869,-1.7569,-1.7745,-1.744,-1.751,-1.7729,-1.803,-1.8389,-1.8993,-1.9706,-1.9685,-1.9765,-1.9942,-1.9519,-1.8963,-1.8624,-2.0599,-1.6809,-1.1502,0.0,0.0,0.0,0.0,-1.1145,-0.8403,-0.7124,-0.6175,-0.5423,-0.4995,-0.566,-0.6952,-0.8961,-1.0283,-1.1648,-1.3511,-1.4414,-1.5048,-1.5682,-1.4179,-1.2602,0.0,0.0,0.0,-1.1895,-1.2695,0.0,-1.3985,-1.3896,0.0,-1.2069,0.0,-1.2249,-1.238,-1.0912,0.0,0.0,-0.9543,-0.7195,-0.5854,-0.9396,-1.1122,-1.041,-1.0801,-1.1007,-1.0995,-1.0705,-1.0624,-1.0624,-1.0624,-1.0624,-1.0561,-0.9722,-0.9786,-1.0558,-0.9658,-0.9789,-1.0624,-1.0624,-1.0624,-1.0561,-0.9916,-1.0047,-1.0495,-0.9849,-0.9466,-0.9326,0.0,0.0,0.0,0.0,0.0,0.0,0.0,0.0,0.0,0.0,0.0,0.0,0.0,0.0,0.0,0.0,0.0,0.0,0.0,-1.1541,-1.087,-1.1301,-1.1582,-1.1989,-1.2421,-1.4064,-1.5033,-1.532,-1.6694,-1.6753,-1.558,-1.6484,-1.6806,-1.6564,-1.6694,-1.7001,-1.7394,-1.7612,-1.82,0.0,0.0,-1.8541,-1.8667,-1.8433,-1.8181,-1.7775,-1.6415,0.0,0.0,0.0,0.0,-0.8462,-0.9685,-0.8867,-0.7299,-0.6689,0.0,-0.6536,-0.7109,-0.8281,-0.993,-1.243,-1.4063,-1.5552,-1.7346,-1.8158,-1.8305,-1.7396,-1.5255,-1.3037,-1.1455,-0.9947,-0.9284,0.0,0.0,0.0,-1.3077,-1.3467,-1.3501,0.0,-1.3708,0.0,-1.3826,-1.3278,-1.3068,0.0,-1.0307,-0.8271,-0.7972,-1.0542,-1.1807,-1.1444,-1.197,-1.1996,-1.1365,-1.1192,-1.0926,-1.0624,-1.0624,-1.0624,-1.0561,-0.9722,-0.9786,-1.0558,-0.9658,-0.9789,-1.0624,-1.0624,-1.0364,-0.998,-0.9466,-0.9396,-0.939,-0.8941,-0.8745,-0.8809,0.0,0.0,0.0,0.0,0.0,0.0,0.0,0.0,0.0,0.0,0.0,0.0,0.0,0.0,0.0,0.0,0.0,0.0,0.0,0.0,0.0,-1.2345,-1.3295,-1.4014,-1.4414,-1.594,-1.6462,-1.5932,-1.6993,-1.6707,-1.5273,-1.6243,-1.6682,-1.6628,-1.6897,-1.7215,-1.7473,-1.7492,-1.7633,-1.7819,-1.7671,-1.7519,-1.7367,0.0,0.0,0.0,0.0,0.0,0.0,0.0,-0.0484,-0.4802,-0.6116,-0.6903,-0.7239,-0.6735,-0.7197,-0.8152,-0.9584,-1.0978,-1.2775,-1.585,-1.7717,-1.9219,-2.0975,-2.1686,-2.1177,-1.841,0.0,-1.3358,-1.0475,-0.8348,-0.7453,-0.8689,0.0,-0.9385,-1.2129,-1.2624,-1.2878,-1.3518,-1.4382,-1.4533,-1.3723,-1.4251,-1.4247,-1.3366,-1.1169,-1.0624,-1.2298,-1.2063,-1.2179,-1.2788,-1.3151,-1.2881,-1.1834,-1.183,-1.141,-1.0624,-1.0624,-1.0624,-1.0561,-0.9786,-0.9853,-1.0364,-0.9722,-0.9786,-1.0298,-1.0495,-1.004,-0.9139,-0.9139,-0.8681,-0.7959,-0.7894,-0.7829,-0.7832,0.0,0.0,0.0,0.0,0.0,0.0,0.0,0.0,0.0,0.0,-1.5775,-1.6566,0.0,0.0,0.0,0.0,0.0,0.0,0.0,0.0,0.0,0.0,-1.5794,-1.5756,-1.6171,-1.6936,-1.7281,-1.7194,-1.7405,-1.7155,-1.6487,-1.6628,-1.6679,-1.6662,-1.6337,-1.6822,-1.7765,-1.7183,-1.7554,-1.8574,-1.9082,-1.9013,-1.8737,0.0,0.0,0.0,0.0,0.0,0.0,0.0,0.713,0.1042,-0.2732,-0.4817,-0.5966,-0.644,-0.7881,-0.9631,-1.1486,-1.3398,-1.552,-1.8173,-1.9807,-2.0797,-2.1172,-2.1203,0.0,0.0,-1.5825,-1.3827,-1.1763,-1.0195,-0.93,-0.9504,-0.9862,-1.0516,-1.1742,-1.2903,-1.3571,0.0,-1.4874,-1.5672,-1.5134,-1.5151,0.0,0.0,-1.3802,-1.3074,-1.2891,-1.3256,-1.3411,-1.3264,-1.3161,-1.2633,-1.1834,-1.183,-1.141,-1.0624,-1.0624,-1.0624,-1.0558,-1.0431,-1.0044,-0.953,-1.011,0.0,-0.8544,-1.0037,-0.9649,-0.8223,-0.8223,-0.8156,-0.7894,-0.7177,-0.6915,-0.7044,0.0,0.0,0.0,0.0,0.0,0.0,0.0,-1.4963,-1.5002,-1.5611,-1.5882,-1.6134,-1.6385,-1.7293,-1.7586,0.0,0.0,0.0,0.0,0.0,0.0,0.0,0.0,0.0,0.0,-1.8652,-1.8646,-1.8121,0.0,-1.8795,-1.7798,-1.8035,-1.8172,-1.8183,-1.779,-1.8132,-1.8958,-1.8431,-1.9003,-2.0255,-2.0156,-2.0235,0.0,0.0,0.0,0.0,0.0,0.0,0.0,0.0,0.9247,0.2673,-0.0678,-0.3448,-0.5864,-0.7967,-0.9772,-1.1572,-1.3614,-1.5831,-1.8004,-1.9793,-2.1035,-2.1874,-2.2042,0.0,0.0,0.0,-1.5404,-1.3398,-1.1572,-1.0124,0.0,-0.9179,-0.9379,-0.9862,-1.0635,-1.1809,-1.2586,-1.2477,-1.4216,-1.536,-1.5172,-1.5815,-1.6266,-1.6266,-1.588,-1.5018,-1.3533,-1.3983,-1.4334,-1.4436,-1.4308,-1.3841,-1.3049,-1.263,-1.202,-1.123,-1.0804,-1.0638,-1.0778,-1.0628,-1.0446,-1.0185,-1.0497,-1.0104,-0.9387,-1.0234,-0.9843,-0.8613,-0.8156,-0.7697,-0.7242,-0.6334,-0.6009,-0.6075,0.0,0.0,0.0,0.0,0.0,0.0,0.0,-1.4756,-1.484,-1.5944,-1.5722,-1.5599,-1.5929,-1.7492,-1.8239,0.0,0.0,0.0,0.0,0.0,0.0,0.0,0.0,0.0,0.0,0.0,0.0,-1.9041,-2.0258,0.0,0.0,0.0,0.0,0.0,-1.9467,-1.9701,-2.0245,-1.9799,-2.0366,0.0,0.0,-2.1181,0.0,0.0,0.0,0.0,0.0,0.0,0.0,0.0,0.6872,0.11,-0.1166,-0.4356,-0.7759,-1.0267,-1.2224,-1.3922,-1.5627,-1.7839,-1.9968,-2.103,-2.1963,-2.2602,-2.2454,-2.1314,0.0,-1.6892,-1.5027,-1.3346,-1.1576,-1.0319,-0.95,0.0,-0.9048,-0.9162,-0.9909,-1.0769,-1.1386,0.0,-1.3473,0.0,-1.4949,-1.6234,0.0,-1.7036,-1.6919,-1.603,-1.4286,-1.4595,-1.5028,-1.5362,-1.541,-1.4986,-1.4213,-1.3429,-1.2577,-1.1768,-1.0986,-1.0678,-1.0892,-1.0729,-1.0621,-1.0621,-1.0594,-1.0364,-1.0101,-1.0428,-0.9977,-0.8944,-0.8288,-0.7437,-0.6588,-0.5752,-0.5428,-0.5428,0.0,0.0,0.0,0.0,0.0,0.0,0.0,-1.4736,-1.4439,-1.4734,-1.5154,-1.5847,-1.7024,-1.8174,-1.9013,0.0,0.0,0.0,0.0,0.0,0.0,0.0,0.0,0.0,0.0,0.0,0.0,-2.015,-2.0288,0.0,0.0,0.0,0.0,0.0,0.0,-2.0556,-2.113,-2.03,0.0,0.0,0.0,0.0,0.0,0.0,0.0,0.0,0.0,0.0,0.0,0.0,0.0,-0.4341,-0.6383,-0.9874,-1.3175,-1.3003,0.0,0.0,-1.7217,-1.8933,-2.0941,-2.2002,-2.2848,-2.2942,-2.1205,0.0,-1.9425,-1.5359,-1.5001,-1.4875,-1.303,-1.2555,-1.2015,-1.0801,-1.0108,-0.9957,-1.0614,-1.0619,-1.1149,-1.2619,0.0,0.0,-1.507,-1.5996,-1.655,-1.655,-1.5929,-1.5483,-1.5282,-1.5312,-1.5332,-1.541,-1.541,-1.4986,-1.4213,-1.3429,-1.2577,-1.1768,-1.0986,-1.0638,-1.0665,-1.0635,-1.0187,-0.9502,-1.0251,-0.9713,0.0,-0.9974,-0.9649,-0.8091,-0.8027,-0.7437,-0.6588,-0.5752,-0.5428,-0.5428,0.0,0.0,0.0,0.0,0.0,0.0,-1.5202,-1.4751,-1.4554,-1.4916,-1.4792,-1.5216,-1.6617,-1.7496,-1.8543,-1.988,0.0,0.0,0.0,0.0,0.0,0.0,0.0,0.0,0.0,0.0,-2.0578,-2.1141,-2.0583,0.0,0.0,0.0,0.0,0.0,0.0,-2.0442,-2.056,-2.0294,0.0,0.0,0.0,0.0,0.0,0.0,0.0,0.0,0.0,0.0,0.0,0.0,0.0,0.0,-1.425,-1.6566,0.0,0.0,-1.6545,-1.7937,-1.937,-2.0956,-2.2246,-2.2272,-2.2529,-2.2365,-2.0786,0.0,-1.8308,-1.5929,-1.5524,-1.5276,-1.4201,-1.3946,-1.3538,-1.2234,-1.1056,-1.0144,-0.9611,-0.9474,-0.9585,-1.0019,-1.2049,0.0,0.0,0.0,-1.7186,-1.7314,-1.6651,-1.6064,-1.5578,-1.5441,-1.541,-1.541,-1.541,-1.5235,-1.4932,-1.367,-1.2826,-1.2516,-1.1358,-1.0818,-1.0818,-1.0818,-1.0624,-1.0347,-1.0507,-0.9913,-0.8877,-1.0104,-0.9582,-0.8027,-0.8027,-0.7437,-0.6588,-0.5752,-0.5428,-0.5428,0.0,0.0,0.0,0.0,0.0,-1.5254,-1.5087,-1.4665,-1.4504,-1.4908,-1.4595,-1.4806,-1.6065,-1.6987,-1.8074,-1.9458,-1.9862,0.0,0.0,0.0,0.0,0.0,0.0,0.0,0.0,0.0,-2.0623,-2.1287,-2.0621,-2.0792,0.0,0.0,-2.0556,-2.0842,0.0,0.0,0.0,0.0,0.0,0.0,0.0,0.0,0.0,0.0,0.0,0.0,0.0,0.0,0.0,0.0,0.0,0.0,0.0,0.0,0.0,0.0,-1.8008,-1.8656,-2.0151,-2.1453,-2.2328,-2.2013,-2.1865,-2.153,0.0,0.0,-1.7794,-1.6456,-1.6131,-1.5878,-1.5073,-1.4943,-1.4459,-1.2954,-1.1397,-1.0007,-0.8877,-0.8531,-0.8453,0.0,0.0,-1.2913,-1.3717,-1.5844,-1.7378,-1.7845,-1.7208,-1.6642,-1.6265,-1.5915,-1.5642,-1.5415,-1.541,-1.541,-1.541,-1.4206,-1.3479,-1.3312,-1.2303,-1.1581,-1.1241,-1.1241,-1.1115,-1.0852,-1.0651,-1.0107,-0.9338,-1.0238,-0.9713,-0.8355,-0.8091,-0.7635,-0.6915,-0.5817,-0.5428,-0.5428,0.0,0.0,0.0,0.0,0.0,0.0,-1.5027,-1.4432,-1.4095,-1.4367,-1.4522,-1.488,-1.5629,-1.6953,-1.7877,-1.8109,-1.9212,0.0,0.0,0.0,0.0,0.0,0.0,0.0,0.0,0.0,-2.0302,-2.0309,-2.0295,-2.0749,-2.1581,-2.0782,-2.0858,-2.1652,0.0,0.0,0.0,0.0,0.0,0.0,0.0,0.0,0.0,0.0,0.0,0.0,0.0,0.0,0.0,0.0,0.0,0.0,0.0,0.0,0.0,0.0,-1.9351,-1.9732,-1.902,-1.9657,-2.0639,-2.1176,-2.0957,-2.0563,0.0,-1.9522,-1.8297,-1.6557,-1.6763,-1.6905,-1.5724,-1.5498,-1.4856,-1.281,-1.0918,-0.9478,-0.878,-0.8128,-0.8175,0.0,0.0,-1.2088,-1.3459,-1.5169,-1.6694,-1.7798,-1.7208,0.0,-1.7539,-1.6866,-1.6145,-1.541,-1.541,-1.541,-1.541,-1.5037,-1.4667,-1.4154,-1.3738,-1.2971,-1.1776,-1.1776,-1.1355,-1.0628,-1.0624,-1.0107,0.0,-1.0238,-1.0107,-0.9207,-0.8353,-0.8027,-0.7767,-0.6015,-0.5428,-0.5428,0.0,0.0,0.0,0.0,0.0,0.0,0.0,-1.4884,-1.4882,-1.5245,-1.5327,-1.5628,-1.6307,-1.7272,-1.7861,-1.7828,-1.8633,0.0,0.0,0.0,0.0,0.0,0.0,0.0,0.0,0.0,-2.026,-2.0155,-2.0155,-2.0334,-2.0642,-2.0338,-2.0727,-2.1665,-2.0735,-2.0627,0.0,0.0,0.0,0.0,0.0,0.0,0.0,0.0,0.0,0.0,0.0,0.0,0.0,0.0,0.0,0.0,0.0,0.0,0.0,-1.7685,0.0,0.0,-1.9944,-2.0526,-2.1005,-2.1136,-2.0847,-2.0305,-1.948,-1.8604,-1.7647,-1.6452,-1.6492,-1.6386,-1.5168,-1.5291,-1.4761,-1.2325,-1.0644,-0.9098,0.0,0.0,0.0,-0.7819,-1.0322,-1.2681,0.0,0.0,-1.6115,-1.6824,-1.7418,-1.7601,-1.7285,-1.7744,-1.7407,-1.6203,-1.5637,-1.541,-1.541,-1.4758,-1.4335,-1.4213,-1.3164,-1.2336,-1.1779,-1.1443,-1.0995,-1.0624,-1.0624,-1.0107,-0.9338,-1.0238,-0.9716,-0.842,-0.8745,-0.8156,-0.7046,-0.6461,-0.5879,-0.5428,0.0,0.0,0.0,0.0,0.0,0.0,0.0,-1.4926,-1.4953,-1.5118,-1.5609,-1.5993,-1.6187,-1.7424,-1.8095,-1.7731,-1.8285,0.0,0.0,0.0,0.0,0.0,0.0,0.0,0.0,-2.0186,-2.0015,-1.9611,-1.9632,-1.9672,-1.9699,-1.9302,-1.9999,-2.1544,-2.0665,-2.076,0.0,0.0,0.0,0.0,0.0,0.0,-2.1013,0.0,0.0,0.0,0.0,0.0,0.0,0.0,0.0,0.0,0.0,0.0,0.0,0.0,-1.7166,-1.8215,0.0,-1.9537,-1.9929,-2.0082,-1.9819,-1.9326,-1.8582,-1.7821,-1.7069,-1.6434,-1.6553,-1.652,-1.5531,-1.5274,-1.4399,-1.1999,-1.007,-0.8222,0.0,0.0,0.0,-0.8552,0.0,0.0,0.0,-1.5355,-1.5967,-1.6981,-1.7935,-1.8387,-1.814,-1.8468,-1.828,-1.7363,-1.6363,-1.5811,-1.5811,-1.5203,-1.4846,-1.4633,-1.3973,-1.3331,-1.2692,-1.2052,-1.1478,-1.1045,-1.0744,-1.0107,0.0,-1.0238,-0.9779,-0.8549,-0.9075,-0.8616,-0.7632,-0.7307,-0.6854,-0.6406,0.0,0.0,0.0,0.0,0.0,0.0,0.0,-1.4671,-1.455,-1.4315,-1.5482,-1.6154,-1.565,-1.7532,-1.8572,-1.7912,0.0,0.0,0.0,0.0,0.0,0.0,0.0,0.0,-1.98,-1.9993,-1.9672,-1.879,-1.886,-1.8853,-1.8779,-1.7889,-1.8849,-2.1273,-2.0518,-2.0776,-2.1776,-2.1579,-2.1957,-2.2659,-2.2445,-2.1554,0.0,0.0,0.0,0.0,0.0,0.0,0.0,0.0,0.0,0.0,0.0,0.0,0.0,0.0,0.0,0.0,0.0,-1.7069,-1.7757,-1.8306,-1.8092,-1.7761,-1.7765,-1.7159,0.0,-1.6457,-1.6789,-1.6915,-1.6274,-1.5186,-1.3706,-1.1565,-0.9165,0.0,0.0,-0.6568,0.0,0.0,-1.1695,0.0,-1.4468,-1.5227,-1.6301,-1.7956,-1.8645,-1.924,-1.9723,-1.9131,-1.8768,-1.8768,-1.7418,-1.6595,-1.6487,-1.6281,-1.587,-1.5415,-1.576,-1.5371,-1.4149,-1.3368,-1.2573,-1.1772,-1.0986,-1.0168,-0.9466,-1.0301,-1.011,-0.9402,-0.9402,-0.9335,-0.9207,-0.8417,-0.8027,-0.8027,0.0,0.0,0.0,0.0,0.0,0.0,0.0,0.0,0.0,0.0,-1.6116,-1.6956,-1.7483,-1.8569,-1.9267,0.0,0.0,0.0,0.0,0.0,0.0,0.0,0.0,0.0,-1.979,-1.9999,-1.9654,-1.8719,-1.8744,-1.8432,-1.7828,-1.7457,-1.8363,-2.0317,-2.0184,-2.1387,-2.3505,-2.3467,-2.382,-2.4314,-2.3316,-2.2027,0.0,0.0,0.0,0.0,-1.5534,-1.5065,0.0,0.0,0.0,0.0,0.0,0.0,0.0,0.0,-1.4632,-1.4607,-1.4923,0.0,-1.7093,-1.7723,-1.7126,-1.6538,0.0,-1.6409,-1.5605,-1.5801,0.0,0.0,-1.3859,-1.3397,-1.218,-0.9043,0.0,-0.7195,-0.6066,0.0,0.0,-1.1124,-1.2668,-1.374,-1.3973,-1.5728,-1.6872,-1.6827,-1.8159,-1.9083,-1.9202,-1.9425,-1.9527,-1.9527,-1.8661,-1.7627,-1.6487,-1.6425,-1.6085,-1.5415,-1.4909,-1.4483,-1.4149,-1.3368,-1.2573,-1.1772,-1.1589,-1.1038,-1.0301,-1.0498,-1.0495,-1.0301,-1.0301,-0.9916,-0.9274,-0.9072,-0.8552,-0.8027,0.0,0.0,0.0,0.0,0.0,0.0,0.0,0.0,0.0,0.0,0.0,0.0,0.0,0.0,0.0,0.0,0.0,0.0,0.0,0.0,0.0,0.0,0.0,-1.9527,-1.9841,-1.9915,-1.9405,-1.8286,-1.7979,-1.7343,-1.6386,-1.5994,-1.7054,-1.932,-2.0658,-2.2048,-2.341,-2.341,-2.3869,-2.4476,-2.3235,0.0,0.0,0.0,0.0,0.0,-1.5237,-1.4777,0.0,-1.452,-1.4419,-1.4191,0.0,0.0,0.0,0.0,-1.3954,-1.3995,-1.4423,-1.5269,-1.6148,-1.6678,-1.6156,-1.5556,-1.5862,0.0,0.0,0.0,0.0,0.0,0.0,0.0,0.0,0.0,-0.7665,0.0,0.0,0.0,-1.0329,-1.1864,-1.3428,-1.4535,0.0,-1.6561,-1.7751,-1.8013,-1.8876,-1.9478,-1.9821,-1.9794,-1.9805,-1.9805,-1.9417,-1.8661,-1.7523,-1.6816,-1.6322,-1.5921,-1.5104,-1.4746,-1.4751,-1.391,-1.3211,-1.2578,-1.2008,-1.1443,-1.0846,-1.0686,-1.0478,-1.0371,-1.0571,-1.022,-0.9678,-0.9869,-0.9588,-0.9192,0.0,0.0,0.0,0.0,0.0,0.0,0.0,0.0,0.0,0.0,0.0,0.0,0.0,0.0,0.0,0.0,0.0,0.0,0.0,0.0,0.0,0.0,0.0,-1.9616,-1.979,-1.9573,-1.8832,-1.7562,-1.6675,-1.5809,-1.4957,-1.4307,-1.5675,-1.877,-2.1422,-2.275,-2.3012,-2.3012,-2.3495,-2.4159,-2.28,0.0,0.0,0.0,0.0,0.0,0.0,0.0,0.0,-1.4564,-1.4526,-1.4307,-1.3656,0.0,0.0,0.0,0.0,0.0,-1.4411,-1.4808,-1.5223,-1.5534,-1.5167,-1.4658,-1.4401,0.0,0.0,0.0,0.0,0.0,0.0,-1.167,0.0,0.0,0.0,0.0,-0.952,-1.0192,-1.1186,-1.2973,-1.4376,0.0,-1.6432,-1.7704,-1.894,-2.008,-2.0023,-2.0201,-2.0752,-2.015,-1.9805,-1.9805,-1.9805,-1.9475,-1.8874,-1.7413,-1.6595,-1.6487,-1.5683,-1.5317,-1.5312,-1.4599,-1.4023,-1.3446,-1.2514,-1.1715,-1.1063,-1.0805,-1.0492,-1.0207,-1.0461,-1.0404,-1.0217,-1.053,-1.0624,-1.0624,0.0,0.0,0.0,0.0,0.0,0.0,0.0,0.0,0.0,0.0,0.0,0.0,0.0,0.0,0.0,0.0,0.0,0.0,0.0,0.0,0.0,-1.9491,-1.9328,-1.9278,-1.9307,-1.8353,-1.7385,-1.6443,-1.4644,-1.3949,-1.4314,-1.3557,-1.5559,-1.9917,-2.177,-2.3453,-2.4889,-2.4889,-2.4966,-2.4937,-2.2867,0.0,0.0,0.0,0.0,0.0,0.0,0.0,0.0,-1.4883,-1.4634,-1.4275,-1.4778,0.0,0.0,0.0,0.0,0.0,-1.4202,-1.4506,-1.4933,-1.4895,-1.4181,-1.3595,-1.404,0.0,0.0,0.0,0.0,0.0,0.0,-1.1644,-1.0128,0.0,0.0,-0.9582,0.0,0.0,-1.4421,-1.4443,0.0,-1.8019,-1.7904,-1.9419,-2.0501,-2.0751,-2.0708,-2.0703,-2.0795,-2.015,-1.9805,-1.9805,-1.9805,-1.9747,-1.9637,-1.8172,-1.7141,-1.6487,-1.5384,-1.4883,-1.4883,-1.476,-1.4073,-1.3034,-1.3257,-1.2505,-1.1104,-1.1036,-1.084,-1.0561,-1.0604,-1.0594,-1.0561,-1.0604,-1.0624,-1.0624,0.0,0.0,0.0,0.0,0.0,0.0,0.0,0.0,0.0,0.0,0.0,0.0,0.0,0.0,0.0,0.0,0.0,0.0,0.0,0.0,0.0,-1.9172,-1.8618,-1.8252,-1.8075,-1.6636,-1.5294,-1.4097,-1.2984,-1.2759,-1.342,-1.4748,-1.7057,-2.0123,-2.1839,-2.332,-2.4566,-2.4968,-2.5141,-2.4991,0.0,0.0,0.0,0.0,0.0,0.0,0.0,0.0,0.0,0.0,-1.5036,-1.4513,-1.4791,0.0,0.0,0.0,0.0,0.0,-1.4025,-1.4026,-1.3923,-1.3599,-1.3361,-1.3151,-1.2916,0.0,0.0,0.0,0.0,0.0,0.0,0.0,-0.9817,-0.8689,0.0,-1.0654,-1.2074,-1.3686,-1.5019,0.0,0.0,-1.8518,-1.8976,-2.0103,-2.1116,-2.1826,-2.1525,-2.13,-2.13,-2.0683,-2.015,-1.9798,-1.9805,-1.9805,-1.9805,-1.8715,-1.7846,-1.7085,-1.5533,-1.4785,-1.478,-1.4541,-1.3974,-1.3221,-1.3245,-1.2677,-1.1735,-1.1779,-1.1334,-1.07,-1.1094,-1.0881,-1.0337,-1.0501,-1.0624,-1.0624,0.0,0.0,0.0,0.0,0.0,0.0,0.0,0.0,0.0,0.0,0.0,0.0,0.0,0.0,0.0,0.0,0.0,0.0,0.0,0.0,-2.006,-1.9052,-1.8009,-1.7158,-1.6529,-1.472,-1.3167,-1.1872,-1.1434,-1.1708,-1.282,-1.6204,-1.862,-2.0181,-2.211,-2.3424,-2.4224,-2.477,-2.4977,-2.485,0.0,0.0,0.0,0.0,0.0,0.0,0.0,0.0,0.0,0.0,0.0,0.0,0.0,0.0,0.0,-1.3846,-1.3804,-1.3699,-1.4081,-1.3944,-1.3505,-1.2714,0.0,-1.3132,-1.2055,0.0,0.0,0.0,0.0,0.0,0.0,-1.1351,0.0,-0.951,-1.0288,-1.1696,-1.3642,-1.4345,-1.5316,-1.7,-1.7993,-1.8952,-2.006,-2.0799,-2.1704,-2.283,-2.2292,-2.1946,-2.1946,-2.121,-2.0547,-2.0048,-1.9901,-1.9805,-1.9805,-1.888,-1.8172,-1.7567,-1.5737,-1.4785,-1.4619,-1.4185,-1.376,-1.3333,-1.3106,-1.2778,-1.229,-1.2385,-1.1865,-1.1134,-1.1703,-1.1376,-1.0482,-1.06,-1.0624,-1.0624,0.0,0.0,0.0,0.0,0.0,0.0,0.0,0.0,0.0,0.0,0.0,0.0,0.0,0.0,0.0,0.0,0.0,0.0,0.0,0.0,-2.0878,-1.9696,-1.7975,-1.6328,-1.4814,-1.278,-1.136,-1.0641,-0.9799,-1.059,-1.2977,-1.7063,-1.9474,-2.0483,-2.2975,-2.4428,-2.5013,-2.4996,-2.4933,-2.4681,-2.3116,0.0,0.0,0.0,0.0,0.0,0.0,0.0,0.0,0.0,0.0,0.0,0.0,0.0,-1.3247,-1.3489,-1.4292,-1.5033,-1.4586,-1.4812,-1.4722,-1.2955,-1.3285,0.0,-1.2129,-1.2956,0.0,-1.4069,0.0,0.0,0.0,-1.2064,-1.0625,-1.0305,-1.1432,-1.272,-1.37,0.0,-1.6503,-1.7667,-1.9037,-2.0327,-2.1452,-2.2154,-2.283,-2.3465,-2.2965,-2.2649,-2.2649,-2.1465,-2.0802,-2.0746,-2.0099,-1.9805,-1.9805,-1.8394,-1.7627,-1.7567,-1.5977,-1.4835,-1.4165,-1.3745,-1.3325,-1.2949,-1.3319,-1.3006,-1.2298,-1.2307,-1.2295,-1.2268,-1.2321,-1.2102,-1.1618,-1.0856,-1.0624,-1.0624,0.0,0.0,0.0,0.0,0.0,0.0,0.0,0.0,0.0,0.0,0.0,0.0,0.0,0.0,0.0,0.0,0.0,0.0,0.0,-2.0371,-2.0371,-1.9371,-1.7585,-1.6138,-1.5058,-1.2305,-1.0403,-0.9452,-1.0711,-1.276,-1.5566,-1.8018,-2.0215,-2.2139,-2.3479,-2.4178,-2.435,-2.4366,-2.4064,-2.3466,-2.2348,-2.1176,0.0,0.0,0.0,0.0,0.0,0.0,0.0,0.0,-1.4637,-1.3347,-1.4406,-1.4033,-1.3314,-1.3933,-1.4456,-1.4759,-1.4563,-1.448,-1.4166,-1.3146,-1.3497,0.0,0.0,-1.2489,-1.3548,-1.3606,-1.3794,0.0,0.0,0.0,-1.185,-1.1324,-1.2247,-1.3472,-1.4695,-1.5947,-1.7222,-1.8453,-1.9058,-1.9985,-2.1527,-2.1926,-2.2345,-2.2976,-2.2849,-2.2534,-2.2111,-2.1285,-2.0798,-2.0789,-2.0156,-1.9805,-1.9805,-1.9254,-1.8501,-1.7567,-1.5828,-1.4651,-1.4063,-1.3701,-1.3281,-1.2891,-1.3047,-1.2961,-1.2676,-1.2931,-1.293,-1.2746,-1.2751,-1.2205,-1.1367,-1.1334,-1.1048,-1.0624,0.0,0.0,0.0,0.0,0.0,0.0,0.0,0.0,0.0,0.0,0.0,0.0,0.0,0.0,0.0,0.0,0.0,0.0,-1.8741,-1.9529,-1.9668,-1.8941,-1.7655,-1.6429,-1.5293,-1.3009,-1.1291,-1.0199,-1.2179,-1.4392,-1.6753,-1.8424,-2.0128,-2.1858,-2.3064,-2.3324,-2.2881,-2.3152,-2.2868,-2.2177,-2.1779,-2.0947,0.0,0.0,0.0,0.0,0.0,0.0,0.0,0.0,-1.4758,-1.3437,-1.452,-1.4227,-1.3645,-1.427,-1.466,-1.4913,-1.5041,-1.4772,-1.4249,0.0,0.0,0.0,-1.1475,-1.2324,-1.3413,-1.3134,-1.3551,0.0,-1.3195,0.0,0.0,0.0,-1.2934,-1.4003,-1.5327,-1.6332,-1.7322,-1.8604,-1.907,-1.9858,-2.1255,-2.1591,-2.1867,-2.236,-2.2368,-2.2277,-2.2025,-2.126,-2.0892,-2.1099,-2.0078,-1.9635,-1.9805,-1.9412,-1.8659,-1.7567,-1.6324,-1.5109,-1.4063,-1.3564,-1.3154,-1.2881,-1.2881,-1.2881,-1.2905,-1.3188,-1.3318,-1.3264,-1.3182,-1.2745,-1.2055,-1.1867,-1.1469,-1.0926,0.0,0.0,0.0,0.0,0.0,0.0,0.0,0.0,0.0,0.0,0.0,0.0,0.0,0.0,0.0,0.0,0.0,0.0,-1.7742,-1.8611,-1.8925,-1.8514,-1.8314,-1.7273,-1.5293,-1.4912,-1.4237,-1.3224,-1.4022,-1.4934,-1.5966,-1.8174,-1.9135,-1.9114,-2.1598,-2.1905,-2.0634,-2.1389,-2.1425,-2.1016,-2.1415,-2.0938,-1.9866,0.0,0.0,0.0,0.0,0.0,0.0,0.0,-1.5379,-1.4224,-1.4303,-1.4264,-1.4232,-1.4303,-1.4979,-1.5789,-1.6188,-1.5948,-1.5301,0.0,0.0,0.0,-1.1345,-1.2625,-1.381,-1.2818,-1.3286,-1.3873,-1.3709,-1.3294,0.0,-1.2831,-1.3369,-1.4226,-1.5448,-1.6046,-1.6863,-1.8044,-1.9203,-2.0102,-2.0666,-2.1315,-2.1687,-2.1687,-2.1687,-2.1971,-2.2664,-2.1474,-2.105,-2.1662,-1.9937,-1.9271,-1.9786,-1.8551,-1.7821,-1.7561,-1.7556,-1.6347,-1.4053,-1.3271,-1.2886,-1.2881,-1.2881,-1.2881,-1.2881,-1.2891,-1.3384,-1.4058,-1.3764,-1.3866,-1.4021,-1.2439,-1.183,-1.1714,0.0,0.0,0.0,0.0,0.0,0.0,0.0,0.0,0.0,0.0,0.0,0.0,0.0,0.0,0.0,0.0,0.0,0.0,-1.6866,-1.8274,-1.9051,-1.8925,-1.8816,-1.877,-1.879,-1.8004,-1.668,-1.482,-1.5249,-1.6093,-1.7328,-1.8457,-1.927,-1.983,-2.1035,-2.0947,-1.9952,-2.0771,-2.0394,-1.9268,-1.9585,-1.9513,-1.9106,0.0,0.0,0.0,0.0,0.0,0.0,0.0,0.0,0.0,-1.5376,-1.5461,-1.5328,-1.5288,-1.5688,-1.6144,-1.6266,-1.5565,0.0,-1.4318,0.0,0.0,0.0,-1.275,0.0,0.0,-1.3822,-1.4074,-1.4387,-1.4333,0.0,-1.4127,-1.4675,-1.5303,-1.6046,-1.6653,-1.7434,-1.8553,-1.8981,-1.9602,-2.0585,-2.0876,-2.1129,-2.1414,-2.116,-2.122,-2.1697,-2.028,-1.9775,-2.0412,-1.9144,-1.8518,-1.8675,-1.8312,-1.7601,-1.6608,-1.6255,-1.5405,-1.4121,-1.4368,-1.3912,-1.2881,-1.2881,-1.2881,-1.2925,-1.352,-1.3735,-1.3742,-1.4534,-1.4413,-1.3776,-1.3562,-1.2744,-1.1772,0.0,0.0,0.0,0.0,0.0,0.0,0.0,0.0,0.0,0.0,0.0,0.0,0.0,0.0,0.0,0.0,0.0,0.0,0.0,-1.7628,-1.8601,-1.862,-1.9204,-1.9591,-1.9744,-1.8755,-1.7792,-1.685,-1.629,-1.6608,-1.7745,-1.7846,-1.8152,-1.8626,-1.9258,-1.8932,-1.7946,-1.8796,-1.8497,-1.7539,-1.8275,-1.8523,-1.8399,0.0,0.0,0.0,0.0,0.0,0.0,0.0,0.0,0.0,-1.629,-1.6333,-1.6077,-1.5931,-1.6072,-1.6277,-1.6297,-1.5389,0.0,-1.4187,-1.3521,-1.2996,-1.3437,0.0,0.0,0.0,-1.4138,-1.4083,-1.4678,-1.4769,0.0,-1.5016,-1.5734,-1.6372,-1.6695,-1.7443,-1.8178,-1.881,-1.9088,-1.9487,-2.0229,-2.0303,-2.0458,-2.0856,-2.0689,-2.0767,-2.1278,-2.0162,-1.9626,-1.988,-1.8798,-1.8204,-1.8204,-1.799,-1.7434,-1.6572,-1.631,-1.5521,-1.4212,-1.4292,-1.3791,-1.2881,-1.2881,-1.2881,-1.2935,-1.3608,-1.3833,-1.3848,-1.4795,-1.4816,-1.4299,-1.4246,-1.3356,-1.2201,0.0,0.0,0.0,0.0,0.0,0.0,0.0,0.0,0.0,0.0,0.0,0.0,0.0,0.0,0.0,0.0,0.0,0.0,0.0,0.0,-1.7869,-1.8001,-1.9477,-1.9887,-1.9026,-1.8111,-1.804,-1.8852,-1.7133,-1.6715,-1.751,-1.6734,-1.6344,-1.6314,-1.6853,-1.6454,-1.5415,-1.6184,-1.6255,-1.5992,-1.738,-1.7808,-1.7676,-1.8119,0.0,0.0,0.0,0.0,0.0,0.0,0.0,0.0,-1.7167,-1.7052,-1.6728,-1.6377,-1.6298,-1.6302,-1.6328,0.0,0.0,-1.3887,-1.3253,0.0,-1.392,-1.4137,-1.4272,-1.4612,0.0,-1.4063,-1.4723,-1.4791,-1.4947,-1.5567,-1.65,-1.7248,-1.7342,-1.826,-1.893,-1.8968,-1.9406,-1.9718,-1.9747,-1.9747,-1.9937,-2.0374,-2.034,-2.0578,-2.1241,-2.0609,-2.0103,-1.9765,-1.8685,-1.8092,-1.8047,-1.7551,-1.7205,-1.6966,-1.7026,-1.609,-1.4322,-1.3459,-1.3012,-1.2881,-1.2881,-1.2881,-1.2915,-1.3374,-1.3794,-1.4126,-1.4658,-1.5078,-1.5289,-1.4569,-1.379,-1.3005,0.0,0.0,0.0,0.0,0.0,0.0,0.0,0.0,0.0,0.0,0.0,0.0,0.0,0.0,0.0,0.0,0.0,0.0,0.0,0.0,-1.8172,-1.8812,-1.9782,-2.0159,-1.985,-1.9575,-1.9133,-1.8506,-1.7546,-1.7289,-1.7714,-1.6659,-1.6175,-1.6221,-1.6186,-1.6092,-1.5948,-1.6342,-1.6156,-1.5657,-1.6323,-1.6488,-1.6386,-1.7043,-1.7039,0.0,0.0,0.0,0.0,0.0,0.0,0.0,-1.8494,-1.844,-1.7997,-1.7164,-1.6948,-1.6945,-1.6759,-1.5899,0.0,0.0,-1.423,-1.4309,-1.4807,-1.5253,-1.5379,-1.4687,-1.4405,-1.4459,-1.5087,-1.5158,-1.5286,-1.5887,-1.6611,-1.726,-1.7695,-1.842,-1.905,-1.9486,-1.9646,-1.9803,-2.0158,-2.0185,-2.0483,-2.1259,-2.0699,-2.0512,-2.1043,-1.9903,-1.8984,-1.8479,-1.7847,-1.7281,-1.6879,-1.6766,-1.6429,-1.5926,-1.5476,-1.4774,-1.3926,-1.415,-1.3756,-1.2881,-1.2881,-1.2881,-1.2939,-1.3686,-1.4,-1.4155,-1.4976,-1.5332,-1.5352,-1.523,-1.4628,-1.3846,0.0,0.0,0.0,0.0,0.0,0.0,0.0,0.0,0.0,0.0,0.0,0.0,0.0,0.0,0.0,0.0,0.0,0.0,0.0,0.0,-1.8402,-1.9624,-2.0084,-2.0221,-2.0064,-1.9641,-1.9093,-1.84,-1.705,-1.6533,-1.6767,-1.576,-1.5335,-1.5433,-1.5366,-1.5392,-1.5527,-1.5674,-1.5486,-1.5125,-1.5659,-1.5735,-1.5631,-1.6234,-1.6288,-1.6126,-1.659,0.0,0.0,0.0,0.0,0.0,0.0,0.0,-1.8263,-1.7587,-1.6981,-1.6524,0.0,0.0,0.0,-1.4889,0.0,-1.5384,-1.5892,-1.6174,-1.6087,-1.5294,-1.4931,-1.4867,-1.5236,-1.5476,-1.5729,-1.6034,-1.7098,-1.7878,-1.7914,-1.8688,-1.9471,-1.9929,-2.0,-2.0166,-2.0591,-2.0624,-2.091,-2.1552,-2.1007,-2.0756,-2.0999,-1.9869,-1.8902,-1.8131,-1.7585,-1.7034,-1.6515,-1.6515,-1.6337,-1.6008,-1.5152,-1.4247,-1.3382,-1.3665,-1.3459,-1.2881,-1.2881,-1.2993,-1.3228,-1.3872,-1.4204,-1.4512,-1.5156,-1.541,-1.541,-1.541,-1.4869,-1.4122,0.0,0.0,0.0,0.0,0.0,0.0,0.0,0.0,0.0,0.0,0.0,0.0,0.0,0.0,0.0,0.0,0.0,0.0,0.0,0.0,0.0,-1.9954,-2.0137,-2.0075,-1.976,-1.9069,-1.8432,-1.7862,-1.6133,-1.5282,0.0,-1.4629,-1.4427,-1.4595,-1.4665,-1.4776,-1.492,-1.4903,-1.4812,-1.4709,-1.5164,-1.5236,-1.5111,-1.5573,-1.573,-1.5761,-1.6253,-1.6462,-1.6614,-1.73,0.0,0.0,0.0,0.0,-1.7942,-1.7603,-1.6795,-1.6072,0.0,0.0,-1.4015,-1.5338,-1.5816,0.0,-1.6629,-1.6696,-1.6473,-1.5911,-1.5485,-1.5255,-1.5387,-1.5745,-1.6053,-1.6048,-1.7367,-1.8253,-1.7918,-1.8822,-1.9682,-2.0135,-2.0246,-2.0475,-2.0959,-2.1063,-2.1283,-2.1688,-2.1283,-2.0999,-2.0999,-2.012,-1.9141,-1.8131,-1.7666,-1.7153,-1.6515,-1.6515,-1.6466,-1.6331,-1.5107,-1.3972,-1.2881,-1.2881,-1.2881,-1.2881,-1.2881,-1.312,-1.354,-1.3907,-1.439,-1.4824,-1.5244,-1.541,-1.541,-1.541,-1.4991,-1.4341,0.0,0.0,0.0,0.0,0.0,0.0,0.0,0.0,0.0,0.0,0.0,0.0,0.0,0.0,0.0,0.0,0.0,0.0,-1.612,0.0,0.0,-1.8821,-1.9491,-1.9537,-1.8801,-1.8509,-1.7498,-1.5705,-1.5103,0.0,0.0,0.0,0.0,-1.4602,-1.4669,-1.4812,-1.4975,-1.4918,-1.4917,-1.4935,-1.4841,-1.4683,-1.4548,-1.4962,-1.5042,-1.4977,-1.5236,-1.5512,-1.5869,-1.66,-1.6436,0.0,0.0,0.0,-1.7181,-1.685,-1.6881,-1.6906,0.0,0.0,-1.5053,0.0,-1.5832,-1.5757,0.0,0.0,-1.6251,0.0,-1.5741,-1.5698,-1.5721,-1.5802,-1.5832,-1.5854,-1.6479,-1.7135,-1.7669,-1.8384,-1.9081,-1.9707,-2.0097,-2.0475,-2.0959,-2.1314,-2.1697,-2.2172,-2.1454,-2.0999,-2.0999,-2.0174,-1.9199,-1.8138,-1.802,-1.751,-1.6515,-1.6515,-1.6238,-1.5726,-1.4503,-1.3552,-1.2881,-1.2881,-1.2881,-1.2881,-1.2881,-1.312,-1.354,-1.3907,-1.439,-1.4824,-1.5244,-1.541,-1.541,-1.541,-1.5347,-1.5104,0.0,0.0,0.0,0.0,0.0,0.0,0.0,0.0,0.0,0.0,0.0,0.0,0.0,0.0,0.0,-1.574,-1.5291,-1.5359,-1.6144,-1.682,-1.7415,-1.7907,-1.8699,-1.8721,-1.7836,-1.7732,-1.6855,-1.5196,0.0,0.0,0.0,-1.4114,-1.4396,0.0,0.0,0.0,-1.5004,-1.505,-1.5097,-1.5088,-1.4893,-1.4757,-1.4658,-1.4468,-1.4352,-1.4345,-1.4655,-1.4863,-1.5077,-1.5611,-1.571,-1.5673,-1.6068,0.0,0.0,0.0,-1.5805,0.0,-1.5759,-1.5616,-1.575,0.0,-1.6509,-1.6159,-1.6838,0.0,-1.6274,-1.6116,-1.5711,-1.5485,-1.5741,-1.5799,-1.5799,-1.5799,-1.6323,-1.6809,-1.7107,-1.8059,-1.891,-1.947,-2.0205,-2.0854,-2.1298,-2.1362,-2.1376,-2.1348,-2.0407,-1.9732,-1.9562,-1.8985,-1.8323,-1.7556,-1.7604,-1.7271,-1.6515,-1.6145,-1.5499,-1.4589,-1.4045,-1.3462,-1.2881,-1.2881,-1.2881,-1.2881,-1.2881,-1.312,-1.354,-1.3907,-1.439,-1.4824,-1.5244,-1.541,-1.541,-1.541,-1.541,-1.5323,0.0,0.0,0.0,0.0,0.0,0.0,0.0,0.0,0.0,0.0,0.0,0.0,0.0,0.0,0.0,0.0,-1.5235,-1.4982,-1.5543,-1.5806,-1.6219,-1.6858,-1.7703,-1.7732,-1.6844,-1.6771,-1.6072,-1.4689,0.0,0.0,-1.3388,-1.4171,-1.4411,0.0,-1.4905,-1.5117,0.0,0.0,0.0,0.0,-1.497,-1.4877,-1.4785,-1.4143,-1.3904,-1.3935,-1.4144,-1.4225,-1.4273,-1.4569,-1.4791,-1.4905,-1.4732,-1.4876,0.0,0.0,0.0,0.0,0.0,0.0,-1.6286,-1.7309,-1.7104,-1.6815,0.0,0.0,-1.6462,0.0,-1.5587,-1.5165,-1.5418,-1.5544,-1.561,-1.561,-1.6085,-1.6517,-1.6689,-1.7705,-1.865,-1.9175,-2.0106,-2.0798,-2.1008,-2.0893,-2.0607,-2.0225,-1.9299,-1.8669,-1.84,-1.7967,-1.7455,-1.6899,-1.689,-1.6594,-1.6089,-1.5434,-1.4681,-1.3821,-1.3637,-1.3329,-1.2881,-1.2881,-1.2881,-1.2881,-1.2881,-1.312,-1.353,-1.3843,-1.4297,-1.4814,-1.5132,-1.5317,-1.541,-1.541,-1.5347,-1.5225,0.0,0.0,0.0,0.0,0.0,0.0,0.0,0.0,0.0,0.0,0.0,0.0,-1.7641,-1.7193,-1.6648,-1.5881,-1.4916,-1.4299,-1.4201,-1.498,-1.5452,-1.551,-1.6465,0.0,-1.58,-1.5591,-1.487,0.0,0.0,0.0,-1.3312,-1.3671,-1.4033,-1.4428,-1.5543,-1.5621,-1.492,0.0,0.0,0.0,0.0,0.0,0.0,0.0,0.0,-1.3856,-1.3562,-1.3464,-1.3464,-1.3481,-1.3325,-1.3183,-1.3421,-1.3638,-1.3786,0.0,0.0,0.0,0.0,-1.6001,0.0,-1.6837,0.0,0.0,0.0,0.0,-1.6864,-1.5852,-1.5345,-1.4975,-1.4627,-1.4883,-1.5134,-1.5134,-1.5544,-1.6039,-1.6629,-1.7309,-1.8006,-1.8669,-1.9466,-1.9845,-1.9537,-1.9564,-1.9441,-1.9111,-1.8693,-1.843,-1.8408,-1.761,-1.6885,-1.6352,-1.5912,-1.5422,-1.4892,-1.4236,-1.3868,-1.3774,-1.3243,-1.2929,-1.2881,-1.2881,-1.2881,-1.2881,-1.2881,-1.312,-1.3506,-1.353,-1.4028,-1.4785,-1.481,-1.5059,-1.541,-1.541,-1.5161,-1.4868,0.0,0.0,0.0,0.0,0.0,0.0,0.0,0.0,0.0,0.0,0.0,0.0,0.0,-1.6565,-1.5944,-1.5578,-1.4628,-1.3958,-1.3733,-1.4168,-1.4723,-1.5374,-1.6245,-1.6392,-1.571,-1.6145,-1.5569,0.0,0.0,-1.3993,-1.3834,-1.4689,-1.4885,-1.4552,-1.5095,-1.5184,-1.4971,-1.5127,0.0,0.0,0.0,0.0,0.0,0.0,0.0,0.0,0.0,0.0,-1.3405,-1.3405,-1.3346,-1.3269,-1.3363,-1.3445,-1.3512,-1.3585,0.0,0.0,0.0,0.0,0.0,-1.8114,-1.8079,-1.7774,-1.8075,-1.7329,-1.6368,-1.5739,-1.5193,-1.4694,-1.4191,-1.4658,-1.5104,-1.5104,-1.5485,-1.5888,-1.6084,-1.6652,-1.7152,-1.7384,-1.85,-1.9138,-1.8796,-1.878,-1.8569,-1.8002,-1.7397,-1.6951,-1.6726,-1.6551,-1.6203,-1.5689,-1.532,-1.4679,-1.3735,-1.3768,-1.3595,-1.3243,-1.3017,-1.2881,-1.2881,-1.2881,-1.2881,-1.2881,-1.2881,-1.2964,-1.3125,-1.3394,-1.3686,-1.3994,-1.4263,-1.4629,-1.5005,-1.5005,-1.5088,-1.5171,0.0,0.0,0.0,0.0,0.0,0.0,0.0,0.0,0.0,-1.5505,0.0,0.0,0.0,0.0,-1.5128,-1.4638,-1.3979,-1.356,-1.3463,-1.3929,-1.4412,-1.4876,-1.5967,-1.629,-1.571,-1.6224,-1.5894,0.0,0.0,0.0,0.0,-1.5102,-1.5225,-1.4728,-1.4591,-1.4711,0.0,0.0,0.0,-1.486,0.0,0.0,-1.4201,0.0,0.0,0.0,0.0,0.0,0.0,-1.3701,-1.3608,-1.3405,-1.3405,-1.3346,-1.3265,0.0,0.0,0.0,-1.5275,0.0,0.0,0.0,0.0,-1.8023,-1.8004,-1.7193,-1.6235,-1.5367,-1.4892,-1.454,-1.4259,-1.4869,-1.5317,-1.4949,-1.5418,-1.5799,-1.5799,-1.6331,-1.6712,-1.6712,-1.7776,-1.835,-1.7876,-1.7864,-1.7575,-1.6923,-1.6417,-1.5975,-1.558,-1.5561,-1.5164,-1.4336,-1.4128,-1.3618,-1.2816,-1.3279,-1.3286,-1.2881,-1.2881,-1.2881,-1.2881,-1.2881,-1.2881,-1.2881,-1.2881,-1.2881,-1.2905,-1.3184,-1.3384,-1.3535,-1.3813,-1.4185,-1.4565,-1.4565,-1.4741,-1.4941,0.0,0.0,0.0,0.0,0.0,0.0,0.0,0.0,-1.4859,-1.4859,0.0,0.0,0.0,0.0,0.0,-1.3091,-1.2995,-1.3121,-1.3379,-1.4264,-1.4531,-1.4011,-1.5595,-1.6266,-1.5784,-1.5747,-1.5692,0.0,0.0,0.0,0.0,0.0,-1.4914,-1.4966,-1.4139,-1.4206,-1.4966,0.0,-1.4805,-1.4556,0.0,-1.4207,-1.392,0.0,0.0,0.0,-1.4322,-1.4056,0.0,-1.4267,0.0,0.0,0.0,0.0,0.0,0.0,0.0,0.0,0.0,0.0,0.0,0.0,0.0,0.0,-1.6614,0.0,-1.65,-1.4773,-1.4494,-1.4593,-1.4773,-1.5526,-1.5766,-1.4693,-1.5246,-1.5836,-1.5836,-1.6323,-1.6682,-1.6682,-1.7335,-1.7498,-1.6766,-1.6756,-1.6535,-1.5848,-1.5799,-1.561,-1.5134,-1.4683,-1.3823,-1.2413,-1.2344,-1.2277,-1.2156,-1.2656,-1.2881,-1.2881,-1.2881,-1.2881,-1.2881,-1.2881,-1.2881,-1.2881,-1.2881,-1.2881,-1.2881,-1.2881,-1.312,-1.3491,-1.3491,-1.3745,-1.4063,-1.4063,-1.4068,-1.4082,0.0,0.0,0.0,0.0,0.0,0.0,-1.3904,-1.3913,-1.4028,0.0,0.0,0.0,-1.4346,-1.3766,-1.3229,-1.2741,-1.2887,-1.3086,-1.3312,-1.3714,-1.4511,-1.5797,-1.6324,-1.6849,-1.7426,-1.6876,-1.6266,-1.5665,-1.5025,-1.4688,-1.466,-1.4287,-1.4416,0.0,-1.3601,-1.3451,-1.4203,-1.4203,0.0,-1.3708,-1.4311,-1.4549,0.0,0.0,0.0,0.0,0.0,-1.4826,-1.4234,0.0,-1.4014,-1.3405,0.0,0.0,0.0,0.0,0.0,0.0,-1.4253,0.0,0.0,0.0,0.0,0.0,0.0,0.0,-1.6043,-1.5233,-1.5147,-1.5074,-1.4652,-1.537,-1.5805,-1.5044,-1.5784,-1.6443,-1.6443,-1.6446,-1.6412,-1.6412,-1.7027,-1.726,-1.6811,-1.6797,-1.6607,0.0,-1.5934,-1.561,-1.5134,-1.4082,-1.301,-1.2007,-1.2178,-1.2118,-1.1792,-1.1978,-1.2344,-1.2881,-1.1895,-1.1895,-1.2881,-1.2344,-1.2398,-1.2881,-1.2881,-1.2881,-1.2881,-1.2881,-1.2949,-1.3052,-1.3052,-1.3311,-1.3682,-1.3682,-1.3872,-1.4034,0.0,0.0,0.0,0.0,0.0,-1.3396,-1.2832,-1.2721,-1.3011,0.0,0.0,0.0,-1.3684,-1.3111,-1.2729,-1.2602,-1.2918,-1.3201,-1.341,-1.3894,-1.4609,-1.5563,-1.6222,-1.6889,-1.7578,-1.6807,-1.6325,-1.6151,-1.5182,-1.4688,-1.4642,-1.4005,-1.3999,-1.4425,0.0,0.0,0.0,0.0,0.0,0.0,-1.4343,0.0,0.0,-1.5009,-1.5337,0.0,0.0,0.0,-1.4689,-1.5107,-1.4493,0.0,0.0,0.0,0.0,0.0,0.0,0.0,0.0,0.0,0.0,0.0,0.0,0.0,-1.6484,-1.6085,-1.5582,0.0,-1.4773,-1.5107,-1.5158,-1.6002,-1.6673,-1.6595,-1.7144,-1.7242,-1.645,-1.6645,-1.6864,-1.677,-1.7205,-1.7447,-1.7273,-1.7112,-1.6799,-1.6355,-1.6116,-1.5594,-1.4617,-1.3276,-1.211,-1.1143,-1.1303,-1.1214,-1.0824,-1.1075,-1.1469,-1.1999,-1.1174,-1.1229,-1.1999,-1.1575,-1.1778,-1.2452,-1.2452,-1.2613,-1.2881,-1.2881,-1.2881,-1.2881,-1.2881,-1.3027,-1.3247,-1.3247,-1.3511,-1.3813,0.0,0.0,-1.6168,-1.4384,-1.2721,-1.1598,-1.1449,-1.1279,-1.1841,0.0,-1.4033,-1.3911,-1.351,-1.2943,-1.2622,-1.2679,-1.3063,-1.3434,-1.3667,-1.4458,-1.4759,-1.4431,-1.5695,-1.6572,-1.6917,-1.6184,-1.607,-1.6638,-1.5355,-1.4626,-1.4405,-1.3725,-1.349,-1.3559,0.0,0.0,0.0,0.0,0.0,-1.3073,-1.4287,-1.4663,0.0,0.0,-1.5595,-1.5688,-1.6457,-1.5966,-1.5064,-1.5884,-1.508,0.0,0.0,0.0,0.0,0.0,-1.3472,0.0,0.0,0.0,0.0,0.0,-1.669,0.0,-1.4532,-1.4875,-1.517,0.0,-1.4113,-1.5052,-1.5927,-1.6971,-1.7884,-1.85,-1.8657,-1.8096,-1.6376,-1.712,-1.776,-1.7579,-1.7856,-1.8076,-1.8122,-1.7706,-1.7165,-1.6538,-1.6242,-1.5418,-1.3867,-1.2466,-1.1223,-1.0215,-1.0086,-0.9878,-0.9678,-1.0083,-1.0446,-1.0755,-1.0645,-1.0665,-1.0813,-1.0716,-1.1116,-1.1814,-1.1814,-1.2236,-1.2881,-1.2881,-1.2881,-1.2881,-1.2881,-1.2881,-1.2886,-1.2935,-1.3188,-1.3457,0.0,0.0,-1.5663,-1.3596,-1.2515,-1.1426,-0.9913,-1.0068,-1.064,-1.1473,-1.2179,-1.2786,-1.3213,-1.2823,-1.2695,-1.3133,-1.3351,-1.3669,-1.4207,-1.4309,-1.4766,-1.5691,-1.5802,-1.6228,-1.7034,-1.6593,-1.6116,-1.5674,-1.5187,-1.4378,-1.3293,-1.2569,-1.2354,-1.2521,0.0,0.0,0.0,0.0,0.0,-1.287,-1.3181,0.0,-1.457,-1.5325,-1.5595,-1.5708,-1.663,-1.6428,-1.5714,-1.5423,-1.4678,-1.3862,0.0,0.0,0.0,-1.3753,0.0,0.0,0.0,0.0,0.0,0.0,-1.5256,0.0,-1.555,-1.5345,-1.5057,0.0,-1.5855,-1.6478,-1.6164,-1.6971,-1.7727,-1.7861,-1.8358,-1.8575,-1.8186,-1.8455,-1.8657,-1.8609,-1.9194,-1.9588,-1.9588,-1.8734,-1.8016,-1.7612,-1.5898,-1.4547,-1.3841,-1.2052,-1.0811,-1.0215,-0.9711,-0.9409,-0.9398,-0.9498,-0.9893,-1.0489,-0.9592,-0.9762,-1.0767,-1.0265,-1.0665,-1.1814,-1.1814,-1.2236,-1.2881,-1.2881,-1.2881,-1.2881,-1.2881,-1.2881,-1.292,-1.3262,-1.3437,-1.3496,0.0,-1.551,-1.4734,-1.2746,-1.1283,-1.0009,-0.8786,-0.8887,-0.966,-1.1202,-1.2293,-1.3057,-1.3382,-1.3101,-1.3012,-1.3278,-1.3635,-1.419,-1.5,-1.4667,-1.494,-1.6045,-1.5518,-1.5616,-1.6479,-1.585,-1.542,-1.5257,-1.482,-1.3965,-1.2736,-1.2136,-1.1735,-1.1499,-1.0357,0.0,0.0,0.0,-1.088,-1.2034,-1.2944,0.0,-1.4589,-1.5422,-1.5684,-1.5677,-1.6248,-1.6866,-1.7188,-1.5816,-1.518,0.0,-1.4995,-1.5049,-1.4998,0.0,-1.4459,-1.4629,0.0,0.0,0.0,-1.535,-1.5601,0.0,0.0,-1.5546,-1.5595,-1.5216,-1.5757,-1.6274,-1.6131,-1.6802,-1.7481,-1.7773,-1.835,-1.8975,-1.9429,-1.9557,-1.9638,-1.9747,-2.0045,-2.0341,-2.0576,-1.9412,-1.8277,-1.7412,-1.5573,-1.4075,-1.3049,-1.1659,-1.0199,-0.8641,-0.8306,-0.8111,-0.7971,-0.8172,-0.863,-0.9385,-0.9016,-0.9159,-0.9814,-0.9462,-0.9862,-1.0813,-1.1166,-1.1674,-1.2398,-1.2774,-1.2881,-1.2881,-1.2881,-1.2881,-1.2905,-1.312,-1.3193,-1.3223,-1.5263,0.0,-1.3604,-1.1913,-1.0095,-0.8668,-0.8066,-0.8001,-0.8955,-1.1541,-1.281,-1.3513,-1.3573,-1.3432,-1.3361,-1.3475,-1.3946,-1.4684,-1.5676,-1.5232,-1.5291,-1.6082,-1.5357,-1.5164,-1.5706,-1.5014,-1.4736,-1.4923,-1.4535,-1.3667,-1.2362,-1.1987,-1.1373,-1.0561,-1.0022,0.0,0.0,0.0,0.0,-1.1689,0.0,-1.37,-1.4314,-1.5274,-1.5434,-1.5244,-1.5742,-1.6879,-1.7891,-1.6317,-1.5877,-1.6001,-1.5835,-1.5714,0.0,0.0,0.0,0.0,0.0,0.0,0.0,0.0,0.0,-1.6172,0.0,0.0,0.0,-1.5145,-1.5447,-1.5925,-1.6133,-1.678,0.0,-1.802,0.0,0.0,0.0,-2.0449,0.0,-2.0755,-2.0833,-2.1,-2.137,-2.0086,-1.8593,-1.7,-1.5529,-1.3953,-1.228,-1.1062,-0.9396,-0.7068,-0.679,-0.659,-0.6376,-0.6723,-0.733,-0.8172,-0.8453,-0.8646,-0.8808,-0.8808,-0.9162,-0.9814,-1.0517,-1.1166,-1.1868,-1.2613,-1.2881,-1.2881,-1.2881,-1.2881,-1.2891,-1.2974,-1.3052,-1.3174,-1.3356,-1.3053,0.0,-1.1215,-0.9984,-0.8885,-0.8033,-0.7814,-0.8717,-1.146,-1.234,-1.2928,-1.3452,0.0,0.0,0.0,0.0,-1.4874,-1.5826,-1.5805,-1.5893,-1.6181,-1.5922,-1.5533,-1.5019,-1.5145,-1.4905,-1.431,-1.4704,-1.3867,-1.1884,-1.1819,-1.1092,-0.9818,-0.975,0.0,0.0,0.0,-1.1586,0.0,-1.2438,-1.2522,0.0,-1.4281,-1.4235,-1.3863,-1.5435,-1.589,-1.5843,0.0,-1.6109,-1.5619,0.0,-1.5455,-1.6052,-1.4482,0.0,0.0,0.0,0.0,0.0,0.0,-1.519,-1.4986,-1.6481,0.0,-1.5732,-1.5613,0.0,-1.6956,-1.6519,0.0,0.0,-1.8709,-1.8842,-1.9383,-2.0723,-2.0926,-2.1054,-2.1445,-2.184,-2.2119,-2.2183,-2.1089,-1.9523,-1.74,-1.604,-1.4386,-1.2327,-1.002,-0.823,-0.7029,-0.6157,-0.5659,-0.5641,-0.6098,-0.6684,-0.7449,-0.7708,-0.8156,-0.8808,-0.8808,-0.9162,-0.9814,-1.0517,-1.1166,-1.1868,-1.2613,-1.2881,-1.2881,-1.2881,-1.2881,-1.2925,-1.3296,-1.3672,-1.3946,-1.3167,-1.3088,0.0,-1.151,-1.0687,-0.9786,-0.8599,-0.904,-1.0113,-1.1808,-1.2673,-1.3284,0.0,0.0,0.0,0.0,0.0,-1.5227,0.0,0.0,-1.6309,-1.6973,-1.6298,-1.5558,-1.4804,-1.4816,-1.4631,-1.4197,-1.4432,-1.3797,-1.2383,-1.2457,-1.1705,-1.0285,-1.0519,0.0,-1.0451,0.0,-1.1911,0.0,0.0,-1.2347,0.0,-1.3778,-1.4165,-1.4448,-1.5432,-1.6035,-1.6525,0.0,-1.7082,0.0,0.0,0.0,0.0,-1.5259,0.0,0.0,0.0,0.0,0.0,0.0,0.0,0.0,-1.737,-1.7315,-1.6999,-1.6707,0.0,0.0,0.0,0.0,0.0,0.0,-1.8696,-1.9317,0.0,0.0,-2.0846,-2.1521,-2.1756,0.0,-2.098,-2.0295,-1.9081,-1.7038,-1.5616,-1.3657,-1.1026,-0.9342,-0.7575,-0.571,-0.5342,-0.5173,-0.5173,-0.5494,-0.6201,-0.7294,-0.755,-0.8099,-0.8808,-0.8808,-0.8959,-0.926,-1.0364,-1.0965,-1.1316,-1.2461,-1.2881,-1.2905,-1.3149,-1.3101,-1.2935,-1.3354,-1.3623,-1.3838,-1.3142,0.0,0.0,0.0,-1.1328,-1.0513,-0.9356,-1.0295,-1.1433,-1.2252,-1.3035,0.0,-1.4024,-1.4149,0.0,0.0,-1.4554,-1.5365,0.0,0.0,-1.6659,-1.7175,-1.6588,-1.5768,-1.4716,-1.4569,-1.4432,-1.4282,-1.4282,-1.3816,-1.2944,-1.3042,-1.2254,-1.0767,0.0,-1.0493,-0.9912,0.0,-1.2108,-1.2314,-1.2314,-1.2688,-1.3278,-1.3516,-1.4033,-1.4688,-1.5125,-1.598,-1.7008,-1.7755,-1.7433,0.0,-1.7797,-1.7098,-1.5946,0.0,0.0,0.0,-1.4929,0.0,0.0,0.0,0.0,-1.7552,-1.8064,-1.7986,-1.7657,-1.7196,-1.6588,0.0,0.0,0.0,-1.7424,-1.7974,0.0,-1.9251,-2.017,-2.002,-2.0104,-2.0887,-2.0981,0.0,0.0,-1.9692,-1.8765,-1.6691,-1.5003,-1.2726,-0.9619,-0.8077,-0.6318,-0.4219,-0.4335,-0.4426,-0.4426,-0.4846,-0.5665,-0.6816,-0.7203,-0.7777,-0.848,-0.8702,-0.8808,-0.8857,-1.0214,-1.0813,-1.0918,-1.2309,-1.2881,-1.292,-1.334,-1.332,-1.3101,-1.3525,-1.3677,-1.3784,-1.2908,-1.2908,0.0,0.0,0.0,-1.0731,-1.0228,-1.1181,-1.2162,0.0,0.0,0.0,0.0,0.0,0.0,0.0,0.0,-1.5112,-1.6073,0.0,-1.6932,-1.6187,-1.6798,-1.6386,0.0,-1.4569,-1.4497,-1.4497,-1.4497,-1.4075,-1.3279,-1.3288,-1.2434,-1.0857,-1.0166,-1.0221,-1.0891,-1.1461,-1.2341,-1.3354,-1.3354,-1.3563,-1.3842,0.0,-1.3503,-1.3716,-1.4322,0.0,0.0,-1.6062,-1.6614,-1.7232,-1.6509,-1.6773,0.0,0.0,0.0,0.0,0.0,0.0,0.0,-1.6359,-1.6726,-1.7114,-1.8549,-1.7863,-1.6853,-1.6581,-1.5835,-1.5288,-1.5507,-1.6395,-1.7266,-1.7834,-1.8452,0.0,0.0,-1.9343,-1.8826,-1.9306,-1.9369,-1.9444,0.0,-1.9959,-1.9118,-1.6613,-1.4424,-1.1794,-0.8511,-0.5903,-0.3992,-0.2788,-0.301,-0.3179,-0.3179,-0.4053,-0.4888,-0.5586,-0.6308,-0.7023,-0.7777,-0.848,-0.8808,-0.8857,-1.0214,-1.0813,-1.0918,-1.2309,-1.2881,-1.292,-1.334,-1.3501,-1.3535,-1.3902,-1.4058,-1.4175,0.0,0.0,0.0,0.0,0.0,0.0,0.0,-1.1903,0.0,0.0,-1.3422,0.0,0.0,-1.4362,-1.4481,0.0,0.0,-1.5225,-1.6171,-1.6404,0.0,-1.6111,-1.6168,-1.5688,0.0,-1.4522,-1.4497,-1.4497,-1.4497,-1.4361,-1.4095,-1.4176,-1.3336,-1.1726,0.0,-1.0627,0.0,0.0,0.0,0.0,0.0,-0.8531,-0.8296,0.0,-1.3983,-1.4539,-1.4658,-1.5182,-1.5914,-1.65,-1.6565,-1.6551,-1.7289,-1.7002,-1.6409,-1.6439,-1.6618,-1.6622,-1.5642,-1.5719,-1.618,-1.66,-1.704,-1.7612,-1.8554,-1.7801,-1.7006,-1.7336,-1.6241,-1.5468,-1.638,-1.7137,-1.7927,-1.8869,-1.9265,-1.9529,0.0,-1.7945,-1.6594,-1.6755,-1.7463,-1.7926,0.0,-1.8181,-1.7418,-1.5362,-1.3253,-1.0597,-0.7244,-0.5374,-0.376,-0.229,-0.2425,-0.2742,-0.3234,-0.3547,-0.4336,-0.5485,-0.6256,-0.6966,-0.7723,-0.848,-0.9061,-0.951,-1.0415,-1.1061,-1.1516,-1.251,-1.2881,-1.2949,-1.3652,-1.375,-1.3594,-1.4307,-1.4565,-1.4624,-1.2583,0.0,0.0,0.0,0.0,0.0,0.0,0.0,0.0,0.0,-1.359,0.0,-1.4188,0.0,-1.4569,0.0,-1.485,-1.5189,-1.5862,-1.6341,0.0,-1.6111,-1.6457,-1.6254,0.0,0.0,0.0,-1.493,-1.4968,-1.4844,-1.4569,-1.4707,-1.4027,-1.268,0.0,-1.1381,-0.9872,-0.9513,-0.9073,0.0,0.0,-0.6089,0.0,0.0,-1.3068,-1.4188,-1.4277,-1.4734,-1.5398,-1.5982,-1.6179,-1.6355,-1.7356,-1.7164,-1.6641,-1.6982,-1.7084,-1.6936,-1.6273,-1.6446,-1.6773,-1.6713,-1.7025,-1.7518,-1.8201,-1.7379,-1.6662,-1.7228,-1.6124,-1.5429,-1.6585,-1.7363,-1.8144,-1.9131,-1.9344,-1.9133,0.0,-1.6416,-1.5009,-1.4631,-1.5755,-1.6584,-1.6617,-1.6831,-1.6145,-1.4176,-1.1993,-0.9314,-0.5983,-0.4367,-0.2827,-0.1354,-0.1877,-0.2453,-0.2899,-0.3456,-0.4336,-0.5485,-0.6256,-0.6966,-0.7723,-0.848,-0.9061,-0.9514,-1.0419,-1.1065,-1.1516,-1.251,-1.2881,-1.2964,-1.3804,-1.3917,-1.3833,-1.4692,-1.5005,-1.5049,-1.262,0.0,0.0,0.0,-1.2275,0.0,0.0,0.0,-1.3164,0.0,-1.3751,-1.396,-1.4162,-1.4375,-1.4611,-1.4877,-1.4904,-1.4986,-1.5193,-1.6571,0.0,0.0,-1.7482,-1.7842,-1.6867,0.0,0.0,0.0,0.0,-1.5526,-1.4763,-1.4859,-1.444,-1.362,-1.3743,0.0,-0.9822,-0.6499,-0.3356,-0.092,-0.4807,-0.6288,-0.6422,-0.8868,-1.1006,-1.2744,-1.3238,-1.4016,-1.4762,-1.4601,-1.5511,-1.6716,-1.6741,-1.7236,-1.7811,-1.7811,-1.7811,-1.7658,-1.6993,-1.6789,-1.6791,-1.6676,-1.6651,-1.6845,-1.7463,-1.6674,-1.5882,-1.6264,-1.5552,-1.5169,-1.6229,-1.7166,-1.7984,-1.8642,-1.8797,-1.8037,-1.5749,-1.4947,-1.416,-1.3007,-1.4372,-1.545,-1.5482,-1.5969,-1.535,-1.3174,-1.075,-0.8045,-0.4974,-0.3061,-0.141,-0.0056,-0.1341,-0.212,-0.2175,-0.3678,-0.473,-0.5485,-0.6256,-0.6966,-0.767,-0.8427,-0.8857,-0.8959,-1.0265,-1.0864,-1.1019,-1.2363,-1.2881,-1.2964,-1.3779,-1.4077,-1.4214,-1.5103,-1.541,-1.541,-1.3091,-1.258,-1.229,0.0,-1.3229,-1.3439,0.0,0.0,0.0,0.0,-1.3424,-1.3704,-1.3946,-1.4282,-1.4611,-1.4877,-1.4904,0.0,0.0,0.0,0.0,-1.5293,-1.6186,-1.6518,-1.6163,-1.689,-1.7051,-1.6587,0.0,-1.5882,-1.558,-1.5166,-1.4542,-1.375,0.0,-1.3167,-1.1676,-0.7058,-0.6523,-0.8356,-0.3625,-0.4951,-0.9868,0.0,-1.1678,-1.2372,-1.3287,-1.404,-1.4662,-1.5149,-1.5925,-1.68,-1.7337,-1.765,-1.7811,-1.7811,-1.7811,-1.7658,-1.6993,-1.6789,-1.6681,-1.6167,-1.6149,-1.6313,-1.648,-1.5959,-1.5717,-1.6671,-1.625,-1.6194,-1.7778,-1.8271,-1.865,-1.9256,-1.8363,-1.6937,-1.5103,-1.435,-1.3716,-1.2973,-1.3679,-1.4247,-1.4264,-1.4444,-1.4061,-1.295,-1.0531,-0.799,-0.536,-0.3407,-0.1649,-0.0056,-0.0392,-0.1118,-0.2175,-0.2621,-0.3453,-0.4787,-0.5989,-0.6696,-0.6912,-0.8209,-0.9364,-1.0316,-1.0665,-1.1384,-1.2412,-1.2774,-1.2881,-1.2935,-1.3462,-1.4058,-1.4683,-1.5215,-1.541,-1.541,-1.3498,0.0,0.0,-1.2787,0.0,0.0,-1.2748,-1.3163,0.0,-1.3652,-1.3671,0.0,-1.4335,-1.4456,-1.4611,-1.4877,-1.4904,0.0,-1.5193,0.0,0.0,-1.5525,-1.6645,-1.7198,-1.704,-1.7958,0.0,-1.7634,-1.7026,-1.6489,-1.6064,-1.5402,-1.4859,-1.4437,0.0,-1.3572,-1.2664,-0.76,-0.7251,-0.98,-0.6486,-0.7895,0.0,-1.21,-1.2213,-1.243,-1.3274,-1.3751,-1.4132,-1.4876,-1.5604,-1.636,-1.7084,-1.754,-1.7811,-1.7811,-1.7811,-1.7658,-1.6993,-1.6789,-1.6599,-1.5703,-1.5591,-1.5629,-1.5432,-1.5345,-1.5503,-1.6243,-1.6208,-1.6514,-1.8129,-1.8216,-1.8144,0.0,-1.7578,-1.6363,-1.5194,-1.4337,0.0,-1.3329,-1.3595,-1.3821,-1.3821,-1.3667,-1.3345,-1.2882,-1.049,-0.8114,-0.5972,-0.3981,-0.21,-0.0504,-0.0783,-0.1341,-0.2175,-0.2843,-0.3786,-0.495,-0.6041,-0.6748,-0.7128,-0.8262,-0.9361,-1.0364,-1.0661,-1.1425,-1.2452,-1.2774,-1.2881,-1.292,-1.334,-1.4028,-1.4814,-1.5049,-1.5254,-1.541,-1.3988,0.0,0.0,0.0,0.0,0.0,0.0,-1.3071,0.0,-1.4118,0.0,-1.3973,-1.4666,-1.4601,-1.4611,-1.4877,-1.4904,-1.4986,-1.5193,-1.5907,-1.6246,-1.6078,-1.7724,-1.8574,-1.8375,-1.9342,-1.9495,-1.8765,-1.8042,-1.7266,-1.6437,-1.5709,0.0,0.0,0.0,0.0,0.0,-0.8787,-0.7538,-0.8547,-1.1059,-1.2433,-1.2946,-1.2613,-1.2553,-1.2706,-1.3165,-1.3489,-1.3777,-1.4327,-1.5122,-1.5976,-1.6538,-1.7202,-1.7811,-1.7811,-1.7758,-1.7612,-1.696,-1.6722,-1.6382,-1.5352,-1.5006,-1.4845,-1.4501,-1.4807,-1.5235,-1.5471,-1.5865,-1.6538,-1.7853,-1.7562,-1.7144,0.0,0.0,-1.6175,-1.5549,0.0,0.0,0.0,-1.3868,0.0,-1.3998,-1.3584,-1.3239,-1.3157,-1.0872,-0.8729,-0.6984,-0.4729,-0.278,-0.1284,-0.1785,-0.212,-0.2175,-0.3623,-0.473,-0.5485,-0.6256,-0.6966,-0.7723,-0.853,-0.9312,-0.9965,-1.0665,-1.1316,-1.1972,-1.2618,-1.2881,-1.292,-1.334,-1.396,-1.4634,-1.4746,-1.5019,-1.5337,-1.5086,0.0,0.0,0.0,0.0,-1.386,-1.3043,-1.2609,-1.2388,-1.2515,-1.2599,-1.2846,-1.3303,-1.4044,-1.4611,-1.4877,-1.4904,0.0,0.0,0.0,0.0,-1.5376,-1.6986,-1.7817,-1.768,-1.9341,-2.0012,-1.9583,-1.9019,-1.8238,-1.7268,-1.6591,-1.5888,0.0,0.0,0.0,-1.1965,-1.2746,0.0,-1.0793,-1.268,-1.3022,-1.233,-1.2043,-1.2356,-1.2924,-1.2967,-1.3947,-1.5138,-1.4665,-1.5807,-1.7337,-1.686,-1.7202,-1.7811,-1.7811,-1.7595,-1.7296,-1.6917,-1.6331,-1.5692,-1.5233,-1.4596,-1.4091,-1.4026,-1.4145,-1.4582,-1.5471,-1.6073,-1.6774,-1.7889,-1.7659,-1.7098,-1.6627,-1.647,-1.6023,-1.4977,0.0,0.0,0.0,-1.4097,-1.4185,-1.518,-1.4744,-1.4427,-1.4376,-1.2539,-1.0726,-0.9043,-0.6039,-0.3669,-0.2051,-0.156,-0.1563,-0.2175,-0.3122,-0.4226,-0.5485,-0.6256,-0.6966,-0.772,-0.9037,-1.0012,-1.0665,-1.1312,-1.2035,-1.272,-1.2827,-1.2881,-1.292,-1.334,-1.3599,-1.3813,-1.4521,-1.4829,-1.4946,0.0,0.0,0.0,0.0,0.0,0.0,0.0,-1.211,-1.1963,-1.3311,-1.2973,-1.3006,-1.4086,-1.4001,-1.415,-1.4839,-1.4488,-1.4498,-1.5164,-1.5199,-1.5199,-1.5199,-1.6407,-1.7051,-1.6984,-1.8722,-1.951,-1.9285,-1.902,-1.86,-1.7993,-1.7254,-1.6465,-1.5608,0.0,-1.2842,0.0,0.0,-1.2525,-1.2078,-1.2744,-1.2878,-1.265,-1.2458,-1.1631,-1.0846,-1.2547,-1.3964,-1.4986,-1.4613,-1.5468,-1.6661,-1.6699,-1.7202,-1.7811,-1.7811,-1.7549,-1.7224,-1.6884,-1.6208,-1.5476,-1.4916,-1.4342,-1.3835,-1.3581,-1.3817,-1.4316,-1.5112,-1.5718,-1.632,-1.7124,-1.7312,-1.7105,-1.6557,-1.6435,-1.616,-1.5271,-1.5119,-1.4996,0.0,0.0,0.0,-1.5537,-1.5599,-1.541,-1.48,-1.304,-1.1323,-0.9747,-0.7048,-0.4895,-0.3374,-0.2668,-0.2453,-0.2787,-0.3891,-0.4827,-0.5487,-0.6635,-0.7343,-0.7774,-0.9134,-1.0167,-1.0864,-1.1516,-1.2236,-1.2881,-1.2881,-1.2881,-1.2905,-1.3101,-1.3315,-1.356,-1.397,-1.4399,-1.4849,0.0,-1.3124,0.0,0.0,-1.2982,-1.3104,-1.2633,-1.1539,-1.1503,-1.3593,-1.2983,-1.2868,-1.4224,-1.3587,-1.3495,-1.4537,-1.402,-1.409,-1.5126,-1.5199,-1.5199,-1.5199,-1.6032,-1.6494,-1.6494,-1.7962,-1.867,-1.8544,-1.8716,-1.8612,-1.823,-1.7766,-1.6969,-1.5809,-1.3547,0.0,0.0,-1.1554,-1.1876,-1.2312,-1.2436,-1.2621,-1.2704,-1.1775,-1.0566,-0.973,-1.2429,-1.3768,-1.4293,-1.4444,-1.5096,-1.59,-1.6335,-1.7075,-1.7789,-1.7704,-1.7455,-1.7118,-1.6781,-1.6044,-1.522,-1.4645,-1.4123,-1.3642,-1.3295,-1.3659,-1.4242,-1.4796,-1.5404,-1.5963,-1.6283,-1.6754,-1.6993,-1.6558,-1.6622,-1.6467,-1.5882,-1.5682,-1.5454,0.0,0.0,0.0,-1.5471,-1.5984,-1.5844,-1.4668,-1.3311,-1.1931,-1.0487,-0.8015,-0.6049,-0.4795,-0.3891,-0.3503,-0.3638,-0.486,-0.5649,-0.5975,-0.7122,-0.788,-0.8193,-0.9444,-1.0364,-1.1065,-1.1724,-1.2349,-1.2881,-1.2881,-1.2881,-1.2881,-1.2881,-1.3081,-1.3394,-1.3574,-1.4014,-1.46,0.0,0.0,0.0,0.0,0.0,-1.1786,-1.1491,-1.0783,-1.04,-1.0767,-1.0866,-1.1001,-1.1288,-1.1912,-1.2684,-1.3637,-1.3759,-1.4185,-1.5141,-1.5199,-1.5199,-1.5199,-1.6032,-1.6494,-1.6494,-1.7369,-1.7795,-1.7712,-1.8439,-1.8317,-1.7422,-1.808,-1.7279,-1.5219,-1.3646,-1.2433,-1.1646,-1.2527,-1.208,-1.0858,-1.2483,-1.2604,-1.1459,-0.7911,-0.9063,-1.2634,-1.321,-1.3447,-1.3616,-1.4276,-1.5434,-1.6495,-1.5883,-1.6669,-1.7735,-1.7447,-1.7101,-1.6763,-1.6429,-1.5477,-1.4582,-1.4533,-1.3868,-1.3267,-1.3198,-1.3659,-1.4242,-1.4796,-1.5712,-1.6302,-1.5856,-1.6218,-1.6558,-1.6515,-1.6961,-1.7118,-1.6498,-1.5952,-1.577,-1.6287,0.0,0.0,-1.5025,-1.545,-1.5198,-1.4053,-1.3932,-1.3482,-1.2478,-0.901,-0.6661,-0.5889,-0.4364,-0.3956,-0.4723,-0.5255,-0.6195,-0.7503,-0.7613,-0.8352,-0.9603,-1.0364,-1.1061,-1.1765,-1.2456,-1.2827,-1.2881,-1.2881,-1.2881,-1.2881,-1.2881,-1.2905,-1.3027,-1.3794,-1.3882,-1.3799,0.0,0.0,-1.2728,-1.0986,-1.1477,-1.1789,-1.0787,-1.0534,-1.0304,-0.9912,-1.0356,-1.1121,-1.2223,-1.2225,-1.2742,-1.4253,-1.395,-1.4113,-1.5126,-1.5199,-1.5199,-1.5199,-1.5532,-1.5724,-1.5724,-1.6551,-1.6896,-1.6696,-1.7984,-1.8247,-1.7555,-1.841,-1.7503,-1.5132,-1.3876,-1.2522,-1.1274,-1.1756,-1.1394,-1.0606,-1.1762,-1.2043,-1.1588,-1.0039,-0.9351,-0.958,-1.2384,-1.3405,-1.3447,-1.3735,-1.4817,-1.6081,-1.6216,-1.6965,-1.7726,-1.7392,-1.7052,-1.6678,-1.6059,-1.5189,-1.4438,-1.4214,-1.3675,-1.3198,-1.3198,-1.3408,-1.3716,-1.4299,-1.5035,-1.5561,-1.5674,-1.5875,-1.6132,-1.6465,-1.671,-1.6642,-1.6032,-1.5776,0.0,-1.511,0.0,-1.4399,-1.4464,-1.4814,-1.4886,-1.4423,-1.4313,-1.3697,-1.2328,-0.9832,-0.8174,-0.7567,-0.5743,-0.5229,-0.6218,-0.6618,-0.7323,-0.833,-0.8764,-0.9492,-1.0415,-1.1111,-1.1778,-1.2501,-1.2774,-1.2881,-1.29,-1.3154,-1.311,-1.2905,-1.3159,-1.3101,-1.292,-1.3257,-1.3433,-1.3579,-1.0282,-1.1344,-1.2065,-1.0468,-1.0838,-1.105,-1.008,-1.0096,-1.0058,-0.9624,-1.005,-1.0877,-1.2104,-1.1746,-1.2074,-1.367,-1.3478,-1.3709,-1.4721,-1.5015,-1.514,-1.514,-1.514,0.0,-1.5199,-1.5801,-1.5996,-1.5744,-1.7118,-1.7684,-1.7475,-1.7985,-1.7188,-1.5255,-1.3767,-1.2411,-1.1229,-1.1216,-1.0946,-1.0572,-1.1309,-1.16,-1.1432,-1.0433,-0.9343,-0.8759,-1.2184,-1.3346,-1.3328,-1.3616,-1.442,-1.5409,-1.6128,-1.7024,-1.7704,-1.7272,-1.6985,-1.6636,-1.5864,-1.5077,-1.4438,-1.4149,-1.3648,-1.3198,-1.3198,-1.3323,-1.359,-1.4003,-1.4525,-1.5029,-1.5379,-1.5586,-1.5834,-1.6194,-1.638,-1.6287,-1.5676,-1.5501,-1.5229,-1.4592,-1.4051,-1.3707,-1.351,-1.3893,-1.407,-1.3883,-1.4161,-1.3598,-1.1984,-1.0352,-0.9216,-0.8481,-0.681,-0.6388,-0.7414,-0.7821,-0.8333,-0.9054,-0.9743,-1.0466,-1.1116,-1.1828,-1.2398,-1.2881,-1.2881,-1.2949,-1.3081,-1.3252,-1.3296,-1.3257,-1.3306,-1.3291,-1.3252,-1.3252,-1.3359,-1.356,-0.9788,-1.007,-1.0239,-0.894,-0.8851,-0.9026,-0.9273,-0.9311,-0.9403,-0.9666,-0.9707,-0.9717,-0.9735,-0.9798,-1.0202,-1.1159,-1.2027,-1.2877,-1.3761,-1.4559,-1.5004,-1.5004,-1.5004,-1.5065,-1.5199,-1.5209,-1.5116,-1.4913,-1.5725,-1.6408,-1.6895,-1.6576,-1.6133,-1.5488,-1.3159,-1.1992,-1.1759,-1.1361,-1.0946,-1.0563,-1.1382,-1.1367,-1.0549,-0.7236,-0.853,-1.2241,-1.3096,-1.3234,-1.3157,-1.4143,-1.4494,-1.4629,-1.5384,-1.6627,-1.7666,-1.6993,-1.6815,-1.6659,-1.5983,-1.5165,-1.4501,-1.4501,-1.3835,-1.3198,-1.3198,-1.3653,-1.4079,-1.4085,-1.4525,-1.4909,-1.4922,-1.5323,-1.5697,-1.5636,-1.6101,-1.6287,-1.5676,-1.5217,-1.5067,-1.5545,-1.4007,-1.269,-1.2166,-1.2562,-1.2531,-1.1859,-1.3256,-1.3399,-1.1801,-1.0624,-0.9462,-0.824,-0.7365,-0.7297,-0.8184,-0.8546,-0.9054,-0.9814,-1.0466,-1.1166,-1.1814,-1.2559,-1.2881,-1.2881,-1.2881,-1.3115,-1.3467,-1.3057,-1.3374,-1.3985,-1.3213,-1.3394,-1.4063,-1.4063,-1.3862,-1.3686,-0.9261,-0.96,-0.9897,-0.8988,-0.9024,-0.9207,-0.9284,-0.9456,-0.9609,-0.9691,-0.9698,-0.9698,-0.9698,-1.0218,-1.0936,-1.1869,-1.2198,-1.2504,-1.2822,-1.3085,-1.3475,-1.402,-1.4048,-1.4378,-1.5049,-1.5013,-1.4962,-1.4904,-1.561,-1.6131,-1.6478,-1.6184,-1.5536,-1.4552,-1.38,-1.2819,-1.1725,-1.1611,-1.1107,-1.0457,-1.0801,-1.1021,-1.1028,-1.0232,-1.091,-1.2344,-1.2877,-1.3031,-1.3082,-1.3581,-1.3949,-1.428,-1.4505,-1.5566,-1.6678,-1.6517,-1.6455,-1.6215,-1.521,-1.4721,-1.4374,-1.3775,-1.3425,-1.3198,-1.3198,-1.3336,-1.3496,-1.3496,-1.3634,-1.3986,-1.4771,-1.5054,-1.5395,-1.6089,-1.6374,-1.6423,-1.6238,-1.5439,-1.4566,-1.3668,-1.2543,-1.1523,-1.0583,-1.1474,-1.2149,-1.228,-1.396,-1.404,-1.1946,-1.134,-1.0458,-0.9266,-0.8297,-0.8359,-0.9625,-0.9489,-1.0045,-1.1166,-1.1362,-1.1882,-1.2559,-1.2774,-1.2881,-1.2881,-1.2881,-1.2954,-1.3115,-1.355,-1.3555,-1.3311,-1.3613,-1.3726,-1.3706,-1.3706,-1.3623,-1.3564,-0.8978,-0.921,-0.9438,-0.8976,-0.9035,-0.9188,-0.9284,-0.9448,-0.9584,-0.9691,-0.9698,-0.9698,-0.9698,-1.0149,-1.0823,-1.1733,-1.2111,-1.2311,-1.232,-1.2636,-1.2908,-1.3096,-1.3399,-1.3845,-1.4465,-1.4748,-1.4886,-1.4822,-1.5504,-1.5822,-1.5809,-1.5677,-1.5114,-1.4222,-1.3853,-1.3074,-1.2023,-1.1806,-1.1335,-1.076,-1.0828,-1.1001,-1.1286,-1.1667,-1.1995,-1.2324,-1.2754,-1.2885,-1.2897,-1.3156,-1.3375,-1.3554,-1.3703,-1.4549,-1.5519,-1.5835,-1.5987,-1.5851,-1.4946,-1.4501,-1.4149,-1.3615,-1.3329,-1.3198,-1.3198,-1.3198,-1.3198,-1.3198,-1.3198,-1.3536,-1.467,-1.4909,-1.5189,-1.6016,-1.6163,-1.6123,-1.5905,-1.5106,-1.4101,-1.2845,-1.1837,-1.0809,-0.9823,-1.0759,-1.1538,-1.1834,-1.3739,-1.411,-1.2225,-1.2442,-1.1866,-1.0196,-0.9695,-0.9914,-1.0989,-1.0713,-1.1158,-1.227,-1.2531,-1.2911,-1.335,-1.3188,-1.3203,-1.334,-1.3184,-1.3203,-1.3384,-1.3745,-1.3779,-1.3603,-1.3647,-1.3799,-1.395,-1.3623,-1.3506,-1.353,-0.8891,-0.8891,-0.8891,-0.8891,-0.8902,-0.8992,-0.9246,-0.9303,-0.9403,-0.9658,-0.9698,-0.9698,-0.9698,-0.9698,-1.0049,-1.0921,-1.1733,-1.2181,-1.2112,-1.2872,-1.2992,-1.2234,-1.2973,-1.3456,-1.3597,-1.4433,-1.4804,-1.4697,-1.5305,-1.5383,-1.4927,-1.4982,-1.4789,-1.4385,-1.3454,-1.2887,-1.2583,-1.201,-1.1593,-1.1326,-1.1326,-1.1326,-1.1348,-1.1681,-1.194,-1.2238,-1.2697,-1.2738,-1.261,-1.2879,-1.2797,-1.2653,-1.3019,-1.3621,-1.4315,-1.5052,-1.543,-1.5541,-1.5173,-1.4501,-1.3927,-1.3868,-1.352,-1.3198,-1.3198,-1.3198,-1.3198,-1.3198,-1.3229,-1.3615,-1.4714,-1.4941,-1.5107,-1.5608,-1.5721,-1.5525,-1.4899,-1.4399,-1.3723,-1.2835,-1.1662,-1.0613,-0.9849,-1.0399,-1.0834,-1.0938,0.0,-1.3695,-1.2647,-1.3816,-1.3453,-1.1035,-1.1384,-1.176,-1.215,-1.1965,-1.233,-1.3195,-1.3804,-1.4082,-1.4068,-1.373,-1.3765,-1.4058,-1.3716,-1.3774,-1.4053,-1.374,-1.4048,-1.4624,-1.3462,-1.3726,-1.4644,-1.3843,-1.353,-1.3564,-0.8877,-0.8891,-0.8891,-0.8891,-0.899,-0.9076,-0.9138,-0.9322,-0.9474,-0.9534,-0.9633,-0.9698,-0.9698,-0.9698,-1.0028,-1.0845,-1.111,-1.1221,-1.1213,-1.1396,-1.1424,-1.1239,-1.2004,-1.2771,-1.3512,-1.4228,-1.4578,-1.4556,-1.4703,-1.4576,-1.4164,-1.4179,-1.3996,-1.3642,-1.3404,-1.3121,-1.2802,-1.2498,-1.211,-1.1681,-1.1681,-1.1534,-1.1348,-1.1681,-1.184,-1.1947,-1.2259,-1.234,-1.2332,-1.2591,-1.2522,-1.2323,-1.2412,-1.3122,-1.4031,-1.472,-1.5314,-1.558,-1.4838,-1.4501,-1.4214,-1.352,-1.3295,-1.3198,-1.3198,-1.3198,-1.3198,-1.3198,-1.3571,-1.4104,-1.4783,-1.5216,-1.5677,-1.6219,-1.6317,-1.5995,-1.5067,-1.4743,-1.3758,-1.1508,-1.1035,-1.0512,-0.9581,-1.0314,-1.1306,-1.248,-1.3877,-1.4382,-1.3838,-1.5015,-1.4518,-1.1896,-1.217,-1.2517,-1.2872,-1.2842,-1.3164,-1.3863,-1.4024,-1.4082,-1.4077,-1.398,-1.3985,-1.4073,-1.398,-1.399,-1.4097,-1.4385,-1.4404,-1.4287,-1.4321,-1.4316,-1.4263,-1.4004,-1.3779,-1.352,-0.8794,-0.8855,-0.8891,-0.8891,-0.8957,-0.9045,-0.9178,-0.9312,-0.9439,-0.9491,-0.9617,-0.9674,-0.9617,-0.9666,-1.0012,-1.0829,-1.1242,-1.1287,-1.0921,-1.1242,-1.1122,-1.0379,-1.1471,-1.2335,-1.2845,-1.3935,-1.4497,-1.4497,-1.4497,-1.4341,-1.4047,-1.4011,-1.3836,-1.3526,-1.3438,-1.2168,-1.0056,-0.9947,-0.9584,-0.9252,-1.1072,-1.1681,-1.1564,-1.1725,-1.1883,-1.201,-1.2156,-1.2197,-1.2218,-1.2364,-1.2243,-1.201,-1.201,-1.2622,-1.3406,-1.3772,-1.4499,-1.5104,-1.4627,-1.4214,-1.3802,-1.3329,-1.3198,-1.3198,-1.3198,-1.3198,-1.3273,-1.3552,-1.3877,-1.433,-1.5103,-1.5492,-1.5875,-1.6427,-1.6302,-1.5858,-1.5007,-1.4336,-1.3149,-1.1017,-1.0556,-1.0166,-0.9649,-1.0307,-1.1362,-1.2716,-1.3855,-1.4583,-1.4718,-1.5393,-1.4961,-1.3129,-1.3438,-1.3784,-1.4143,-1.4143,-1.4226,-1.4434,-1.4624,-1.4661,-1.4712,-1.4521,-1.4536,-1.4697,-1.4248,-1.4248,-1.4434,-1.4473,-1.4468,-1.4419,-1.4263,-1.4292,-1.4355,-1.4066,-1.3775,-1.3527,-0.8649,-0.8771,-0.8866,-0.8866,-0.8889,-0.8979,-0.9207,-0.9256,-0.9312,-0.9421,-0.9576,-0.9625,-0.9517,-0.9617,-0.9974,-1.0655,-1.1452,-1.1636,-1.0939,-1.1544,-1.1251,-0.9763,-1.1232,-1.2095,-1.2095,-1.3682,-1.4497,-1.4497,-1.4497,-1.4408,-1.4197,-1.4149,-1.3969,-1.365,-1.2784,-1.0648,-0.7619,-0.6267,-0.565,-0.5911,-0.9486,-1.1214,-1.1663,-1.176,-1.1947,-1.2136,-1.2136,-1.2136,-1.2136,-1.2136,-1.1989,-1.1797,-1.1797,-1.2254,-1.2777,-1.2754,-1.3431,-1.4253,-1.4342,-1.3802,-1.3198,-1.3198,-1.3198,-1.3198,-1.3198,-1.3261,-1.3471,-1.3883,-1.4167,-1.4601,-1.5417,-1.5706,-1.5928,-1.6299,-1.5988,-1.5402,-1.4638,-1.3586,-1.2407,-1.1089,-1.0334,-1.0035,-1.0192,-1.0699,-1.1546,-1.2752,-1.3699,-1.458,-1.5371,-1.541,-1.5113,-1.4392,-1.4711,-1.5049,-1.5405,-1.541,-1.5234,-1.4883,-1.5239,-1.541,-1.54,-1.5044,-1.5078,-1.5371,-1.4644,-1.4536,-1.4844,-1.4414,-1.4487,-1.4795,-1.3936,-1.4043,-1.4606,-1.4082,-1.3719,-1.3498,-0.842,-0.8604,-0.8732,-0.8732,-0.8829,-0.8913,-0.8957,-0.9055,-0.9138,-0.9158,-0.9376,-0.9525,-0.9508,-0.9617,-0.9753,-0.9873,-1.0627,-1.1031,-1.0912,-1.1022,-1.0672,-0.9735,-1.1232,-1.2095,-1.2095,-1.3682,-1.4497,-1.4497,-1.4497,-1.4408,-1.4197,-1.4188,-1.4011,-1.3534,-0.9521,-0.9464,-1.1864,-0.4262,-0.2266,-0.436,-0.6112,-0.8483,-1.1014,-1.1588,-1.1826,-1.1862,-1.1862,-1.1862,-1.1862,-1.1862,-1.184,-1.1797,-1.1797,-1.2254,-1.2754,-1.247,-1.2652,-1.3092,-1.3544,-1.3434,-1.3198,-1.3198,-1.3198,-1.3198,-1.3198,-1.359,-1.3852,-1.344,-1.4475,-1.5348,-1.5092,-1.5762,-1.6237,-1.5802,-1.5654,-1.509,-1.3569,-1.3058,-1.2392,-1.1311,-1.0837,-1.1043,-1.2008,-1.22,-1.2874,-1.4357,-1.4588,-1.4897,-1.5381,-1.541,-1.5352,-1.523,-1.5289,-1.5347,-1.541,-1.541,-1.5376,-1.5317,-1.5381,-1.541,-1.541,-1.5347,-1.5347,-1.5405,-1.5273,-1.5249,-1.5278,-1.4858,-1.4932,-1.5229,-1.4375,-1.4063,-1.4209,-1.411,-1.3802,-1.3496,-0.8219,-0.8399,-0.8542,-0.8542,-0.8596,-0.8688,-0.8824,-0.8904,-0.8977,-0.9078,-0.9275,-0.9394,-0.9394,-0.9448,-0.9542,-0.9691,-0.9972,-1.0183,-1.025,-1.0655,-1.0728,-1.036,-1.1067,-1.1865,-1.2729,-1.3462,-1.4004,-1.4341,-1.4453,-1.418,-1.3551,-1.3527,-1.3419,-1.3079,-0.8665,-0.7688,-0.8948,-0.2663,-0.0693,-0.2161,-0.6362,-0.9381,-1.1378,-1.1685,-1.1797,-1.1797,-1.1797,-1.1797,-1.1797,-1.1797,-1.1797,-1.1797,-1.1797,-1.2007,-1.2201,-1.1858,-1.2292,-1.288,-1.29,-1.3057,-1.3198,-1.3198,-1.3452,-1.3665,-1.3665,-1.3902,-1.4186,-1.4488,-1.4927,-1.5268,-1.5292,-1.5673,-1.5826,-1.5192,-1.5101,-1.4789,-1.3894,-1.3231,-1.2599,-1.1981,-1.1477,-1.1549,-1.2432,-1.2697,-1.3389,-1.4681,-1.4785,-1.5073,-1.5728,-1.5542,-1.5518,-1.5757,-1.5537,-1.541,-1.541,-1.541,-1.541,-1.541,-1.541,-1.541,-1.541,-1.541,-1.541,-1.54,-1.5171,-1.5078,-1.5039,-1.4609,-1.4687,-1.499,-1.4131,-1.4219,-1.4736,-1.4388,-1.426,-1.4179,-0.8057,-0.82,-0.8327,-0.8327,-0.8361,-0.8468,-0.8681,-0.8708,-0.8762,-0.8921,-0.908,-0.919,-0.919,-0.9257,-0.9385,-0.9584,-0.9517,-0.9572,-0.9865,-1.0284,-1.0539,-1.0575,-1.0748,-1.1497,-1.2895,-1.2952,-1.319,-1.3613,-1.3798,-1.35,-1.2742,-1.2689,-1.2587,-1.2319,-0.9116,-0.7683,-0.743,-0.4141,-0.221,-0.1811,-0.692,-1.0017,-1.1588,-1.1738,-1.1797,-1.1797,-1.1797,-1.1797,-1.1797,-1.1797,-1.1797,-1.1797,-1.1797,-1.1797,-1.1725,-1.1326,-1.1964,-1.2802,-1.2762,-1.3133,-1.3486,-1.3391,-1.3804,-1.4224,-1.4121,-1.428,-1.467,-1.5354,-1.528,-1.5125,-1.5377,-1.5416,-1.5186,-1.4606,-1.4468,-1.4399,-1.4244,-1.3348,-1.2762,-1.2854,-1.2303,-1.2175,-1.2986,-1.3326,-1.3904,-1.4897,-1.4932,-1.522,-1.5874,-1.5596,-1.5566,-1.5903,-1.5591,-1.541,-1.541,-1.541,-1.541,-1.541,-1.541,-1.541,-1.541,-1.541,-1.541,-1.5391,-1.4966,-1.4785,-1.4751,-1.4311,-1.439,-1.4707,-1.3945,-1.4253,-1.5062,-1.4616,-1.4485,-1.4459,-0.7906,-0.8031,-0.8123,-0.8123,-0.828,-0.8407,-0.8425,-0.8425,-0.8438,-0.845,-0.867,-0.8835,-0.8835,-0.9113,-0.9303,-0.9322,-0.9322,-0.9633,-1.0391,-0.9794,-0.9475,-0.9599,-1.0322,-1.106,-1.1801,-1.1947,-1.1954,-1.1877,-1.2018,-1.2053,-1.1979,-1.1981,-1.168,-1.1124,-1.0824,-1.1495,-1.2748,-1.1485,-0.8804,-0.5508,-0.6,-0.8079,-1.0939,-1.1565,-1.1797,-1.1797,-1.1797,-1.1797,-1.1797,-1.1797,-1.1797,-1.1797,-1.1797,-1.1797,-1.1689,-1.1101,-1.1547,-1.2495,-1.3512,-1.4083,-1.431,-1.3927,-1.4269,-1.4556,-1.4188,-1.4878,-1.5448,-1.506,-1.5269,-1.5405,-1.4939,-1.4802,-1.456,-1.3956,-1.3868,-1.3803,-1.3585,-1.2945,-1.2868,-1.3874,-1.3375,-1.3415,-1.4538,-1.4661,-1.4851,-1.5337,-1.5366,-1.5395,-1.5459,-1.543,-1.5425,-1.5459,-1.543,-1.541,-1.541,-1.541,-1.541,-1.541,-1.541,-1.541,-1.541,-1.541,-1.541,-1.5391,-1.4966,-1.4785,-1.4751,-1.4311,-1.439,-1.4736,-1.4272,-1.4092,-1.4263,-1.463,-1.4277,-1.3647,-0.7899,-0.7941,-0.7941,-0.7811,-0.7955,-0.8074,-0.8037,-0.8139,-0.8267,-0.8382,-0.8485,-0.8591,-0.867,-0.8821,-0.8983,-0.9095,-0.916,-0.934,-0.9729,-0.9472,-0.9322,-0.9376,-0.9662,-1.0179,-1.0932,-1.1012,-1.1192,-1.1502,-1.1696,-1.1455,-1.085,-1.0971,-1.0676,-1.0031,-1.0523,-1.0679,-1.0624,-1.1795,-1.0301,-0.7286,-0.891,-1.0316,-1.1453,-1.17,-1.1797,-1.1797,-1.1797,-1.1797,-1.1797,-1.1797,-1.1797,-1.1797,-1.1797,-1.1797,-1.1741,-1.1486,-1.195,-1.2745,-1.3564,-1.4125,-1.4495,-1.4412,-1.4796,-1.5175,-1.51,-1.5392,-1.5737,-1.5869,-1.5471,-1.5042,-1.4763,-1.4392,-1.392,-1.3329,-1.3464,-1.3646,-1.3833,-1.3623,-1.3728,-1.4432,-1.4311,-1.4318,-1.477,-1.5019,-1.5239,-1.54,-1.541,-1.541,-1.541,-1.541,-1.541,-1.541,-1.541,-1.541,-1.541,-1.541,-1.541,-1.541,-1.541,-1.541,-1.541,-1.541,-1.541,-1.5391,-1.4966,-1.4629,-1.4346,-1.3921,-1.3843,-1.395,-1.352,-1.3838,-1.4526,-1.4419,-1.4512,-1.4673,-0.7709,-0.7746,-0.7739,-0.7522,-0.7583,-0.7687,-0.7739,-0.7854,-0.8016,-0.8224,-0.8282,-0.8345,-0.8435,-0.8542,-0.8664,-0.8801,-0.8849,-0.8921,-0.9009,-0.9019,-0.909,-0.9237,-0.9237,-0.9473,-0.9978,-1.0038,-1.0241,-1.0613,-1.0801,-1.0537,-0.9852,-0.9995,-0.9749,-0.9236,-0.9772,-0.9177,-0.796,-1.0543,-1.0498,-0.8904,-1.0967,-1.1797,-1.1797,-1.1797,-1.1797,-1.1797,-1.1681,-1.1703,-1.1776,-1.1681,-1.1703,-1.1797,-1.1797,-1.1659,-1.1517,-1.1545,-1.2154,-1.292,-1.3396,-1.42,-1.49,-1.4883,-1.5197,-1.5522,-1.5689,-1.5825,-1.6057,-1.644,-1.5561,-1.4754,-1.4733,-1.4061,-1.3377,-1.2973,-1.312,-1.3501,-1.4058,-1.4082,-1.4346,-1.4917,-1.4985,-1.4985,-1.4985,-1.5239,-1.541,-1.541,-1.541,-1.541,-1.541,-1.541,-1.541,-1.541,-1.541,-1.541,-1.541,-1.541,-1.541,-1.541,-1.541,-1.541,-1.541,-1.541,-1.541,-1.5381,-1.4824,-1.4414,-1.4048,-1.3682,-1.3506,-1.3491,-1.334,-1.373,-1.4365,-1.4194,-1.4341,-1.4614,-0.7287,-0.7417,-0.7507,-0.7241,-0.7202,-0.7287,-0.756,-0.7597,-0.7665,-0.787,-0.8009,-0.8096,-0.8096,-0.828,-0.8395,-0.8395,-0.8395,-0.8395,-0.8395,-0.8395,-0.8607,-0.9076,-0.9097,-0.9035,-0.8902,-0.9024,-0.9035,-0.8891,-0.9035,-0.9097,-0.9097,-0.9097,-0.8988,-0.8801,-0.8731,-0.7549,-0.5783,-0.8396,-0.9884,-1.0563,-1.1438,-1.179,-1.179,-1.1797,-1.1797,-1.1747,-1.1416,-1.1512,-1.1754,-1.1416,-1.1512,-1.1797,-1.1797,-1.137,-1.0944,-1.1219,-1.2014,-1.2856,-1.3134,-1.4471,-1.5699,-1.5386,-1.5405,-1.5522,-1.5682,-1.612,-1.6515,-1.6472,-1.5522,-1.4703,-1.4698,-1.37,-1.2881,-1.2881,-1.2886,-1.3184,-1.3961,-1.4082,-1.4403,-1.5308,-1.541,-1.541,-1.541,-1.541,-1.541,-1.541,-1.541,-1.541,-1.541,-1.541,-1.541,-1.541,-1.541,-1.541,-1.541,-1.541,-1.541,-1.541,-1.541,-1.541,-1.541,-1.541,-1.541,-1.5366,-1.4457,-1.4082,-1.4048,-1.3682,-1.3506,-1.354,-1.3907,-1.3872,-1.3564,-1.3975,-1.3603,-1.3013,-0.7234,-0.7272,-0.7254,-0.7029,-0.7105,-0.7178,-0.7116,-0.723,-0.741,-0.7657,-0.7724,-0.7804,-0.7948,-0.8092,-0.8185,-0.8185,-0.8314,-0.8395,-0.8395,-0.8395,-0.8463,-0.8595,-0.8743,-0.8806,-0.8768,-0.8794,-0.8728,-0.8551,-0.8676,-0.8699,-0.8607,-0.8849,-0.886,-0.8655,-0.8447,-0.7929,-0.7311,-0.8705,-0.9593,-1.0137,-1.0832,-1.1089,-1.1113,-1.1366,-1.1184,-1.0828,-1.0969,-1.1203,-1.1416,-1.1326,-1.1512,-1.1797,-1.1797,-1.1212,-1.0605,-1.093,-1.1845,-1.2767,-1.2553,-1.3671,-1.49,-1.4883,-1.5399,-1.5878,-1.5716,-1.612,-1.638,-1.5958,-1.5242,-1.4566,-1.4149,-1.3425,-1.2881,-1.2881,-1.3374,-1.3745,-1.3701,-1.4463,-1.5015,-1.4976,-1.5229,-1.541,-1.541,-1.541,-1.541,-1.541,-1.541,-1.541,-1.541,-1.541,-1.541,-1.541,-1.541,-1.541,-1.541,-1.541,-1.541,-1.541,-1.541,-1.541,-1.541,-1.541,-1.541,-1.5381,-1.4834,-1.4419,-1.4048,-1.3682,-1.3335,-1.3081,-1.3203,-1.3535,-1.3873,-1.376,-1.3911,-1.4209,-0.6999,-0.7031,-0.7022,-0.6818,-0.6888,-0.694,-0.6901,-0.6996,-0.7176,-0.7401,-0.7545,-0.7642,-0.7776,-0.7926,-0.7996,-0.791,-0.8009,-0.8121,-0.8197,-0.8197,-0.8224,-0.828,-0.8404,-0.8501,-0.8587,-0.8587,-0.8517,-0.8395,-0.8484,-0.8484,-0.8407,-0.8612,-0.8604,-0.8396,-0.8238,-0.8065,-0.7952,-0.8746,-0.919,-0.9407,-1.0152,-1.0456,-1.0516,-1.0822,-1.0791,-1.0609,-1.0688,-1.0956,-1.1273,-1.1173,-1.1437,-1.1754,-1.1527,-1.112,-1.076,-1.0866,-1.179,-1.2678,-1.2235,-1.3276,-1.4431,-1.4167,-1.4718,-1.5391,-1.5632,-1.5784,-1.5764,-1.5634,-1.4915,-1.4236,-1.3868,-1.3329,-1.2881,-1.2881,-1.3447,-1.3853,-1.3769,-1.457,-1.5068,-1.4814,-1.5156,-1.5347,-1.5181,-1.5317,-1.541,-1.541,-1.5098,-1.5054,-1.5395,-1.5254,-1.5239,-1.5405,-1.541,-1.541,-1.541,-1.541,-1.541,-1.541,-1.541,-1.541,-1.541,-1.541,-1.5317,-1.5137,-1.4717,-1.4282,-1.3853,-1.3433,-1.311,-1.2881,-1.2881,-1.3188,-1.3608,-1.3354,-1.3691,-1.4243,-0.6672,-0.674,-0.6824,-0.6633,-0.6599,-0.6661,-0.6841,-0.6868,-0.6937,-0.7146,-0.7386,-0.7552,-0.7597,-0.7739,-0.7768,-0.7612,-0.7582,-0.7657,-0.7856,-0.787,-0.7934,-0.8077,-0.8083,-0.8166,-0.8322,-0.8348,-0.8369,-0.8356,-0.8356,-0.8356,-0.8356,-0.8369,-0.8275,-0.8083,-0.8096,-0.8023,-0.7937,-0.8559,-0.87,-0.8619,-0.9499,-0.9899,-0.9974,-1.0286,-1.0558,-1.0726,-1.0463,-1.0729,-1.1189,-1.0961,-1.1263,-1.1586,-1.1055,-1.1024,-1.1136,-1.0907,-1.1701,-1.2553,-1.2084,-1.3172,-1.4259,-1.3489,-1.3642,-1.4281,-1.5299,-1.5192,-1.4961,-1.536,-1.4544,-1.3768,-1.3726,-1.3286,-1.2881,-1.2881,-1.3262,-1.3686,-1.398,-1.4517,-1.481,-1.4736,-1.5098,-1.519,-1.4766,-1.5107,-1.5371,-1.541,-1.4632,-1.4585,-1.5371,-1.5049,-1.5019,-1.54,-1.541,-1.541,-1.541,-1.541,-1.541,-1.541,-1.541,-1.541,-1.541,-1.541,-1.52,-1.4819,-1.438,-1.3955,-1.3535,-1.3149,-1.2949,-1.2886,-1.292,-1.2935,-1.2935,-1.2891,-1.3149,-1.3506,-0.6616,-0.6633,-0.6644,-0.6616,-0.6599,-0.6616,-0.6661,-0.6661,-0.674,-0.6937,-0.7009,-0.7187,-0.7567,-0.7447,-0.7425,-0.7582,-0.7417,-0.7394,-0.7642,-0.7665,-0.7753,-0.7941,-0.7941,-0.7891,-0.7783,-0.803,-0.8119,-0.8006,-0.8006,-0.8006,-0.802,-0.8168,-0.8141,-0.7956,-0.8057,-0.8023,-0.7907,-0.8049,-0.8394,-0.8852,-0.9318,-0.9514,-0.9591,-1.0167,-1.0114,-0.9748,-0.9937,-1.026,-1.064,-1.0818,-1.0804,-1.0743,-1.0866,-1.0587,-1.0235,-1.0458,-1.1349,-1.2226,-1.1801,-1.2835,-1.4007,-1.3938,-1.3607,-1.3512,-1.4215,-1.4905,-1.5192,-1.4343,-1.4003,-1.3642,-1.3195,-1.2973,-1.2881,-1.2881,-1.3506,-1.3863,-1.3677,-1.4585,-1.5024,-1.4355,-1.4658,-1.4751,-1.4316,-1.4668,-1.5059,-1.5391,-1.5234,-1.5215,-1.54,-1.5327,-1.5317,-1.5405,-1.541,-1.541,-1.541,-1.541,-1.541,-1.541,-1.541,-1.541,-1.541,-1.541,-1.5361,-1.5254,-1.4829,-1.4394,-1.3936,-1.3901,-1.3472,-1.2915,-1.3247,-1.3369,-1.333,-1.3003,-1.3149,-1.3506,-0.6599,-0.6599,-0.6599,-0.6599,-0.6599,-0.6599,-0.6599,-0.6599,-0.6633,-0.674,-0.6841,-0.7,-0.7235,-0.7223,-0.7256,-0.7401,-0.7191,-0.716,-0.7401,-0.7417,-0.759,-0.7983,-0.7727,-0.7659,-0.7837,-0.7729,-0.7629,-0.7576,-0.7576,-0.7576,-0.7568,-0.768,-0.7665,-0.7576,-0.7775,-0.7819,-0.7761,-0.7856,-0.7975,-0.8141,-0.8699,-0.89,-0.8954,-0.9662,-0.9813,-0.9669,-0.985,-1.0116,-1.0427,-1.0612,-1.066,-1.0636,-1.066,-1.0521,-1.0373,-1.0403,-1.1203,-1.2004,-1.1647,-1.2503,-1.3512,-1.3572,-1.3539,-1.3639,-1.4252,-1.437,-1.4261,-1.3862,-1.3552,-1.3286,-1.2973,-1.2881,-1.2881,-1.2881,-1.3589,-1.4004,-1.3838,-1.4556,-1.4868,-1.4155,-1.4336,-1.4385,-1.4102,-1.416,-1.4351,-1.477,-1.4614,-1.4683,-1.5093,-1.5112,-1.5205,-1.5405,-1.541,-1.541,-1.541,-1.541,-1.541,-1.541,-1.541,-1.541,-1.541,-1.541,-1.5303,-1.5098,-1.4883,-1.4424,-1.3838,-1.3838,-1.3457,-1.2905,-1.312,-1.3208,-1.3203,-1.3188,-1.332,-1.3506,-0.6471,-0.6506,-0.6535,-0.6535,-0.6575,-0.6599,-0.6599,-0.6599,-0.6599,-0.6599,-0.674,-0.6851,-0.6901,-0.7054,-0.713,-0.7098,-0.6947,-0.6937,-0.713,-0.7242,-0.7546,-0.8074,-0.7707,-0.7711,-0.8184,-0.7601,-0.7258,-0.7202,-0.7202,-0.7202,-0.7202,-0.7202,-0.7218,-0.7272,-0.7507,-0.7612,-0.7672,-0.7894,-0.7757,-0.7465,-0.8156,-0.8457,-0.854,-0.913,-0.958,-0.9899,-0.9899,-1.0091,-1.0304,-1.0304,-1.049,-1.0674,-1.0409,-1.0514,-1.0694,-1.0503,-1.1086,-1.1752,-1.1584,-1.2247,-1.2998,-1.3044,-1.3376,-1.3905,-1.448,-1.3873,-1.322,-1.3564,-1.3238,-1.2881,-1.2881,-1.2881,-1.2905,-1.2978,-1.3569,-1.4024,-1.4224,-1.4497,-1.4541,-1.4175,-1.3956,-1.3975,-1.4068,-1.3755,-1.3686,-1.4048,-1.3882,-1.4038,-1.4746,-1.4853,-1.5054,-1.54,-1.541,-1.541,-1.541,-1.541,-1.541,-1.541,-1.541,-1.541,-1.541,-1.5337,-1.5156,-1.4883,-1.4736,-1.4272,-1.3613,-1.3613,-1.3325,-1.2886,-1.2964,-1.2944,-1.292,-1.3271,-1.3398,-1.3398,-0.5997,-0.6141,-0.6254,-0.6254,-0.6453,-0.6599,-0.6599,-0.6599,-0.6599,-0.6599,-0.6633,-0.6712,-0.6884,-0.6927,-0.6861,-0.6689,-0.6661,-0.6723,-0.6927,-0.7424,-0.7833,-0.8095,-0.8476,-0.8631,-0.8537,-0.8008,-0.7549,-0.7202,-0.7202,-0.7202,-0.7202,-0.7202,-0.7325,-0.7545,-0.7582,-0.7694,-0.7871,-0.8199,-0.8289,-0.8254,-0.8476,-0.8844,-0.924,-0.9163,-0.9465,-0.9899,-0.9899,-0.9925,-0.997,-0.997,-1.0002,-1.0027,-0.997,-1.0002,-1.0123,-1.0552,-1.0804,-1.1053,-1.1536,-1.2079,-1.2609,-1.3055,-1.3168,-1.3281,-1.3816,-1.3819,-1.3564,-1.3089,-1.2978,-1.2881,-1.2881,-1.2881,-1.2998,-1.3364,-1.352,-1.3848,-1.459,-1.4424,-1.4145,-1.4087,-1.3491,-1.334,-1.4009,-1.3755,-1.3686,-1.4048,-1.4434,-1.4663,-1.478,-1.5127,-1.5352,-1.541,-1.541,-1.541,-1.541,-1.541,-1.541,-1.541,-1.541,-1.541,-1.54,-1.5034,-1.5034,-1.5288,-1.4541,-1.4107,-1.3995,-1.3995,-1.3589,-1.2915,-1.3281,-1.3203,-1.2886,-1.2944,-1.2964,-1.2964,-0.5905,-0.5967,-0.6034,-0.6034,-0.623,-0.6377,-0.6377,-0.65,-0.6599,-0.6599,-0.6599,-0.6633,-0.6729,-0.6729,-0.6695,-0.6616,-0.6599,-0.6633,-0.6729,-0.6977,-0.7449,-0.8181,-0.8109,-0.8322,-0.8873,-0.8028,-0.7488,-0.7307,-0.7005,-0.6865,-0.6865,-0.6865,-0.6937,-0.7042,-0.7155,-0.7266,-0.7359,-0.7611,-0.7664,-0.7598,-0.7993,-0.8415,-0.8803,-0.901,-0.9422,-0.9899,-0.9899,-0.9899,-0.9899,-0.9899,-0.9899,-0.9899,-0.9899,-1.0113,-1.0347,-1.0333,-1.078,-1.1335,-1.1525,-1.1969,-1.2466,-1.2913,-1.2981,-1.3002,-1.3236,-1.3286,-1.3243,-1.2973,-1.2881,-1.2881,-1.2881,-1.2881,-1.2944,-1.3125,-1.355,-1.3989,-1.4365,-1.4204,-1.3995,-1.3809,-1.3252,-1.312,-1.3726,-1.3403,-1.333,-1.375,-1.418,-1.4531,-1.4775,-1.5186,-1.541,-1.541,-1.541,-1.541,-1.541,-1.541,-1.541,-1.541,-1.541,-1.541,-1.5395,-1.4976,-1.5015,-1.5366,-1.4507,-1.4082,-1.4063,-1.3882,-1.3428,-1.29,-1.3086,-1.3188,-1.3232,-1.3232,-1.3232,-1.3232]}]]